[[{"header":{"parameterUnit":"m.s-1","parameterCategory":1,"la1":31.0,"la2":29.5877,"lo1":-88.7671,"lo2":-86.6584,"dy":0.0162,"dx":0.0185,"nx":115,"ny":88,"refTime":"2023-09-09T06:00:00:Z","depth":0,"parameterNumber":2,"parameterNumberName":"U-component_of_WINDS"},"data":[0.0,0.0,0.0,0.0,0.0,0.0,0.0,0.0,0.0,0.0,0.0,0.0,0.0,0.0,0.0,0.0,0.0,0.0,0.0,0.0,0.0,0.0,0.0,0.0,0.0,0.0,0.0,0.0,0.0,0.0,0.0,0.0,0.0,0.0,0.0,0.0,0.0,0.0,0.0,0.0,0.0,0.0,0.0,0.0,0.0,0.0,0.0,0.0,0.0,0.0,0.0,0.0,0.0,0.0,0.0,0.0,0.0,0.0,0.0,0.0,0.0,0.0,0.0,0.0,0.0,0.0,0.0,0.0,0.0,0.0,0.0,0.0,0.0,0.0,0.0,0.0,0.0,0.0,0.0,0.0,0.0,0.0,0.0,0.0,0.0,0.0,0.0,0.0,0.0,0.0,0.0,0.0,0.0,0.0,0.0,0.0,0.0,0.0,0.0,0.0,0.0,0.0,0.0,0.0,0.0,0.0,0.0,0.0,0.0,0.0,0.0,0.0,0.0,0.0,0.0,0.0,0.0,0.0,0.0,0.0,0.0,0.0,0.0,0.0,0.0,0.0,0.0,0.0,0.0,0.0,0.0,0.0,0.0,0.0,0.0,0.0,0.0,0.0,0.0,0.0,0.0,0.0,0.0,0.0,0.0,0.0,0.0,0.0,0.0,0.0,0.0,0.0,0.0,0.0,0.0,0.0,0.0,0.0,0.0,0.0,0.0,0.0,0.0,0.0,0.0,0.0,0.0,0.0,0.0,0.0,0.0,0.0,0.0,0.0,0.0,0.0,0.0,0.0,0.0,0.0,0.0,0.0,0.0,0.0,0.0,0.0,0.0,0.0,0.0,0.0,0.0,0.0,0.0,0.0,0.0,0.0,0.0,0.0,0.0,0.0,0.0,0.0,0.0,0.0,0.0,0.0,0.0,0.0,0.0,0.0,0.0,0.0,0.0,0.0,0.0,0.0,0.0,0.0,0.0,0.0,0.0,0.0,0.0,0.0,0.0,0.0,0.0,0.0,0.0,0.0,0.0,0.0,0.0,0.0,0.0,0.0,0.0,0.0,0.0,0.0,0.0,0.0,0.0,0.0,0.0,0.0,0.0,0.0,0.0,0.0,0.0,0.0,0.0,0.0,0.0,0.0,0.0,0.0,0.0,0.0,0.0,0.0,0.0,0.0,0.0,0.0,0.0,0.0,0.0,0.0,0.0,0.0,0.0,0.0,0.0,0.0,0.0,0.0,0.0,0.0,0.0,0.0,0.0,0.0,0.0,0.0,0.0,0.0,0.0,0.0,0.0,0.0,0.0,0.0,0.0,0.0,0.0,0.0,0.0,0.0,0.0,0.0,0.0,0.0,0.0,0.0,0.0,0.0,0.0,0.0,0.0,0.0,0.0,0.0,0.0,0.0,0.0,0.0,0.0,0.0,0.0,0.0,0.0,0.0,0.0,0.0,0.0,0.0,0.0,0.0,0.0,0.0,0.0,0.0,0.0,0.0,0.0,0.0,0.0,0.0,0.0,0.0,0.0,0.0,0.0,0.0,0.0,0.0,0.0,0.0,0.0,0.0,0.0,0.0,0.0,0.0,0.0,0.0,0.0,0.0,0.0,0.0,0.0,0.0,0.0,0.0,0.0,0.0,0.0,0.0,0.0,0.0,0.0,0.0,0.0,0.0,0.0,0.0,0.0,0.0,0.0,0.0,0.0,0.0,0.0,0.0,0.0,0.0,0.0,0.0,0.0,0.0,0.0,0.0,0.0,0.0,0.0,0.0,0.0,0.0,0.0,0.0,0.0,0.0,0.0,0.0,0.0,0.0,0.0,0.0,0.0,0.0,0.0,0.0,0.0,0.0,0.0,0.0,0.0,0.0,0.0,0.0,0.0,0.0,0.0,0.0,0.0,0.0,0.0,0.0,0.0,0.0,0.0,0.0,0.0,0.0,0.0,0.0,0.0,0.0,0.0,0.0,0.0,0.0,0.0,0.0,0.0,0.0,0.0,0.0,0.0,0.0,0.0,0.0,0.0,0.0,0.0,0.0,0.0,0.0,0.0,0.0,0.0,0.0,0.0,0.0,0.0,0.0,0.0,0.0,0.0,0.0,0.0,0.0,0.0,0.0,0.0,0.0,0.0,0.0,0.0,0.0,0.0,0.0,0.0,0.0,0.0,0.0,0.0,0.0,0.0,0.0,0.0,0.0,0.0,0.0,0.0,0.0,0.0,0.0,0.0,0.0,0.0,0.0,0.0,0.0,0.0,0.0,0.0,0.0,0.0,0.0,0.0,0.0,0.0,0.0,0.0,0.0,0.0,0.0,0.0,0.0,0.0,0.0,0.0,0.0,0.0,0.0,0.0,0.0,0.0,0.0,0.0,0.0,0.0,0.0,0.0,0.0,0.0,0.0,0.0,0.0,0.0,0.0,0.0,0.0,0.0,0.0,0.0,0.0,0.0,0.0,0.0,0.0,0.0,0.0,0.0,0.0,0.0,0.0,0.0,0.0,0.0,0.0,0.0,0.0,0.0,0.0,0.0,0.0,0.0,0.0,0.0,0.0,0.0,0.0,0.0,0.0,0.0,0.0,0.0,0.0,0.0,0.0,0.0,0.0,0.0,0.0,0.0,0.0,0.0,0.0,0.0,0.0,0.0,0.0,0.0,0.0,0.0,0.0,0.0,0.0,0.0,0.0,0.0,0.0,0.0,0.0,0.0,0.0,0.0,0.0,0.0,0.0,0.0,0.0,0.0,0.0,0.0,0.0,0.0,0.0,0.0,0.0,0.0,0.0,0.0,0.0,0.0,0.0,0.0,0.0,0.0,0.0,0.0,0.0,0.0,0.0,0.0,0.0,0.0,0.0,0.0,0.0,0.0,0.0,0.0,0.0,0.0,0.0,0.0,0.0,0.0,0.0,0.0,0.0,0.0,0.0,0.0,0.0,0.0,0.0,0.0,0.0,0.0,0.0,0.0,0.0,0.0,0.0,0.0,0.0,0.0,0.0,0.0,0.0,0.0,0.0,0.0,0.0,0.0,0.0,0.0,0.0,0.0,0.0,0.0,0.0,0.0,0.0,0.0,0.0,0.0,0.0,0.0,0.0,0.0,0.0,0.0,0.0,0.0,0.0,0.0,0.0,0.0,0.0,0.0,0.0,0.0,0.0,0.0,0.0,0.0,0.0,0.0,0.0,0.0,0.0,0.0,0.0,0.0,0.0,0.0,0.0,0.0,0.0,0.0,0.0,0.0,0.0,0.0,0.0,0.0,0.0,0.0,0.0,0.0,0.0,0.0,0.0,0.0,0.0,0.0,0.0,0.0,0.0,0.0,0.0,0.0,0.0,0.0,0.0,0.0,0.0,0.0,0.0,0.0,0.0,0.0,0.0,0.0,0.0,0.0,0.0,0.0,0.0,0.0,0.0,0.0,0.0,0.0,0.0,0.0,0.0,0.0,0.0,0.0,0.0,0.0,0.0,0.0,0.0,0.0,0.0,0.0,0.0,0.0,0.0,0.0,0.0,0.0,0.0,0.0,0.0,0.0,0.0,0.0,0.0,0.0,0.0,0.0,0.0,0.0,0.0,0.0,0.0,0.0,0.0,0.0,0.0,0.0,0.0,0.0,0.0,0.0,0.0,0.0,0.0,0.0,0.0,0.0,0.0,0.0,0.0,0.0,0.0,0.0,0.0,0.0,0.0,0.0,0.0,0.0,0.0,0.0,0.0,0.0,0.0,0.0,0.0,0.0,0.0,0.0,0.0,0.0,0.0,0.0,0.0,0.0,0.0,0.0,0.0,0.0,0.0,0.0,0.0,0.0,0.0,0.0,0.0,0.0,0.0,0.0,0.0,0.0,0.0,0.0,0.0,0.0,0.0,0.0,0.0,0.0,0.0,0.0,0.0,0.0,0.0,0.0,0.0,0.0,0.0,0.0,0.0,0.0,0.0,0.0,0.0,0.0,0.0,0.0,0.0,0.0,0.0,0.0,0.0,0.0,0.0,0.0,0.0,0.0,0.0,0.0,0.0,0.0,0.0,0.0,0.0,0.0,0.0,0.0,0.0,0.0,0.0,0.0,0.0,0.0,0.0,0.0,0.0,0.0,0.0,0.0,0.0,0.0,0.0,0.0,0.0,0.0,0.0,0.0,0.0,0.0,0.0,0.0,0.0,0.0,0.0,0.0,0.0,0.0,0.0,0.0,0.0,0.0,0.0,0.0,0.0,0.0,0.0,0.0,0.0,0.0,0.0,0.0,0.0,0.0,0.0,0.0,0.0,0.0,0.0,0.0,0.0,0.0,0.0,2.2272,0.0,0.0,0.0,0.0,0.0,0.0,0.0,0.0,0.0,0.0,0.0,0.0,0.0,0.0,0.0,0.0,0.0,0.0,0.0,0.0,0.0,0.0,0.0,0.0,0.0,0.0,0.0,0.0,0.0,0.0,0.0,0.0,0.0,0.0,0.0,0.0,0.0,0.0,0.0,0.0,0.0,0.0,0.0,0.0,0.0,0.0,0.0,0.0,0.0,0.0,0.0,0.0,0.0,0.0,0.0,0.0,0.0,0.0,0.0,0.0,0.0,0.0,0.0,0.0,0.0,0.0,0.0,0.0,0.0,0.0,0.0,0.0,0.0,0.0,0.0,0.0,0.0,0.0,0.0,0.0,0.0,0.0,0.0,0.0,0.0,0.0,0.0,0.0,0.0,0.0,0.0,0.0,0.0,0.0,0.0,0.0,0.0,0.0,0.0,0.0,0.0,0.0,0.0,0.0,0.0,0.0,0.0,0.0,0.0,0.0,2.4776,2.4833,2.4454,2.3849,2.3015,0.0,0.0,0.0,0.0,0.0,0.0,0.0,0.0,0.0,0.0,0.0,0.0,0.0,0.0,0.0,0.0,0.0,0.0,0.0,0.0,0.0,0.0,0.0,0.0,0.0,0.0,0.0,0.0,0.0,0.0,0.0,0.0,0.0,0.0,0.0,0.0,0.0,0.0,0.0,0.0,0.0,0.0,0.0,0.0,0.0,0.0,0.0,0.0,0.0,0.0,0.0,0.0,0.0,0.0,0.0,0.0,0.0,0.0,0.0,0.0,0.0,0.0,0.0,0.0,0.0,0.0,0.0,0.0,0.0,0.0,0.0,0.0,0.0,0.0,0.0,0.0,0.0,0.0,0.0,0.0,0.0,0.0,0.0,0.0,0.0,0.0,0.0,0.0,0.0,0.0,0.0,0.0,0.0,0.0,0.0,0.0,0.0,0.0,0.0,0.0,0.0,0.0,0.0,0.0,0.0,0.0,0.0,0.0,0.0,0.0,0.0,0.0,2.5259,2.4781,2.3782,0.0,0.0,0.0,0.0,0.0,0.0,0.0,0.0,0.0,0.0,0.0,0.0,0.0,0.0,0.0,0.0,0.0,0.0,0.0,0.0,0.0,0.0,0.0,0.0,0.0,0.0,0.0,0.0,0.0,0.0,0.0,0.0,0.0,0.0,0.0,0.0,0.0,0.0,0.0,0.0,0.0,0.0,0.0,0.0,0.0,0.0,0.0,0.0,0.0,0.0,0.0,0.0,0.0,0.0,0.0,0.0,0.0,0.0,0.0,0.0,0.0,0.0,0.0,0.0,0.0,0.0,0.0,0.0,0.0,0.0,0.0,0.0,0.0,0.0,0.0,0.0,0.0,0.0,0.0,0.0,0.0,0.0,0.0,0.0,0.0,0.0,0.0,0.0,0.0,0.0,0.0,0.0,0.0,0.0,0.0,0.0,0.0,0.0,0.0,0.0,0.0,0.0,0.0,0.0,0.0,0.0,0.0,0.0,0.0,0.0,2.617,2.6952,2.6954,0.0,2.4559,0.0,0.0,0.0,0.0,0.0,0.0,0.0,0.0,0.0,0.0,0.0,0.0,0.0,0.0,0.0,0.0,0.0,0.0,0.0,0.0,0.0,0.0,0.0,0.0,0.0,0.0,0.0,0.0,0.0,0.0,0.0,0.0,0.0,0.0,0.0,0.0,0.0,0.0,0.0,0.0,0.0,0.0,0.0,0.0,0.0,0.0,0.0,0.0,0.0,0.0,0.0,0.0,0.0,0.0,0.0,0.0,0.0,0.0,0.0,0.0,0.0,0.0,0.0,0.0,0.0,0.0,0.0,0.0,0.0,0.0,0.0,0.0,0.0,0.0,0.0,0.0,0.0,0.0,0.0,0.0,0.0,0.0,0.0,0.0,0.0,0.0,0.0,0.0,0.0,0.0,0.0,0.0,0.0,0.0,0.0,0.0,0.0,0.0,0.0,0.0,0.0,0.0,0.0,0.0,0.0,0.0,0.0,0.0,0.0,0.0,2.7627,2.8485,2.8045,2.7228,0.0,0.0,0.0,0.0,0.0,0.0,0.0,0.0,0.0,0.0,0.0,0.0,0.0,0.0,0.0,0.0,0.0,0.0,0.0,0.0,0.0,0.0,0.0,0.0,0.0,0.0,0.0,0.0,0.0,0.0,0.0,0.0,0.0,0.0,0.0,0.0,0.0,0.0,0.0,0.0,0.0,0.0,0.0,0.0,0.0,0.0,0.0,0.0,0.0,0.0,0.0,0.0,0.0,0.0,0.0,0.0,0.0,0.0,0.0,0.0,0.0,0.0,0.0,0.0,0.0,0.0,0.0,0.0,0.0,0.0,0.0,0.0,0.0,0.0,0.0,0.0,0.0,0.0,0.0,0.0,0.0,0.0,0.0,0.0,0.0,0.0,0.0,0.0,0.0,0.0,0.0,0.0,0.0,0.0,0.0,0.0,0.0,0.0,0.0,0.0,0.0,0.0,0.0,0.0,0.0,0.0,0.0,0.0,0.0,0.0,2.7687,2.8616,2.9625,2.8723,2.7698,2.6628,0.0,0.0,0.0,0.0,0.0,0.0,0.0,0.0,0.0,0.0,0.0,0.0,0.0,0.0,0.0,0.0,0.0,0.0,0.0,0.0,0.0,0.0,0.0,0.0,0.0,0.0,0.0,0.0,0.0,0.0,0.0,0.0,0.0,0.0,0.0,0.0,0.0,0.0,0.0,0.0,0.0,0.0,0.0,0.0,0.0,0.0,0.0,0.0,0.0,0.0,0.0,0.0,0.0,0.0,0.0,0.0,0.0,0.0,0.0,0.0,0.0,0.0,0.0,0.0,0.0,0.0,0.0,0.0,0.0,0.0,0.0,0.0,0.0,0.0,0.0,0.0,0.0,0.0,0.0,0.0,0.0,0.0,0.0,0.0,0.0,0.0,0.0,0.0,0.0,0.0,0.0,0.0,0.0,0.0,0.0,0.0,0.0,0.0,0.0,0.0,0.0,0.0,0.0,0.0,0.0,0.0,0.0,0.0,2.6872,2.7724,2.8897,3.0474,2.8969,2.7336,0.0,0.0,0.0,0.0,0.0,0.0,0.0,0.0,0.0,0.0,0.0,0.0,0.0,0.0,0.0,0.0,0.0,0.0,0.0,0.0,0.0,0.0,0.0,0.0,0.0,0.0,0.0,0.0,0.0,0.0,0.0,0.0,0.0,0.0,0.0,0.0,0.0,0.0,0.0,0.0,0.0,0.0,0.0,0.0,0.0,0.0,0.0,0.0,0.0,0.0,0.0,0.0,0.0,0.0,0.0,0.0,0.0,0.0,0.0,0.0,0.0,0.0,0.0,0.0,0.0,0.0,0.0,0.0,0.0,0.0,0.0,0.0,0.0,0.0,0.0,0.0,0.0,0.0,0.0,0.0,0.0,0.0,0.0,0.0,0.0,0.0,0.0,0.0,0.0,0.0,0.0,0.0,0.0,0.0,0.0,0.0,0.0,0.0,0.0,0.0,0.0,0.0,0.0,0.0,0.0,0.0,0.0,0.0,0.0,2.7689,2.9505,3.0989,3.2035,3.0047,2.8137,0.0,0.0,0.0,0.0,0.0,0.0,0.0,0.0,0.0,0.0,0.0,0.0,0.0,0.0,0.0,0.0,0.0,0.0,0.0,0.0,0.0,0.0,0.0,0.0,0.0,0.0,0.0,0.0,0.0,0.0,0.0,0.0,0.0,0.0,0.0,0.0,0.0,0.0,0.0,0.0,0.0,0.0,0.0,0.0,0.0,0.0,0.0,0.0,0.0,0.0,0.0,0.0,0.0,0.0,0.0,0.0,0.0,0.0,0.0,0.0,0.0,0.0,0.0,0.0,0.0,0.0,0.0,0.0,0.0,0.0,0.0,0.0,0.0,0.0,0.0,0.0,0.0,0.0,0.0,0.0,0.0,0.0,0.0,0.0,0.0,0.0,0.0,0.0,0.0,0.0,0.0,0.0,0.0,0.0,0.0,0.0,0.0,0.0,0.0,0.0,0.0,0.0,0.0,0.0,0.0,0.0,0.0,0.0,0.0,2.8521,0.0,3.2048,3.2515,3.053,2.8352,0.0,0.0,0.0,0.0,0.0,0.0,0.0,0.0,0.0,0.0,0.0,0.0,0.0,0.0,0.0,0.0,0.0,0.0,0.0,0.0,0.0,0.0,0.0,0.0,0.0,0.0,0.0,0.0,0.0,0.0,0.0,0.0,0.0,0.0,0.0,0.0,0.0,0.0,0.0,0.0,0.0,0.0,0.0,0.0,0.0,0.0,0.0,0.0,0.0,0.0,0.0,0.0,0.0,0.0,0.0,0.0,0.0,0.0,0.0,0.0,0.0,0.0,0.0,0.0,0.0,0.0,0.0,0.0,0.0,0.0,0.0,0.0,0.0,0.0,0.0,0.0,0.0,0.0,0.0,0.0,0.0,0.0,0.0,0.0,0.0,0.0,0.0,0.0,0.0,0.0,0.0,0.0,0.0,0.0,0.0,0.0,0.0,0.0,0.0,0.0,0.0,0.0,0.0,0.0,0.0,0.0,0.0,0.0,2.6205,2.9357,3.1005,3.1891,3.1809,3.032,2.7833,0.0,0.0,0.0,0.0,0.0,0.0,0.0,0.0,0.0,0.0,0.0,0.0,0.0,0.0,0.0,0.0,0.0,0.0,0.0,0.0,0.0,0.0,0.0,0.0,0.0,0.0,0.0,0.0,0.0,0.0,0.0,0.0,0.0,0.0,0.0,0.0,0.0,0.0,0.0,0.0,0.0,0.0,0.0,0.0,0.0,0.0,0.0,0.0,0.0,0.0,0.0,0.0,0.0,0.0,0.0,0.0,0.0,0.0,0.0,0.0,0.0,0.0,0.0,0.0,0.0,0.0,0.0,0.0,0.0,0.0,0.0,0.0,0.0,0.0,0.0,0.0,0.0,0.0,0.0,0.0,0.0,0.0,0.0,0.0,0.0,0.0,0.0,0.0,0.0,0.0,0.0,0.0,0.0,0.0,0.0,0.0,0.0,0.0,0.0,0.0,0.0,0.0,0.0,0.0,0.0,0.0,0.0,0.0,0.0,3.1653,3.2212,3.2763,3.3207,3.1222,2.8778,0.0,0.0,0.0,0.0,0.0,0.0,0.0,0.0,0.0,0.0,0.0,0.0,0.0,0.0,0.0,0.0,0.0,0.0,0.0,0.0,0.0,0.0,0.0,0.0,0.0,0.0,0.0,0.0,0.0,0.0,0.0,0.0,0.0,0.0,0.0,0.0,0.0,0.0,0.0,0.0,0.0,0.0,0.0,0.0,0.0,0.0,0.0,0.0,0.0,0.0,0.0,0.0,0.0,0.0,0.0,0.0,0.0,0.0,0.0,0.0,0.0,0.0,0.0,0.0,0.0,0.0,0.0,0.0,0.0,0.0,0.0,0.0,0.0,0.0,0.0,0.0,0.0,0.0,0.0,0.0,0.0,0.0,0.0,0.0,0.0,0.0,0.0,0.0,0.0,0.0,0.0,0.0,0.0,0.0,0.0,0.0,0.0,0.0,0.0,0.0,0.0,0.0,0.0,0.0,0.0,0.0,0.0,0.0,0.0,3.3954,3.3839,3.3935,3.4449,3.2404,2.9994,2.7243,0.0,0.0,0.0,0.0,0.0,0.0,0.0,0.0,0.0,0.0,0.0,0.0,0.0,0.0,0.0,0.0,0.0,0.0,0.0,0.0,0.0,0.0,0.0,0.0,0.0,0.0,0.0,0.0,0.0,0.0,0.0,0.0,0.0,0.0,0.0,0.0,0.0,0.0,0.0,0.0,0.0,0.0,0.0,0.0,0.0,0.0,0.0,0.0,0.0,0.0,0.0,0.0,0.0,0.0,0.0,0.0,0.0,0.0,0.0,0.0,0.0,0.0,0.0,0.0,0.0,0.0,0.0,0.0,0.0,0.0,0.0,0.0,0.0,0.0,0.0,0.0,0.0,0.0,0.0,0.0,0.0,0.0,0.0,0.0,0.0,0.0,0.0,0.0,0.0,0.0,0.0,0.0,0.0,0.0,0.0,0.0,0.0,0.0,0.0,0.0,0.0,0.0,0.0,0.0,0.0,0.0,0.0,0.0,3.6248,3.5801,3.5531,3.5469,3.3882,3.1479,0.0,0.0,0.0,0.0,0.0,0.0,0.0,0.0,0.0,0.0,0.0,0.0,0.0,0.0,0.0,0.0,0.0,0.0,0.0,0.0,0.0,0.0,0.0,0.0,0.0,0.0,0.0,0.0,0.0,0.0,0.0,0.0,0.0,0.0,0.0,0.0,0.0,0.0,0.0,0.0,0.0,0.0,0.0,0.0,0.0,0.0,0.0,0.0,0.0,0.0,0.0,0.0,0.0,0.0,0.0,0.0,0.0,0.0,0.0,0.0,0.0,0.0,0.0,0.0,0.0,0.0,0.0,0.0,0.0,0.0,0.0,0.0,0.0,0.0,0.0,0.0,0.0,0.0,0.0,0.0,0.0,0.0,0.0,0.0,0.0,0.0,0.0,0.0,0.0,0.0,0.0,0.0,0.0,0.0,0.0,0.0,0.0,0.0,0.0,0.0,0.0,0.0,0.0,0.0,0.0,0.0,0.0,0.0,0.0,3.627,3.8407,3.9268,3.8654,3.654,3.4119,0.0,0.0,0.0,0.0,0.0,0.0,0.0,0.0,0.0,0.0,0.0,0.0,0.0,0.0,0.0,0.0,0.0,0.0,0.0,0.0,0.0,0.0,0.0,0.0,0.0,0.0,0.0,0.0,0.0,0.0,0.0,0.0,0.0,0.0,0.0,0.0,0.0,0.0,0.0,0.0,0.0,0.0,0.0,0.0,0.0,0.0,0.0,0.0,0.0,0.0,0.0,0.0,0.0,0.0,0.0,0.0,0.0,0.0,0.0,0.0,0.0,0.0,0.0,0.0,0.0,0.0,0.0,0.0,0.0,0.0,0.0,0.0,0.0,0.0,0.0,0.0,0.0,0.0,0.0,0.0,0.0,0.0,0.0,0.0,0.0,0.0,0.0,0.0,0.0,0.0,0.0,0.0,0.0,0.0,0.0,0.0,0.0,0.0,0.0,0.0,0.0,0.0,0.0,0.0,0.0,0.0,0.0,0.0,3.5807,3.7797,4.0634,4.1882,4.1436,3.8744,3.6134,0.0,0.0,0.0,0.0,0.0,0.0,0.0,0.0,0.0,0.0,0.0,0.0,0.0,0.0,0.0,0.0,0.0,0.0,0.0,0.0,0.0,0.0,0.0,0.0,0.0,0.0,0.0,0.0,0.0,0.0,0.0,0.0,0.0,0.0,0.0,0.0,0.0,0.0,0.0,0.0,0.0,0.0,0.0,0.0,0.0,0.0,0.0,0.0,0.0,0.0,0.0,0.0,0.0,0.0,0.0,0.0,0.0,0.0,0.0,0.0,0.0,0.0,0.0,0.0,0.0,0.0,0.0,0.0,0.0,0.0,0.0,0.0,0.0,0.0,0.0,0.0,0.0,0.0,0.0,0.0,0.0,0.0,0.0,0.0,0.0,0.0,0.0,0.0,0.0,0.0,0.0,0.0,0.0,0.0,0.0,0.0,0.0,0.0,0.0,0.0,0.0,0.0,0.0,0.0,0.0,0.0,0.0,0.0,3.7577,3.9981,4.2299,4.3488,4.3414,4.0469,3.7709,0.0,0.0,0.0,0.0,0.0,0.0,0.0,0.0,0.0,0.0,0.0,0.0,0.0,0.0,0.0,0.0,0.0,0.0,0.0,0.0,0.0,0.0,0.0,0.0,0.0,0.0,0.0,0.0,0.0,0.0,0.0,0.0,0.0,0.0,0.0,0.0,0.0,0.0,0.0,0.0,0.0,0.0,0.0,0.0,0.0,0.0,0.0,0.0,0.0,0.0,0.0,0.0,0.0,0.0,0.0,0.0,0.0,0.0,0.0,0.0,0.0,0.0,0.0,0.0,0.0,0.0,0.0,0.0,0.0,0.0,0.0,0.0,0.0,0.0,0.0,0.0,0.0,0.0,0.0,0.0,0.0,0.0,0.0,0.0,0.0,0.0,0.0,0.0,0.0,0.0,0.0,0.0,0.0,0.0,0.0,0.0,0.0,0.0,0.0,0.0,0.0,0.0,0.0,0.0,0.0,0.0,0.0,0.0,3.8421,4.0791,4.2584,4.3483,4.3483,4.1005,3.8807,0.0,0.0,0.0,0.0,0.0,0.0,0.0,0.0,0.0,0.0,0.0,0.0,0.0,0.0,0.0,0.0,0.0,0.0,0.0,0.0,0.0,0.0,0.0,0.0,0.0,0.0,0.0,0.0,0.0,0.0,0.0,0.0,0.0,0.0,0.0,0.0,0.0,0.0,0.0,0.0,0.0,0.0,0.0,0.0,0.0,0.0,0.0,0.0,2.7196,0.0,0.0,0.0,0.0,0.0,0.0,0.0,0.0,0.0,0.0,0.0,0.0,0.0,0.0,0.0,0.0,0.0,0.0,0.0,0.0,0.0,0.0,0.0,0.0,0.0,0.0,0.0,0.0,0.0,0.0,0.0,0.0,0.0,0.0,0.0,0.0,0.0,0.0,0.0,0.0,0.0,0.0,0.0,0.0,0.0,0.0,0.0,0.0,0.0,0.0,0.0,0.0,0.0,0.0,0.0,0.0,0.0,0.0,0.0,3.9243,4.1599,4.2864,4.3483,4.3433,4.1909,4.0088,0.0,0.0,0.0,0.0,0.0,0.0,0.0,0.0,0.0,0.0,0.0,0.0,0.0,0.0,0.0,0.0,0.0,0.0,0.0,0.0,0.0,0.0,0.0,0.0,0.0,0.0,0.0,0.0,0.0,0.0,0.0,0.0,0.0,0.0,0.0,0.0,0.0,0.0,0.0,0.0,0.0,0.0,0.0,0.0,0.0,0.0,0.0,0.0,0.0,0.0,0.0,0.0,0.0,0.0,0.0,0.0,0.0,0.0,0.0,0.0,0.0,0.0,0.0,0.0,0.0,0.0,0.0,0.0,0.0,0.0,0.0,0.0,0.0,0.0,0.0,0.0,0.0,0.0,0.0,0.0,0.0,0.0,0.0,0.0,0.0,0.0,0.0,0.0,0.0,0.0,0.0,0.0,0.0,0.0,0.0,0.0,0.0,0.0,0.0,0.0,0.0,0.0,0.0,0.0,0.0,0.0,0.0,3.7107,3.9915,4.2382,4.3139,4.3483,4.3488,4.2731,4.1111,3.8557,0.0,0.0,0.0,0.0,0.0,0.0,0.0,0.0,0.0,0.0,0.0,0.0,0.0,0.0,0.0,0.0,0.0,0.0,0.0,0.0,0.0,0.0,0.0,0.0,0.0,0.0,0.0,0.0,0.0,0.0,0.0,0.0,0.0,0.0,0.0,0.0,0.0,0.0,2.5349,2.6848,0.0,0.0,0.0,0.0,0.0,0.0,0.0,0.0,2.8996,0.0,0.0,0.0,0.0,0.0,0.0,0.0,0.0,0.0,0.0,0.0,0.0,0.0,0.0,0.0,0.0,0.0,0.0,0.0,0.0,0.0,0.0,0.0,0.0,0.0,0.0,0.0,0.0,0.0,0.0,0.0,0.0,0.0,0.0,0.0,0.0,0.0,0.0,0.0,0.0,0.0,0.0,0.0,0.0,0.0,0.0,0.0,0.0,0.0,0.0,0.0,0.0,0.0,0.0,0.0,0.0,3.4759,3.7375,4.019,4.3194,4.3433,4.3483,4.3469,4.2708,4.0855,3.7782,0.0,0.0,0.0,0.0,0.0,0.0,0.0,0.0,0.0,0.0,0.0,0.0,0.0,0.0,0.0,0.0,0.0,0.0,0.0,0.0,0.0,0.0,0.0,0.0,0.0,0.0,0.0,0.0,0.0,0.0,0.0,0.0,0.0,0.0,0.0,0.0,0.0,0.0,0.0,2.9003,2.9485,0.0,0.0,0.0,0.0,0.0,0.0,0.0,0.0,3.2147,0.0,0.0,0.0,0.0,0.0,0.0,0.0,0.0,0.0,0.0,0.0,0.0,0.0,0.0,0.0,0.0,0.0,0.0,0.0,0.0,0.0,0.0,0.0,0.0,0.0,0.0,0.0,0.0,0.0,0.0,0.0,0.0,0.0,0.0,0.0,0.0,0.0,0.0,0.0,0.0,0.0,0.0,0.0,0.0,0.0,0.0,0.0,0.0,0.0,0.0,0.0,0.0,0.0,0.0,0.0,3.5562,3.8479,4.1093,4.3396,4.3483,4.3483,4.3469,4.2693,4.0749,0.0,0.0,0.0,0.0,0.0,0.0,0.0,0.0,0.0,0.0,0.0,0.0,0.0,0.0,0.0,0.0,0.0,0.0,0.0,0.0,0.0,0.0,0.0,0.0,0.0,0.0,0.0,0.0,0.0,0.0,0.0,0.0,0.0,0.0,0.0,0.0,0.0,0.0,0.0,0.0,3.0836,3.1829,3.2937,0.0,0.0,0.0,0.0,0.0,0.0,3.375,3.3223,0.0,0.0,0.0,0.0,0.0,0.0,0.0,0.0,0.0,0.0,0.0,0.0,0.0,0.0,0.0,0.0,0.0,0.0,0.0,0.0,0.0,0.0,0.0,0.0,0.0,0.0,0.0,0.0,0.0,0.0,0.0,0.0,0.0,0.0,0.0,0.0,0.0,0.0,0.0,0.0,0.0,0.0,0.0,0.0,0.0,0.0,0.0,0.0,0.0,0.0,0.0,0.0,0.0,0.0,0.0,3.585,3.9486,4.2097,4.3539,4.3768,4.3837,4.3819,4.2675,4.054,0.0,0.0,0.0,0.0,0.0,0.0,0.0,0.0,0.0,0.0,0.0,0.0,0.0,0.0,0.0,0.0,0.0,0.0,0.0,0.0,0.0,0.0,0.0,0.0,0.0,0.0,0.0,0.0,0.0,0.0,0.0,0.0,0.0,0.0,0.0,0.0,0.0,0.0,0.0,0.0,0.0,3.3848,3.5359,3.4507,0.0,0.0,0.0,0.0,3.4977,3.5155,0.0,0.0,0.0,0.0,0.0,0.0,0.0,0.0,0.0,0.0,0.0,0.0,0.0,0.0,0.0,0.0,0.0,0.0,0.0,0.0,0.0,0.0,0.0,0.0,0.0,0.0,0.0,0.0,0.0,0.0,0.0,0.0,0.0,0.0,0.0,0.0,0.0,0.0,0.0,0.0,0.0,0.0,0.0,0.0,0.0,0.0,0.0,0.0,0.0,0.0,0.0,0.0,0.0,0.0,0.0,0.0,3.4521,3.9575,4.2782,4.3969,4.467,4.4994,4.4976,4.267,3.9914,0.0,0.0,0.0,0.0,0.0,0.0,0.0,0.0,0.0,0.0,0.0,0.0,0.0,0.0,0.0,0.0,0.0,0.0,0.0,0.0,0.0,0.0,0.0,0.0,0.0,0.0,0.0,0.0,0.0,0.0,0.0,0.0,0.0,0.0,0.0,0.0,0.0,0.0,0.0,0.0,0.0,3.4549,3.6073,3.6184,3.5787,0.0,0.0,3.8272,3.8254,3.885,0.0,0.0,0.0,0.0,0.0,0.0,0.0,0.0,0.0,0.0,0.0,0.0,0.0,0.0,0.0,0.0,0.0,0.0,0.0,0.0,0.0,0.0,0.0,0.0,0.0,0.0,0.0,0.0,0.0,0.0,0.0,0.0,0.0,0.0,0.0,0.0,0.0,0.0,0.0,0.0,0.0,0.0,0.0,0.0,0.0,0.0,0.0,0.0,0.0,0.0,0.0,0.0,0.0,0.0,0.0,3.1486,3.5608,4.0834,4.3791,4.4317,4.4632,4.4806,4.4806,4.2485,3.977,0.0,0.0,0.0,0.0,0.0,0.0,0.0,0.0,0.0,0.0,0.0,0.0,0.0,0.0,0.0,0.0,0.0,0.0,0.0,0.0,0.0,0.0,0.0,0.0,0.0,0.0,0.0,0.0,0.0,0.0,0.0,0.0,0.0,0.0,0.0,0.0,0.0,0.0,0.0,0.0,0.0,0.0,3.7539,3.856,0.0,0.0,0.0,3.9999,3.9554,0.0,0.0,0.0,0.0,0.0,0.0,0.0,0.0,0.0,0.0,0.0,0.0,0.0,0.0,0.0,0.0,0.0,0.0,0.0,0.0,0.0,0.0,0.0,0.0,0.0,0.0,0.0,0.0,0.0,0.0,0.0,0.0,0.0,0.0,0.0,0.0,0.0,0.0,0.0,0.0,0.0,0.0,0.0,0.0,0.0,0.0,0.0,0.0,0.0,0.0,0.0,0.0,0.0,0.0,0.0,0.0,0.0,3.6384,4.1938,4.4747,4.4654,4.482,4.4926,4.4885,4.2871,0.0,0.0,0.0,0.0,0.0,0.0,0.0,0.0,0.0,0.0,0.0,0.0,0.0,0.0,0.0,0.0,0.0,0.0,0.0,0.0,0.0,0.0,0.0,0.0,0.0,0.0,0.0,1.8135,0.0,0.0,0.0,0.0,0.0,0.0,0.0,0.0,0.0,0.0,0.0,0.0,0.0,0.0,3.7285,3.8873,4.0461,4.1475,0.0,0.0,4.1276,4.0663,4.0747,3.9419,0.0,0.0,0.0,0.0,0.0,0.0,0.0,0.0,0.0,0.0,0.0,0.0,0.0,0.0,0.0,0.0,0.0,0.0,0.0,0.0,0.0,0.0,0.0,0.0,0.0,0.0,0.0,0.0,0.0,0.0,0.0,0.0,0.0,0.0,0.0,0.0,0.0,0.0,0.0,0.0,0.0,0.0,0.0,0.0,0.0,0.0,0.0,0.0,0.0,0.0,0.0,0.0,0.0,0.0,0.0,3.5909,4.2285,4.5394,4.5005,4.5702,4.6083,4.6059,4.4304,4.1654,0.0,0.0,0.0,0.0,0.0,0.0,0.0,0.0,0.0,0.0,0.0,0.0,0.0,0.0,0.0,0.0,0.0,0.0,0.0,0.0,0.0,0.0,0.0,0.0,0.0,0.0,0.0,0.0,0.0,0.0,0.0,0.0,0.0,0.0,0.0,0.0,0.0,0.0,0.0,0.0,0.0,3.8114,3.9701,4.1238,4.2235,0.0,0.0,4.2198,4.2166,4.2776,4.1658,3.6885,0.0,0.0,0.0,0.0,0.0,0.0,0.0,0.0,0.0,0.0,0.0,0.0,0.0,0.0,0.0,0.0,0.0,0.0,0.0,0.0,0.0,0.0,0.0,0.0,0.0,0.0,0.0,0.0,0.0,0.0,0.0,0.0,0.0,0.0,0.0,0.0,0.0,0.0,0.0,0.0,0.0,0.0,0.0,0.0,0.0,0.0,0.0,0.0,0.0,0.0,0.0,0.0,0.0,3.2007,3.6449,4.2433,4.5415,4.5256,4.5545,4.5701,4.5695,4.4285,4.1992,0.0,0.0,0.0,0.0,0.0,0.0,0.0,0.0,0.0,0.0,0.0,0.0,0.0,0.0,0.0,0.0,0.0,0.0,0.0,0.0,0.0,0.0,0.0,0.0,0.0,0.0,0.0,0.0,3.0197,3.132,3.0772,0.0,0.0,0.0,0.0,0.0,0.0,0.0,0.0,0.0,0.0,3.9644,4.1197,4.3188,0.0,0.0,4.4507,4.4337,4.386,4.3626,4.2027,3.7724,3.5909,0.0,0.0,0.0,0.0,0.0,0.0,0.0,0.0,0.0,0.0,0.0,0.0,0.0,0.0,0.0,0.0,0.0,0.0,0.0,0.0,0.0,0.0,0.0,0.0,0.0,0.0,0.0,0.0,0.0,0.0,0.0,0.0,0.0,0.0,0.0,0.0,0.0,0.0,0.0,0.0,0.0,0.0,0.0,0.0,0.0,0.0,0.0,0.0,0.0,0.0,0.0,0.0,3.2608,3.7199,4.2612,4.5421,4.5421,4.5421,4.5421,4.5386,4.4536,4.2789,0.0,0.0,0.0,0.0,0.0,0.0,0.0,0.0,0.0,0.0,0.0,0.0,0.0,0.0,0.0,0.0,0.0,0.0,0.0,0.0,0.0,0.0,0.0,0.0,0.0,0.0,0.0,0.0,3.1959,3.2137,2.9729,0.0,0.0,0.0,0.0,0.0,0.0,0.0,0.0,0.0,0.0,4.1436,4.2515,4.4309,4.5443,4.5204,4.5172,4.4892,4.4099,4.3516,4.2001,3.8733,0.0,0.0,0.0,0.0,0.0,0.0,0.0,0.0,0.0,0.0,0.0,0.0,0.0,0.0,0.0,0.0,0.0,0.0,0.0,0.0,0.0,0.0,0.0,0.0,0.0,0.0,0.0,0.0,0.0,0.0,1.4245,0.0,0.0,0.0,0.0,0.0,0.0,0.0,0.0,0.0,0.0,0.0,0.0,0.0,0.0,0.0,0.0,0.0,0.0,0.0,0.0,0.0,0.0,3.3365,3.7928,4.2865,4.5421,4.5421,4.5421,4.5421,4.5397,4.5376,4.4345,4.2205,0.0,0.0,0.0,0.0,0.0,0.0,0.0,0.0,0.0,0.0,0.0,0.0,0.0,0.0,0.0,0.0,0.0,0.0,0.0,0.0,0.0,0.0,0.0,0.0,0.0,0.0,2.8138,3.0035,3.0509,0.0,0.0,0.0,0.0,0.0,0.0,0.0,0.0,0.0,0.0,4.0895,4.3437,4.3488,4.4213,4.4539,4.3795,4.3635,4.3341,4.2598,4.2396,4.1772,0.0,0.0,0.0,0.0,0.0,0.0,0.0,0.0,0.0,0.0,0.0,0.0,0.0,0.0,0.0,0.0,0.0,0.0,0.0,0.0,0.0,0.0,0.0,0.0,0.0,0.0,0.0,2.316,2.2199,0.0,0.0,0.0,0.0,0.0,0.0,0.0,0.0,0.0,0.0,0.0,3.3156,3.3947,0.0,0.0,0.0,0.0,0.0,0.0,0.0,0.0,0.0,0.0,0.0,0.0,3.3854,3.8,4.2882,4.5421,4.5421,4.5421,4.5421,4.5421,4.5421,4.417,4.1562,0.0,0.0,0.0,0.0,0.0,0.0,0.0,0.0,0.0,0.0,0.0,0.0,0.0,0.0,0.0,0.0,0.0,0.0,0.0,0.0,0.0,0.0,0.0,0.0,0.0,3.0705,0.0,0.0,0.0,0.0,0.0,0.0,0.0,0.0,0.0,0.0,0.0,3.7977,4.0365,4.2321,4.3892,4.4952,4.531,4.5585,0.0,0.0,0.0,0.0,0.0,0.0,0.0,0.0,0.0,0.0,0.0,0.0,0.0,0.0,3.7012,3.4309,3.428,3.437,3.3337,0.0,0.0,0.0,0.0,0.0,0.0,0.0,0.0,0.0,0.0,0.0,0.0,0.0,0.0,2.7553,0.0,2.5828,0.0,0.0,0.0,0.0,0.0,0.0,0.0,0.0,3.5138,3.6761,3.7653,3.8365,3.8703,0.0,3.7758,3.5132,0.0,0.0,0.0,0.0,0.0,0.0,0.0,0.0,3.5154,3.8777,4.3136,4.5421,4.5421,4.5421,4.5421,4.5421,4.5421,4.4518,4.2644,4.0487,3.7777,0.0,0.0,0.0,0.0,0.0,0.0,0.0,0.0,0.0,0.0,0.0,0.0,0.0,0.0,0.0,0.0,0.0,0.0,0.0,0.0,0.0,0.0,0.0,3.2133,0.0,0.0,0.0,0.0,0.0,0.0,0.0,0.0,0.0,3.356,3.7518,4.1056,4.2883,4.4301,4.5356,4.5828,0.0,0.0,0.0,0.0,0.0,0.0,0.0,4.425,4.4007,4.3465,4.2946,4.2544,4.1857,4.1507,4.2008,0.0,0.0,3.868,3.8673,3.8926,3.8188,3.7899,3.7938,3.8424,3.8359,3.8367,0.0,0.0,0.0,0.0,0.0,0.0,0.0,0.0,3.3306,3.238,0.0,3.0257,0.0,0.0,0.0,0.0,0.0,3.2783,0.0,0.0,4.1134,4.2523,4.1372,4.1997,4.2374,4.2304,4.1072,4.0426,4.0064,3.5208,0.0,0.0,0.0,0.0,0.0,0.0,3.7234,4.0346,4.3775,4.5507,4.5507,4.55,4.55,4.5507,4.5507,4.5466,4.5359,4.3418,4.1601,3.9967,3.5218,0.0,0.0,0.0,0.0,0.0,0.0,0.0,0.0,0.0,0.0,0.0,0.0,0.0,0.0,0.0,0.0,0.0,0.0,0.0,0.0,3.1347,0.0,0.0,0.0,0.0,0.0,0.0,0.0,0.0,0.0,0.0,3.7885,4.1134,4.3883,4.4695,0.0,0.0,0.0,0.0,4.6819,4.6136,4.5975,4.5736,4.5035,4.5512,4.6218,4.6979,0.0,0.0,4.5425,4.4153,4.3307,4.3214,4.4523,4.4773,4.2306,4.2163,4.2179,4.1465,4.0991,4.0903,4.1484,4.1328,4.1161,3.8328,0.0,0.0,0.0,0.0,3.5612,3.6764,3.8493,3.8712,3.8189,3.7083,3.6494,0.0,0.0,0.0,0.0,0.0,0.0,3.8047,4.0042,4.235,4.3398,4.3454,4.4161,4.4511,4.45,4.4114,4.3932,4.3897,4.2961,3.9421,3.351,0.0,0.0,0.0,0.0,4.0219,4.3283,4.5794,4.7041,4.7041,4.7041,4.7041,4.7041,4.7024,4.68,4.6272,4.565,4.4186,4.1701,3.9142,0.0,0.0,0.0,0.0,0.0,0.0,0.0,0.0,0.0,0.0,0.0,0.0,0.0,0.0,0.0,0.0,0.0,0.0,0.0,3.3774,3.5252,3.5143,0.0,0.0,0.0,0.0,0.0,0.0,0.0,0.0,0.0,4.3301,4.4395,4.5613,0.0,0.0,4.6441,4.6519,4.6819,4.7146,4.7481,4.7598,0.0,4.8146,4.7865,4.7755,4.8174,4.8446,4.8435,4.7949,4.7316,4.687,4.6832,4.7228,4.729,4.6654,4.595,4.5506,4.5278,4.5123,4.4978,4.4888,4.4729,4.4542,4.3245,4.115,3.8958,3.856,3.9334,3.9334,4.0314,4.1887,4.1875,4.145,4.0782,4.062,3.9342,3.7236,3.6063,0.0,0.0,0.0,4.0804,4.2905,4.3818,4.4437,4.4792,4.5496,4.5869,4.5886,4.6186,4.631,4.6317,4.6496,4.4405,4.0103,0.0,0.0,3.9001,4.0764,4.2763,4.496,4.6781,4.7703,4.7703,4.7703,4.7703,4.7703,4.7703,4.7496,4.7048,4.7031,4.6091,4.4088,4.2236,3.9434,0.0,0.0,0.0,0.0,0.0,0.0,0.0,0.0,0.0,0.0,0.0,2.6328,2.5952,0.0,0.0,0.0,3.3154,3.5358,3.8516,3.8423,0.0,0.0,0.0,0.0,0.0,0.0,0.0,3.8936,4.1963,4.4485,4.5928,4.6591,4.7133,4.7735,4.7538,4.7321,4.7243,0.0,4.8288,4.8559,4.8627,4.8851,4.9357,4.9279,4.9195,4.9341,4.9353,4.9199,4.881,4.8405,4.8145,4.8125,4.8125,4.8101,4.8119,4.7613,4.736,4.7731,4.7637,4.7403,4.7101,4.6928,4.6693,4.7173,4.6819,4.2873,4.1702,4.2417,4.2446,4.2866,4.3534,4.3569,4.3138,4.2539,4.3235,4.2432,4.0493,3.988,0.0,4.2638,4.2632,4.3688,4.5587,4.5587,4.5593,4.5628,4.6348,4.6686,4.672,4.7376,4.7703,4.7676,4.7065,4.6779,4.6738,4.5496,4.4141,4.2882,4.4007,4.5087,4.595,4.723,4.7893,4.7882,4.7876,4.7876,4.79,4.7869,4.7858,4.7789,4.7789,4.7445,4.6676,4.469,4.2529,4.0169,0.0,0.0,0.0,0.0,0.0,0.0,0.0,0.0,0.0,0.0,0.0,0.0,0.0,0.0,0.0,3.8729,0.0,4.2747,4.0858,0.0,0.0,0.0,3.6938,3.7495,3.9466,4.1191,4.2229,0.0,0.0,4.6677,4.7857,4.8408,4.7755,4.8992,4.9477,4.8158,4.9096,4.9838,4.9329,4.9352,4.9423,4.9722,5.0137,5.0493,5.0497,5.0019,4.9396,4.8759,4.8294,4.7952,4.8014,4.79,4.7941,4.7917,4.7979,4.8164,4.9055,4.8703,4.8294,4.8179,4.7863,4.7596,4.6952,4.6983,4.6026,4.5871,4.6199,4.6294,4.6451,4.6641,4.6624,4.652,4.6365,4.6555,4.6337,4.5847,4.5677,4.5894,4.6392,4.6392,4.6655,4.7127,4.7151,4.7162,4.7162,4.7358,4.7445,4.7462,4.7617,4.7703,4.772,4.8082,4.8272,4.8282,4.8524,4.7907,4.6501,4.6751,4.7589,4.8935,4.9276,4.9452,4.9452,4.9452,4.9452,4.9459,4.9452,4.9169,4.8558,4.8534,4.8203,4.7451,4.6403,4.479,4.2479,3.7793,0.0,0.0,0.0,0.0,0.0,0.0,0.0,0.0,0.0,3.1088,3.0704,0.0,3.6679,0.0,4.0751,4.2913,4.3033,4.1971,0.0,0.0,3.9751,3.9798,4.0477,4.2672,4.4455,4.5257,4.6867,4.8057,4.8382,4.8783,4.9075,4.9108,4.9448,4.9422,4.8743,4.9469,5.0113,5.0073,5.0561,5.1231,5.1648,5.1652,5.1517,5.1545,5.0641,4.9838,4.9651,4.9534,4.9444,4.9469,4.9452,4.9444,4.9444,4.9452,4.9506,4.967,4.8771,4.7868,4.7851,4.7786,4.772,4.8803,4.8885,4.9044,4.9172,4.9225,4.8152,4.7703,4.7703,4.7703,4.7703,4.7703,4.7703,4.7703,4.7703,4.7703,4.7703,4.7703,4.7703,4.7703,4.7703,4.7703,4.7703,4.772,4.8048,4.8179,4.822,4.8893,4.922,4.9255,4.9962,5.0316,5.0324,5.0755,5.0548,4.9737,4.9375,4.9806,5.0952,5.0979,5.0986,5.0962,5.0659,5.0331,5.0011,4.9324,4.8617,4.7858,4.7489,4.6945,4.6217,4.5786,4.4857,4.3241,3.9502,3.5847,0.0,0.0,0.0,0.0,0.0,0.0,0.0,0.0,0.0,0.0,0.0,3.9393,3.9569,4.2324,4.3924,4.3493,4.3354,4.317,4.2899,4.315,4.3598,4.4239,4.571,4.6762,4.6966,4.8264,4.9094,4.8953,4.9783,5.0363,5.03,5.0744,5.0798,5.0113,5.0756,5.1372,5.1165,5.1529,5.1988,5.2431,5.2235,5.2048,5.1974,5.1449,5.0986,5.0986,5.0979,5.0979,5.0962,5.0979,5.0986,5.0979,5.0979,5.0962,5.0865,5.0324,4.9531,4.8865,4.8703,4.872,5.1218,5.1209,5.1427,5.1523,5.1351,4.913,4.8223,4.8251,4.8162,4.8082,4.7989,4.8003,4.7989,4.7996,4.7979,4.8048,4.8134,4.8134,4.8186,4.8272,4.8272,4.8282,4.83,4.8944,4.923,4.9299,5.0599,5.1237,5.1255,5.1892,5.2178,5.2178,5.2178,5.2237,5.2323,5.1688,5.1636,5.2178,5.2178,5.2151,5.2057,5.1427,5.0693,4.9848,4.8548,4.7445,4.6617,4.5927,4.5221,4.4488,4.4339,4.4097,4.3597,4.0727,3.8231,0.0,3.3581,0.0,0.0,0.0,0.0,0.0,0.0,0.0,0.0,4.0606,4.1619,4.1995,4.3683,4.4652,4.4416,4.4982,4.5536,4.5996,4.6623,4.7212,4.7776,4.8191,4.8368,4.8148,4.9113,4.961,4.9452,5.0843,5.1736,5.1398,5.2168,5.2467,5.1716,5.2151,5.2542,5.2263,5.2299,5.2423,5.2437,5.2411,5.2388,5.2381,5.2201,5.2195,5.2109,5.2126,5.2144,5.2144,5.2082,5.2109,5.2178,5.2144,5.2144,5.2075,5.1988,5.1582,5.0607,5.0279,5.0296,5.1218,5.1209,5.1427,5.1523,5.1462,5.1087,5.1024,5.1159,5.0676,5.0117,4.9572,4.9572,4.9572,4.9555,4.9572,4.9883,5.0444,5.0462,5.0772,5.1358,5.1351,5.1358,5.1351,5.1496,5.1557,5.1582,5.1841,5.1996,5.1979,5.2141,5.2178,5.2178,5.2178,5.2513,5.3117,0.0,0.0,0.0,5.2178,5.191,5.1348,5.1176,5.0444,4.9092,4.8748,0.0,4.6693,4.6458,4.6007,4.5238,4.4619,0.0,0.0,0.0,0.0,0.0,0.0,0.0,0.0,0.0,0.0,0.0,4.2352,4.23,4.0316,4.1534,4.3103,4.4659,4.5288,4.5961,4.6893,4.708,4.724,4.7344,4.7486,4.7827,4.8496,4.8681,4.9137,5.0353,5.0675,5.1008,5.1454,5.1936,5.2114,5.2061,5.2758,5.3195,5.2983,5.2652,5.2348,5.2245,5.2789,5.3141,5.3159,5.3159,5.3159,5.3107,5.259,5.2281,5.2281,5.2264,5.2212,5.2247,5.2178,5.223,5.223,5.2178,5.2281,5.2195,5.2212,5.2126,5.1833,5.1772,5.1789,5.2325,0.0,5.2449,5.249,0.0,5.2644,5.2748,5.2783,5.1803,5.1239,5.0995,5.1003,5.104,5.1099,5.109,5.1306,5.1634,5.1651,5.1858,5.2178,5.2178,5.2178,5.2178,5.2178,5.2178,5.2212,5.2599,5.2789,5.2806,5.3066,5.3191,5.3191,5.3183,5.3405,5.3776,5.3688,5.3459,5.3081,5.316,5.2963,5.254,5.213,5.1392,5.0269,4.9595,0.0,0.0,0.0,0.0,0.0,0.0,0.0,0.0,4.4531,0.0,4.3751,4.2704,4.2262,4.2632,4.3029,4.3757,4.4871,4.5684,4.5398,4.3587,4.4513,4.5576,4.6531,4.6692,4.7014,4.7614,4.8024,4.8238,4.8265,4.8927,4.9541,4.9893,5.0247,5.0782,5.1444,5.1659,5.1799,5.2168,5.2572,5.2772,5.2823,5.3452,5.3917,5.3925,5.3607,5.3341,5.3341,5.3616,5.3935,5.3942,5.396,5.3942,5.3891,5.3607,5.3383,5.3341,5.3341,5.3348,5.3341,5.3341,5.3341,5.3341,5.3323,5.3323,5.3323,5.3341,5.3341,5.3289,5.2747,5.2195,5.3687,5.3687,5.3551,5.3509,5.3517,5.3609,5.3667,5.3582,0.0,0.0,0.0,5.2006,5.2083,5.2195,5.2178,5.2249,5.2372,5.2394,5.2463,5.2553,5.2576,5.2617,5.2599,5.2607,5.2601,5.2597,5.3216,5.3527,5.3521,5.3962,5.4174,5.4175,5.4174,5.4166,5.4135,5.4159,5.4086,5.3915,5.4078,5.4066,5.3832,5.3183,5.2439,5.1625,5.0506,4.9492,4.8655,4.8129,4.7527,4.6841,4.6789,4.6628,4.6248,4.6069,4.5858,4.5547,4.5374,4.5568,4.6162,4.6214,4.6748,4.8031,4.81,4.7762,4.6955,4.7403,4.7772,4.7876,4.79,4.7989,4.8272,4.8841,4.9272,4.9403,5.0523,5.1289,5.1324,5.1806,5.2161,5.2358,5.2417,5.2479,5.2668,5.321,5.3598,5.3659,5.4073,5.4504,5.4504,5.4417,5.4348,5.4366,5.4366,5.4469,5.4486,5.4452,5.4504,5.4435,5.4452,5.4504,5.4504,5.4504,5.4504,5.4366,5.4504,5.4452,5.4469,5.4383,5.4504,5.4504,5.4504,5.4504,5.44,5.3521,5.272,5.4456,5.4406,5.3746,5.3509,5.3501,5.3517,5.3534,5.3475,5.2888,5.2393,5.2006,5.2006,5.2066,5.2178,5.2178,5.2471,5.299,5.3149,5.347,5.3929,5.4088,5.4176,5.4176,5.4176,5.4089,5.3921,5.4041,5.4029,5.3949,5.4107,5.4126,5.4045,5.4143,5.4045,5.3799,5.3948,5.3875,5.3593,5.3875,5.3761,5.3254,5.3117,5.2434,5.1249,5.0861,5.0052,4.8816,4.862,4.819,4.7576,4.7548,4.8082,4.9245,4.8686,4.8851,4.9986,4.9545,4.9245,4.9348,4.9348,4.9444,4.9641,4.9683,4.9079,4.7724,4.7648,4.7955,4.8558,4.8713,4.922,5.041,5.0676,5.0944,5.1548,5.1868,5.204,5.2048,5.2203,5.2548,5.3141,5.3228,5.3477,5.3944,5.4211,5.4279,5.4331,5.4408,5.4504,5.4504,5.4504,5.4504,5.4504,5.4504,5.4504,5.4504,5.4504,5.4504,5.4504,5.4504,5.4504,5.4504,5.4504,5.4504,5.4504,5.4504,5.4504,5.4504,5.4504,5.4504,5.4504,5.4504,5.4504,5.4504,5.4218,5.409,5.5209,5.515,5.4845,5.4684,5.4676,5.4262,5.4093,5.4025,5.3448,5.3085,5.2932,5.2914,5.301,5.3178,5.3257,5.3436,5.3707,5.3916,5.4056,5.4206,5.4295,5.4303,5.4231,5.4215,5.4175,5.4094,5.4086,5.4062,5.4005,5.3947,5.389,5.3849,5.3907,5.3915,5.3866,5.3849,5.3776,5.3618,5.3759,5.3654,5.3322,5.3322,5.3023,5.2406,5.249,5.2213,5.1497,5.1663,5.1443,5.0671,5.0735,5.0917,5.1176,5.0833,5.0954,5.1634,5.1375,5.1203,5.1203,5.121,5.1203,5.121,5.1186,5.091,5.0196,4.9772,4.9858,5.054,5.0644,5.091,5.1634,5.1695,5.1841,5.2161,5.2565,5.2841,5.2892,5.3245,5.3599,5.3935,5.4004,5.4124,5.4452,5.4504,5.4504,5.4504,5.4504,5.4504,5.4504,5.4504,5.4504,5.4504,5.4504,5.4504,5.4504,5.4504,5.4504,5.4504,5.4504,5.4504,5.4504,5.4504,5.4504,5.4504,5.4504,5.4504,5.4504,5.4504,5.4504,5.4504,5.4504,5.4504,5.4504,5.4504,5.4504,5.5953,5.5961,5.5767,5.5699,5.5657,5.5091,5.4837,5.4786,5.4245,5.4059,5.4109,5.3837,5.3808,5.4022,5.4093,5.4135,5.4127,5.4287,5.4271,5.4118,5.4126,5.4094,5.4005,5.3988,5.4058,5.4153,5.4187,5.4256,5.4352,5.4269,5.4219,5.4227,5.4177,5.4227,5.4377,5.4227,5.4152,5.4152,5.4152,5.3957,5.3559,5.3543,5.3559,5.3626,5.3817,5.389,5.3849,5.4183,5.4076,5.3494,5.3562,5.3348,5.2764,5.2565,5.2479,5.2461,5.2306,5.2178,5.2178,5.2178,5.2178,5.2178,5.2178,5.2289,5.241,5.1937,5.1762,5.2126,5.2092,5.222,5.2427,5.2486,5.253,5.272,5.3254,5.3632,5.3693,5.4151,5.4504,5.4504,5.4504,5.4486,5.4504,5.4504,5.4504,5.4504,5.4504,5.4504,5.4504,5.4504,5.4504,5.4504,5.4504,5.4504,5.4504,5.4504,5.4504,5.4504,5.4504,5.4504,5.4504,5.4504,5.4504,5.4504,5.4504,5.4504,5.4504,5.4504,5.4504,5.4504,5.4504,5.4504,5.4504,5.4504,5.4504,5.6714,5.6587,5.6029,5.5699,5.575,5.564,5.5606,5.5589,5.5496,5.5505,5.532,5.4237,5.3842,5.3972,5.4056,5.3991,5.3843,5.3973,5.3999,5.3851,5.3957,5.4022,5.4058,5.4032,5.4248,5.4686,5.4728,5.4984,5.5423,5.5629,5.574,5.5757,5.5609,5.5472,5.5506,5.5489,5.5488,5.5505,5.5497,5.4914,5.3769,5.3692,5.3775,5.3965,5.38,5.3865,5.4094,5.4086,5.4158,5.4345,5.435,5.4348,5.4211,5.3659,5.3279,5.327,5.2634,5.2178,5.2212,5.2178,5.2264,5.2178,5.2264,5.259,5.3201,5.3218,5.2875,5.2479,5.2247,5.2599,5.3193,5.3287,5.3504,5.4004,5.4245,5.44,5.4366,5.4452,5.4504,5.4504,5.4504,5.4504,5.4504,5.4504,5.4504,5.4504,5.4504,5.4504,5.4504,5.4504,5.4504,5.4504,5.4504,5.4504,5.4504,5.4504,5.4504,5.4504,5.4504,5.4504,5.4504,5.4504,5.4504,5.4504,5.4504,5.4504,5.4504,5.4504,5.4504,5.4504,5.4504,5.4504,5.4504,5.4504,5.4504,5.7451,5.7434,5.7111,5.7002,5.6951,5.6562,5.635,5.63,5.5859,5.5699,5.564,5.5126,5.4932,5.5026,5.5136,5.5136,5.5069,5.5221,5.5212,5.5086,5.5153,5.5136,5.5026,5.4992,5.5128,5.5313,5.533,5.5456,5.5674,5.5778,5.5821,5.5813,5.5734,5.5699,5.5699,5.5699,5.5699,5.5699,5.5699,5.5429,5.4948,5.4864,5.4703,5.4398,5.4346,5.4142,5.3851,5.398,5.4143,5.4199,5.4271,5.4385,5.4504,5.4091,5.3928,5.403,5.3745,5.3555,5.3555,5.3573,5.3573,5.3573,5.3565,5.3703,5.4004,5.4063,5.3875,5.3634,5.3565,5.3728,5.3986,5.4038,5.4168,5.4452,5.4504,5.4504,5.4504,5.4504,5.4504,5.4504,5.4504,5.4521,5.4504,5.4504,5.4504,5.4504,5.4521,5.4573,5.4521,5.4504,5.4504,5.4504,5.4504,5.4504,5.4504,5.4504,5.4504,5.4504,5.4504,5.4504,5.4504,5.4504,5.4504,5.4504,5.4504,5.4504,5.4504,5.4504,5.4504,5.4504,5.4504,5.4504,5.4504,5.4504,5.4504,5.8077,5.7908,5.79,5.79,5.7849,5.7332,5.7103,5.7027,5.6519,5.6316,5.63,5.63,5.6291,5.6267,5.606,5.59,5.5926,5.603,5.6021,5.5917,5.5908,5.5839,5.5708,5.5699,5.58,5.5995,5.5995,5.6114,5.6283,5.63,5.63,5.63,5.63,5.63,5.6291,5.63,5.6291,5.6308,5.63,5.6316,5.63,5.63,5.5852,5.5023,5.4974,5.4669,5.3907,5.4189,5.4266,5.4079,5.4118,5.4231,5.4408,5.4279,5.4271,5.4383,5.4375,5.4385,5.4424,5.4424,5.4431,5.4496,5.4504,5.4504,5.4504,5.4504,5.4504,5.4452,5.4504,5.4452,5.4504,5.4504,5.4504,5.4504,5.4504,5.4504,5.4504,5.4504,5.4504,5.4504,5.4711,5.4917,5.509,5.5193,5.5245,5.5245,5.5193,5.5124,5.5124,5.5176,5.5193,5.5142,5.5159,5.4952,5.4624,5.4504,5.4504,5.4504,5.4504,5.4504,5.4504,5.4504,5.4504,5.4504,5.4504,5.4504,5.4504,5.4504,5.4504,5.4504,5.4504,5.4504,5.4504,5.4504,5.4504,5.8541,5.7967,5.7924,5.795,5.79,5.784,5.7823,5.7772,5.7738,5.7755,5.7688,5.7714,5.7772,5.762,5.6428,5.5767,5.5767,5.587,5.5896,5.5869,5.5827,5.5741,5.5699,5.5699,5.6097,5.6705,5.6765,5.707,5.7654,5.7738,5.7806,5.7747,5.7671,5.7747,5.7671,5.7637,5.7764,5.7637,5.7637,5.7721,5.7721,5.7738,5.7062,5.586,5.5657,5.5372,5.4822,5.4763,5.4624,5.4226,5.4181,5.4146,5.4216,5.4215,5.419,5.4215,5.411,5.4094,5.4223,5.4255,5.4311,5.4472,5.4504,5.4504,5.4504,5.4573,5.4607,5.4538,5.4659,5.4676,5.4643,5.4668,5.4607,5.459,5.4573,5.4624,5.4573,5.4753,5.4538,5.4711,5.5211,5.5762,5.6512,5.6702,5.6538,5.6521,5.6607,5.6564,5.646,5.6564,5.6529,5.6512,5.6435,5.6184,5.4908,5.4866,5.4787,5.4822,5.5012,5.4642,5.4538,5.4504,5.4538,5.4521,5.4504,5.4504,5.4504,5.4504,5.4504,5.4504,5.4504,5.4504,5.4504,5.4504,5.4504,5.9556,5.9261,5.8786,5.86,5.8549,5.8111,5.79,5.79,5.79,5.79,5.79,5.79,5.79,5.7883,5.7349,5.7112,5.712,5.712,5.7103,5.7103,5.7103,5.7103,5.712,5.712,5.7222,5.7451,5.7485,5.7628,5.7849,5.79,5.79,5.79,5.79,5.79,5.79,5.79,5.79,5.79,5.79,5.79,5.79,5.79,5.762,5.7137,5.6638,5.6098,5.5389,5.5501,5.5494,5.5366,5.5382,5.5227,5.479,5.4335,5.4118,5.4174,5.4159,5.4207,5.4369,5.44,5.4424,5.4488,5.4504,5.4547,5.459,5.4909,5.5203,5.5272,5.5711,5.5894,5.5727,5.5448,5.5203,5.5272,5.5659,5.59,5.5969,5.5977,5.5977,5.6012,5.6236,5.6512,5.6762,5.6797,5.6797,5.6797,5.6797,5.6849,5.6822,5.6805,5.6883,5.6814,5.6788,5.6633,5.621,5.6012,5.5995,5.5995,5.5995,5.5659,5.5469,5.5262,5.5262,5.49,5.4762,5.478,5.4866,5.4848,5.478,5.4728,5.4711,5.4839,5.4504,5.4814,5.4745,6.0097,6.0013,5.9564,5.9351,5.9276,5.8567,5.8254,5.8203,5.8009,5.79,5.79,5.79,5.79,5.79,5.79,5.79,5.79,5.7883,5.79,5.79,5.79,5.79,5.79,5.79,5.79,5.7883,5.79,5.79,5.79,5.79,5.79,5.79,5.79,5.79,5.79,5.79,5.79,5.79,5.79,5.79,5.79,5.79,5.79,5.7832,5.7408,5.6816,5.6097,5.6186,5.6172,5.6037,5.6021,5.5843,5.5383,5.4872,5.464,5.4796,5.4748,5.483,5.5075,5.5034,5.5044,5.5141,5.5075,5.5033,5.5085,5.5515,5.5738,5.591,5.6228,5.653,5.6429,5.6239,5.6065,5.5935,5.6404,5.6763,5.6731,5.6747,5.6891,5.7047,5.7133,5.7253,5.7452,5.7529,5.7564,5.7504,5.7512,5.7512,5.7512,5.7512,5.7504,5.7529,5.759,5.7625,5.7487,5.7469,5.6874,5.6771,5.671,5.6477,5.628,5.6073,5.5814,5.5383,5.5211,5.5228,5.5245,5.5211,5.5193,5.5176,5.5443,5.5684,5.5486,5.5366,5.5383,6.0165,6.0233,6.0114,6.0114,6.0003,5.931,5.9022,5.8904,5.8321,5.8111,5.806,5.7958,5.7992,5.7891,5.79,5.79,5.79,5.79,5.79,5.79,5.79,5.79,5.79,5.79,5.79,5.79,5.79,5.79,5.79,5.79,5.79,5.79,5.79,5.79,5.79,5.79,5.79,5.79,5.79,5.79,5.79,5.79,5.79,5.79,5.7832,5.7502,5.6833,5.6825,5.6634,5.6189,5.5983,5.588,5.5994,5.5712,5.5781,5.592,5.5816,5.5919,5.6268,5.6056,5.5979,5.6164,5.6209,5.6021,5.5987,5.6158,5.6252,5.6278,5.6389,5.6389,5.6517,5.6902,5.6979,5.6423,5.6727,5.6964,5.6795,5.6767,5.709,5.7728,5.79,5.8228,5.8728,5.8763,5.8676,5.8694,5.8728,5.8711,5.8633,5.8625,5.8857,5.8857,5.8625,5.8435,5.8702,5.8857,5.8004,5.734,5.7236,5.7081,5.6952,5.6762,5.6607,5.6253,5.609,5.6107,5.6073,5.6073,5.6193,5.6245,5.646,5.6426,5.6262,5.6124,5.6331,6.168,6.1612,6.1129,6.0943,6.0825,6.0097,5.975,5.9742,5.9488,5.9133,5.8718,5.8667,5.8372,5.7975,5.79,5.79,5.79,5.79,5.79,5.79,5.79,5.79,5.79,5.79,5.79,5.79,5.79,5.79,5.79,5.79,5.79,5.79,5.79,5.79,5.79,5.79,5.79,5.79,5.79,5.79,5.79,5.79,5.79,5.79,5.79,5.7755,5.7569,5.7552,5.7487,5.7296,5.7392,5.7225,5.6741,5.6084,5.5838,5.6004,5.5969,5.6004,5.6227,5.6235,5.6227,5.6286,5.6261,5.621,5.6286,5.6688,5.6935,5.7012,5.7422,5.7729,5.7675,5.789,5.7703,5.7055,5.7681,5.8075,5.7964,5.8135,5.8383,5.859,5.8659,5.8771,5.8909,5.8995,5.8995,5.8995,5.8995,5.8995,5.8995,5.8995,5.8995,5.8995,5.8995,5.8995,5.8995,5.8995,5.8573,5.809,5.7969,5.778,5.7625,5.7521,5.7349,5.7219,5.7056,5.6987,5.6952,5.6969,5.709,5.6969,5.6891,5.684,5.6797,5.6935,5.7159,6.2407,6.234,6.189,6.1704,6.162,6.0875,6.0554,6.0486,6.0216,5.9827,5.9479,5.9411,5.9184,5.872,5.844,5.8304,5.8271,5.8043,5.79,5.79,5.79,5.79,5.79,5.79,5.79,5.79,5.79,5.79,5.79,5.79,5.79,5.79,5.79,5.79,5.79,5.79,5.79,5.79,5.79,5.79,5.79,5.79,5.79,5.79,5.79,5.79,5.79,5.79,5.79,5.7918,5.8035,5.7825,5.7375,5.6845,5.6608,5.6775,5.6775,5.6819,5.6986,5.6976,5.6873,5.6917,5.6882,5.6855,5.6923,5.7332,5.7502,5.763,5.7936,5.8224,5.8117,5.8171,5.8021,5.7596,5.8158,5.8675,5.8771,5.8875,5.8918,5.8935,5.8961,5.8995,5.8995,5.8995,5.8995,5.8995,5.8995,5.8995,5.8995,5.8995,5.8995,5.8995,5.8995,5.8995,5.8995,5.8995,5.8995,5.8857,5.8771,5.8547,5.8357,5.8314,5.8211,5.8107,5.7969,5.8021,5.7987,5.79,5.7918,5.765,5.7495,5.7745,5.7918,5.7849,5.7987,6.2407,6.2407,6.2407,6.2357,6.2272,6.1629,6.1349,6.1238,6.0672,6.03,6.0189,6.0182,6.008,5.9894,5.9302,5.9082,5.8972,5.8517,5.8246,5.8212,5.8187,5.8144,5.7934,5.79,5.79,5.79,5.79,5.79,5.79,5.79,5.79,5.79,5.79,5.79,5.79,5.79,5.79,5.79,5.79,5.79,5.79,5.79,5.79,5.79,5.79,5.79,5.79,5.79,5.79,5.79,5.7909,5.7893,5.7875,5.79,5.782,5.7939,5.7957,5.7963,5.8218,5.7897,5.7796,5.7888,5.7798,5.7883,5.7768,5.7752,5.782,5.7828,5.792,5.7944,5.7918,5.7936,5.7911,5.7937,5.8234,5.8543,5.8744,5.8788,5.8866,5.8961,5.8987,5.8995,5.8995,5.8995,5.8995,5.8995,5.8995,5.8995,5.8995,5.8995,5.8995,5.8995,5.8995,5.8995,5.8995,5.8995,5.8995,5.8995,5.8995,5.8909,5.8806,5.8788,5.8788,5.8728,5.8694,5.8806,5.8823,5.859,5.8556,5.8469,5.8573,5.8926,5.8857,5.8625,5.8521,6.2407,6.2407,6.2407,6.2407,6.2374,6.2161,6.2093,6.2103,6.1883,6.14,6.1078,6.0984,6.0672,6.0131,5.9936,5.98,5.9742,5.9573,5.9522,5.9505,5.9532,5.8855,5.8086,5.79,5.79,5.79,5.79,5.79,5.79,5.79,5.79,5.79,5.79,5.79,5.79,5.79,5.79,5.79,5.79,5.79,5.79,5.79,5.79,5.79,5.79,5.79,5.79,5.79,5.79,5.79,5.79,5.79,5.79,5.79,5.7927,5.7954,5.7945,5.7927,5.8009,5.7963,5.7953,5.7954,5.7936,5.79,5.79,5.79,5.79,5.79,5.79,5.79,5.79,5.79,5.79,5.7927,5.8143,5.8349,5.8543,5.8718,5.8823,5.8866,5.8935,5.8978,5.8978,5.8995,5.8995,5.8995,5.8995,5.8995,5.8995,5.8995,5.8995,5.8995,5.8995,5.8995,5.8995,5.8995,5.8995,5.8995,5.8995,5.8978,5.8926,5.8926,5.8926,5.8926,5.8866,5.8926,5.8944,5.8857,5.8978,5.8995,5.8995,5.8995,5.8995,5.884,5.8832,6.2407,6.2407,6.2407,6.2407,6.2407,6.2407,6.2407,6.2407,6.2407,6.2178,6.1806,6.1755,6.1511,6.1061,6.0757,6.0605,6.0571,6.025,6.008,6.008,6.0047,5.9421,5.8533,5.8111,5.79,5.79,5.79,5.79,5.79,5.79,5.79,5.79,5.79,5.79,5.79,5.79,5.79,5.79,5.79,5.79,5.79,5.79,5.79,5.79,5.79,5.79,5.79,5.79,5.79,5.79,5.79,5.79,5.79,5.79,5.79,5.79,5.79,5.79,5.79,5.79,5.79,5.79,5.79,5.79,5.79,5.79,5.79,5.79,5.79,5.79,5.79,5.79,5.79,5.7909,5.8017,5.8161,5.8349,5.8464,5.8569,5.8666,5.8788,5.8918,5.8918,5.897,5.8987,5.8995,5.8995,5.8995,5.8995,5.8995,5.8995,5.8995,5.8995,5.8995,5.8995,5.8995,5.8995,5.8995,5.8995,5.8995,5.8995,5.8995,5.8995,5.8995,5.8995,5.8995,5.8995,5.8995,5.8995,5.8995,5.8995,5.8995,5.8995,5.8995,5.8995,6.2407,6.2407,6.2407,6.2407,6.2407,6.2407,6.2407,6.2407,6.2407,6.2391,6.234,6.2391,6.2255,6.2357,6.1629,6.14,6.1383,6.0842,6.0554,6.0486,6.0368,5.9928,5.9404,5.8686,5.8424,5.8314,5.812,5.806,5.8077,5.8009,5.79,5.79,5.79,5.79,5.79,5.79,5.79,5.79,5.79,5.79,5.79,5.79,5.79,5.79,5.79,5.79,5.79,5.79,5.79,5.79,5.79,5.79,5.79,5.79,5.79,5.79,5.79,5.79,5.79,5.79,5.79,5.79,5.79,5.79,5.79,5.79,5.79,5.79,5.79,5.79,5.79,5.79,5.79,5.79,5.7909,5.7991,5.8116,5.8179,5.8269,5.8438,5.8657,5.8753,5.8797,5.8866,5.8961,5.8927,5.8961,5.8995,5.8995,5.8995,5.8995,5.8995,5.8995,5.8995,5.8995,5.8995,5.8995,5.8995,5.8995,5.8995,5.8995,5.8995,5.8995,5.8995,5.8995,5.8995,5.8995,5.8995,5.8995,5.8995,5.8995,5.8995,5.8995,5.8995,5.8995,6.2407,6.2407,6.2407,6.2407,6.2407,6.2407,6.2407,6.2407,6.2407,6.2407,6.2407,6.2407,6.2407,6.2374,6.2204,6.2171,6.2103,6.1866,6.1917,6.1832,6.1264,6.1028,6.0622,5.9928,5.9616,5.9387,5.8955,5.8735,5.8626,5.8127,5.79,5.79,5.79,5.79,5.79,5.79,5.79,5.79,5.79,5.79,5.79,5.79,5.79,5.79,5.79,5.79,5.79,5.79,5.79,5.79,5.79,5.79,5.79,5.79,5.79,5.79,5.79,5.79,5.79,5.79,5.79,5.79,5.79,5.79,5.79,5.79,5.79,5.79,5.79,5.79,5.79,5.79,5.79,5.79,5.79,5.7909,5.7972,5.8107,5.8223,5.8277,5.8437,5.8561,5.8552,5.8727,5.8814,5.884,5.8892,5.897,5.897,5.8944,5.8927,5.8884,5.8944,5.8953,5.8944,5.8961,5.8995,5.8995,5.8995,5.8995,5.8995,5.8995,5.8995,5.8995,5.8995,5.8995,5.8995,5.8995,5.8995,5.8995,5.8995,5.8995,5.8995,5.8995,5.8995,6.2407,6.2407,6.2407,6.2407,6.2407,6.2407,6.2407,6.2407,6.2407,6.2407,6.2407,6.2407,6.2407,6.2407,6.2407,6.2407,6.2407,6.2407,6.2391,6.2289,6.1924,6.1627,6.1272,6.0825,6.0385,5.9682,5.9182,5.887,5.8447,5.8135,5.79,5.79,5.79,5.79,5.79,5.79,5.79,5.79,5.79,5.79,5.79,5.79,5.79,5.79,5.79,5.79,5.79,5.79,5.79,5.79,5.79,5.79,5.79,5.79,5.79,5.79,5.79,5.79,5.79,5.79,5.79,5.79,5.79,5.79,5.79,5.79,5.79,5.79,5.79,5.79,5.79,5.79,5.79,5.79,5.79,5.79,5.7909,5.7991,5.8071,5.8107,5.8233,5.8339,5.8419,5.8552,5.8639,5.8657,5.8666,5.8727,5.871,5.8701,5.8719,5.8727,5.8832,5.8884,5.8901,5.8935,5.8995,5.8995,5.8995,5.8995,5.8995,5.8995,5.8995,5.8995,5.8995,5.8995,5.8995,5.8995,5.8995,5.8995,5.8995,5.8995,5.8995,5.8995,5.8995,6.2407,6.2407,6.2407,6.2407,6.2407,6.2407,6.2407,6.2407,6.2407,6.2407,6.2407,6.2407,6.2407,6.2407,6.2407,6.2407,6.2374,6.2188,6.212,6.2076,6.1772,6.139,6.1035,6.0808,6.0274,5.9107,5.8996,5.8667,5.8304,5.7941,5.79,5.79,5.79,5.79,5.79,5.79,5.79,5.79,5.79,5.79,5.79,5.79,5.79,5.79,5.79,5.79,5.79,5.79,5.79,5.79,5.79,5.79,5.79,5.79,5.79,5.79,5.79,5.79,5.79,5.79,5.79,5.79,5.79,5.79,5.79,5.79,5.79,5.79,5.79,5.79,5.79,5.79,5.79,5.79,5.79,5.79,5.79,5.79,5.7918,5.7953,5.8062,5.8143,5.8215,5.8339,5.8401,5.8464,5.8472,5.8481,5.8481,5.8499,5.8543,5.8587,5.8692,5.8727,5.8745,5.8909,5.8961,5.8944,5.8952,5.8987,5.8995,5.8995,5.8995,5.8995,5.8995,5.8995,5.8995,5.8995,5.8995,5.8995,5.8995,5.8995,5.8995,5.8995,5.8995,6.2407,6.2407,6.2407,6.2407,6.2407,6.2407,6.2407,6.2407,6.2407,6.2407,6.2407,6.2407,6.2407,6.2374,6.2391,6.2391,6.211,6.1721,6.1477,6.1366,6.0977,6.0494,6.0368,6.0283,5.9766,5.9225,5.8938,5.8769,5.8549,5.8246,5.7934,5.79,5.79,5.79,5.79,5.79,5.79,5.79,5.79,5.79,5.79,5.79,5.79,5.79,5.79,5.79,5.79,5.79,5.79,5.79,5.79,5.79,5.79,5.79,5.79,5.79,5.79,5.79,5.79,5.79,5.79,5.79,5.79,5.79,5.79,5.79,5.79,5.79,5.79,5.79,5.79,5.79,5.79,5.79,5.79,5.79,5.79,5.79,5.79,5.7909,5.7945,5.7989,5.8071,5.8143,5.8223,5.8286,5.8321,5.834,5.8358,5.8401,5.8455,5.849,5.8534,5.8543,5.8543,5.8788,5.8944,5.8884,5.8901,5.897,5.8978,5.8995,5.8995,5.8995,5.8995,5.8995,5.8995,5.8995,5.8995,5.8995,5.8995,5.8995,5.8995,5.8995,5.8995,6.2407,6.2407,6.2407,6.2407,6.2407,6.2407,6.2407,6.2407,6.2407,6.2407,6.2407,6.2391,6.2171,6.1924,6.1823,6.1646,6.118,6.0892,6.0672,6.0554,6.0283,5.986,5.958,5.953,5.9082,5.8609,5.844,5.8457,5.8406,5.8094,5.79,5.79,5.79,5.79,5.79,5.79,5.79,5.79,5.79,5.79,5.79,5.79,5.79,5.79,5.79,5.79,5.79,5.79,5.79,5.79,5.79,5.79,5.79,5.79,5.79,5.79,5.79,5.79,5.79,5.79,5.79,5.79,5.79,5.79,5.79,5.79,5.79,5.79,5.79,5.79,5.79,5.79,5.79,5.79,5.79,5.79,5.79,5.79,5.79,5.79,5.7918,5.7927,5.7935,5.7998,5.8035,5.8089,5.8143,5.8188,5.8233,5.8242,5.8269,5.8286,5.8313,5.8393,5.8428,5.8631,5.8797,5.8779,5.884,5.8909,5.8961,5.8978,5.8987,5.8995,5.8995,5.897,5.8995,5.8995,5.8995,5.8995,5.8995,5.8995,5.8995,5.8995,5.8995,6.2407,6.2407,6.2407,6.2407,6.2407,6.2407,6.2289,6.2204,6.2154,6.2018,6.1951,6.1866,6.1535,6.118,6.0994,6.0723,6.008,6.0013,5.9877,5.9817,5.959,5.9252,5.8947,5.8727,5.8517,5.8127,5.8009,5.79,5.7975,5.7934,5.79,5.79,5.79,5.79,5.79,5.79,5.79,5.79,5.79,5.79,5.79,5.79,5.79,5.79,5.79,5.79,5.79,5.79,5.79,5.79,5.79,5.79,5.79,5.79,5.79,5.79,5.79,5.79,5.79,5.79,5.79,5.79,5.79,5.79,5.79,5.79,5.79,5.79,5.79,5.79,5.79,5.79,5.79,5.79,5.79,5.79,5.79,5.79,5.79,5.79,5.79,5.79,5.7917,5.7926,5.7963,5.7963,5.8018,5.8009,5.8036,5.8009,5.8027,5.8044,5.8098,5.8233,5.8313,5.8463,5.8561,5.8561,5.8701,5.8858,5.8918,5.8961,5.8961,5.8944,5.8935,5.8918,5.8944,5.8995,5.8995,5.8995,5.8995,5.8995,5.8995,5.8995,5.8995,6.2407,6.2407,6.2391,6.2407,6.2374,6.2323,6.1985,6.1441,6.1434,6.0994,6.0571,6.0436,6.0436,6.025,6.0182,6.0131,5.9877,5.9394,5.9124,5.9056,5.8626,5.8347,5.8094,5.8043,5.8111,5.79,5.79,5.79,5.79,5.79,5.79,5.79,5.79,5.79,5.79,5.79,5.79,5.79,5.79,5.79,5.79,5.79,5.79,5.79,5.79,5.79,5.79,5.79,5.79,5.79,5.79,5.79,5.79,5.79,5.79,5.79,5.79,5.79,5.79,5.79,5.79,5.79,5.79,5.79,5.79,5.79,5.79,5.79,5.79,5.79,5.79,5.79,5.79,5.79,5.79,5.79,5.79,5.79,5.79,5.79,5.79,5.79,5.79,5.79,5.79,5.79,5.79,5.79,5.79,5.79,5.79,5.7927,5.7963,5.8081,5.8143,5.8277,5.8357,5.8366,5.8525,5.8736,5.884,5.8884,5.8884,5.8866,5.8849,5.8832,5.8858,5.8892,5.8961,5.8952,5.8918,5.8935,5.8995,5.8995,5.8995,6.1564,6.2357,6.1941,6.1782,6.1714,6.1315,6.0926,6.0672,6.0622,6.0436,6.0148,6.0097,5.9885,5.9404,5.9082,5.8838,5.8778,5.8558,5.8372,5.8406,5.806,5.79,5.7917,5.79,5.79,5.79,5.79,5.79,5.79,5.79,5.79,5.79,5.79,5.79,5.79,5.79,5.79,5.79,5.79,5.79,5.79,5.79,5.79,5.79,5.79,5.79,5.79,5.79,5.79,5.79,5.79,5.79,5.79,5.79,5.79,5.79,5.79,5.79,5.79,5.79,5.79,5.79,5.79,5.79,5.79,5.79,5.79,5.79,5.79,5.79,5.79,5.79,5.79,5.79,5.79,5.79,5.79,5.79,5.79,5.79,5.79,5.79,5.79,5.79,5.79,5.79,5.79,5.79,5.79,5.79,5.79,5.79,5.7936,5.7981,5.7981,5.8053,5.817,5.8206,5.8269,5.8499,5.871,5.8779,5.8762,5.8736,5.8684,5.8693,5.8736,5.8736,5.8736,5.8771,5.8814,5.8849,5.8909,5.8987,5.8987,6.0086,6.1116,6.0801,6.0667,6.0643,6.0037,5.9513,5.9157,5.9119,5.9021,5.8942,5.8774,5.8464,5.8186,5.7713,5.7639,5.7612,5.7799,5.7881,5.79,5.79,5.79,5.79,5.79,5.79,5.79,5.79,5.79,5.79,5.79,5.79,5.79,5.79,5.79,5.79,5.79,5.79,5.79,5.79,5.79,5.79,5.79,5.79,5.79,5.79,5.79,5.79,5.79,5.79,5.79,5.79,5.79,5.79,5.79,5.79,5.79,5.79,5.79,5.79,5.79,5.79,5.79,5.79,5.79,5.79,5.79,5.79,5.79,5.79,5.79,5.79,5.79,5.79,5.79,5.79,5.79,5.79,5.79,5.79,5.79,5.79,5.79,5.79,5.79,5.79,5.79,5.79,5.79,5.79,5.79,5.79,5.79,5.7909,5.7936,5.7927,5.7936,5.8035,5.808,5.8143,5.826,5.8473,5.8587,5.8578,5.8552,5.8508,5.842,5.8358,5.8429,5.8508,5.8596,5.8675,5.8736,5.8806,5.8918,5.8987,5.7715,5.791,5.8638,5.8913,5.896,5.8933,5.801,5.6923,5.6784,5.6478,5.6141,5.5801,5.603,5.593,5.6616,5.6832,5.6784,5.756,5.7827,5.79,5.79,5.79,5.79,5.79,5.79,5.79,5.79,5.79,5.79,5.79,5.79,5.79,5.79,5.79,5.79,5.79,5.79,5.79,5.79,5.79,5.79,5.79,5.79,5.79,5.79,5.79,5.79,5.79,5.79,5.79,5.79,5.79,5.79,5.79,5.79,5.79,5.79,5.79,5.79,5.79,5.79,5.79,5.79,5.79,5.79,5.79,5.79,5.79,5.79,5.79,5.79,5.79,5.79,5.79,5.79,5.79,5.79,5.79,5.79,5.79,5.79,5.79,5.79,5.79,5.79,5.79,5.79,5.79,5.79,5.79,5.79,5.79,5.79,5.7909,5.79,5.7936,5.7963,5.8007,5.8062,5.8143,5.8269,5.8313,5.834,5.8331,5.8286,5.8135,5.8054,5.8197,5.8339,5.8455,5.8534,5.8596,5.8753,5.8909,5.8961,5.607,5.6142,5.594,5.6427,5.7288,5.6849,5.6297,5.5795,5.5715,5.5608,5.5276,5.5296,5.5296,5.5529,5.6152,5.6621,5.6736,5.7515,5.7808,5.79,5.79,5.79,5.79,5.79,5.79,5.79,5.79,5.79,5.79,5.79,5.79,5.79,5.79,5.79,5.79,5.79,5.79,5.79,5.79,5.79,5.79,5.79,5.79,5.79,5.79,5.79,5.79,5.79,5.79,5.79,5.79,5.79,5.79,5.79,5.79,5.79,5.79,5.79,5.79,5.79,5.79,5.79,5.79,5.79,5.79,5.79,5.79,5.79,5.79,5.79,5.79,5.79,5.79,5.79,5.79,5.79,5.79,5.79,5.79,5.79,5.79,5.79,5.79,5.79,5.79,5.79,5.79,5.79,5.79,5.79,5.79,5.79,5.79,5.79,5.79,5.79,5.79,5.7927,5.798,5.8062,5.8125,5.8036,5.8054,5.8063,5.809,5.8009,5.7991,5.8062,5.8134,5.8206,5.8322,5.8455,5.864,5.8875,5.8961,5.4456,5.4438,5.3869,5.4411,5.5534,5.5136,5.4741,5.4538,5.4507,5.4715,5.4876,5.4694,5.4881,5.5353,5.5856,5.642,5.6739,5.745,5.7782,5.79,5.79,5.79,5.79,5.79,5.79,5.79,5.79,5.79,5.79,5.79,5.79,5.79,5.79,5.79,5.79,5.79,5.79,5.79,5.79,5.79,5.79,5.79,5.79,5.79,5.79,5.79,5.79,5.79,5.79,5.79,5.79,5.79,5.79,5.79,5.79,5.79,5.79,5.79,5.79,5.79,5.79,5.79,5.79,5.79,5.79,5.79,5.79,5.79,5.79,5.79,5.79,5.79,5.79,5.79,5.79,5.79,5.79,5.79,5.79,5.79,5.79,5.79,5.79,5.79,5.79,5.79,5.79,5.79,5.79,5.79,5.79,5.79,5.79,5.79,5.79,5.79,5.79,5.79,5.7936,5.7989,5.8007,5.7918,5.7909,5.7972,5.7981,5.7918,5.7927,5.7972,5.7954,5.7927,5.8117,5.8358,5.8552,5.8779,5.8918,5.2819,5.2747,5.2792,5.329,5.4082,5.4051,5.3603,5.3091,5.2995,5.3357,5.3896,5.3329,5.3777,5.485,5.5163,5.5706,5.6491,5.7322,5.7818,5.7872,5.79,5.79,5.79,5.79,5.79,5.79,5.79,5.79,5.79,5.79,5.79,5.79,5.79,5.79,5.79,5.79,5.79,5.79,5.79,5.79,5.79,5.79,5.79,5.79,5.79,5.79,5.79,5.79,5.79,5.79,5.79,5.79,5.79,5.79,5.79,5.79,5.79,5.79,5.79,5.79,5.79,5.79,5.79,5.79,5.79,5.79,5.79,5.79,5.79,5.79,5.79,5.79,5.79,5.79,5.79,5.79,5.79,5.79,5.79,5.79,5.79,5.79,5.79,5.79,5.79,5.79,5.79,5.79,5.79,5.79,5.79,5.79,5.79,5.79,5.79,5.79,5.79,5.79,5.7909,5.7936,5.7945,5.7909,5.7909,5.7927,5.7918,5.79,5.79,5.7909,5.79,5.7918,5.8108,5.8331,5.8508,5.8692,5.8875,5.2702,5.2702,5.2702,5.2866,5.3135,5.3146,5.2951,5.2736,5.2725,5.2888,5.3035,5.2781,5.2895,5.3603,5.4369,5.503,5.5839,5.6626,5.719,5.7881,5.79,5.79,5.79,5.79,5.79,5.79,5.79,5.79,5.79,5.79,5.79,5.79,5.79,5.79,5.79,5.79,5.79,5.79,5.79,5.79,5.79,5.79,5.79,5.79,5.79,5.79,5.79,5.79,5.79,5.79,5.79,5.79,5.79,5.79,5.79,5.79,5.79,5.79,5.79,5.79,5.79,5.79,5.79,5.79,5.79,5.79,5.79,5.79,5.79,5.79,5.79,5.79,5.79,5.79,5.79,5.79,5.79,5.79,5.79,5.79,5.79,5.79,5.79,5.79,5.79,5.79,5.79,5.79,5.79,5.79,5.79,5.79,5.79,5.79,5.79,5.79,5.79,5.79,5.79,5.7909,5.79,5.79,5.79,5.7909,5.7909,5.79,5.79,5.79,5.79,5.7963,5.8152,5.8313,5.849,5.8693,5.8927,5.2702,5.2702,5.2702,5.2702,5.2702,5.2702,5.2702,5.2702,5.2713,5.2855,5.3069,5.2884,5.3168,5.3658,5.4205,5.4927,5.5796,5.6665,5.72,5.7881,5.79,5.79,5.79,5.79,5.79,5.79,5.79,5.79,5.79,5.79,5.79,5.79,5.79,5.79,5.79,5.79,5.79,5.79,5.79,5.79,5.79,5.79,5.79,5.79,5.79,5.79,5.79,5.79,5.79,5.79,5.79,5.79,5.79,5.79,5.79,5.79,5.79,5.79,5.79,5.79,5.79,5.79,5.79,5.79,5.79,5.79,5.79,5.79,5.79,5.79,5.79,5.79,5.79,5.79,5.79,5.79,5.79,5.79,5.79,5.79,5.79,5.79,5.79,5.79,5.79,5.79,5.79,5.79,5.79,5.79,5.79,5.79,5.79,5.79,5.79,5.79,5.79,5.79,5.79,5.79,5.79,5.79,5.79,5.79,5.79,5.79,5.79,5.79,5.79,5.7981,5.8152,5.8304,5.8481,5.8658,5.8858,5.2702,5.2702,5.2702,5.2702,5.2702,5.2702,5.2702,5.2702,5.2702,5.3146,5.3815,5.294,5.3296,5.4736,5.5098,5.5545,5.6322,5.7192,5.7645,5.7845,5.79,5.79,5.79,5.79,5.79,5.79,5.79,5.79,5.79,5.79,5.79,5.79,5.79,5.79,5.79,5.79,5.79,5.79,5.79,5.79,5.79,5.79,5.79,5.79,5.79,5.79,5.79,5.79,5.79,5.79,5.79,5.79,5.79,5.79,5.79,5.79,5.79,5.79,5.79,5.79,5.79,5.79,5.79,5.79,5.79,5.79,5.79,5.79,5.79,5.79,5.79,5.79,5.79,5.79,5.79,5.79,5.79,5.79,5.79,5.79,5.79,5.79,5.79,5.79,5.79,5.79,5.79,5.79,5.79,5.79,5.79,5.79,5.79,5.79,5.79,5.79,5.79,5.79,5.79,5.79,5.79,5.79,5.79,5.79,5.79,5.79,5.79,5.79,5.79,5.8,5.8125,5.8259,5.8375,5.849,5.8649,5.2702,5.2702,5.2702,5.2702,5.2702,5.2687,5.2702,5.2702,5.2702,5.2884,5.3047,5.2821,5.319,5.3477,5.4088,5.4948,5.5766,5.6565,5.7303,5.7645,5.79,5.79,5.79,5.79,5.79,5.79,5.79,5.79,5.79,5.79,5.79,5.79,5.79,5.79,5.79,5.79,5.79,5.79,5.79,5.79,5.79,5.79,5.79,5.79,5.79,5.79,5.79,5.79,5.79,5.79,5.79,5.79,5.79,5.79,5.79,5.79,5.79,5.79,5.79,5.79,5.79,5.79,5.79,5.79,5.79,5.79,5.79,5.79,5.79,5.79,5.79,5.79,5.79,5.79,5.79,5.79,5.79,5.79,5.79,5.79,5.79,5.79,5.79,5.79,5.79,5.79,5.79,5.79,5.79,5.79,5.79,5.79,5.79,5.79,5.79,5.79,5.79,5.79,5.79,5.79,5.79,5.79,5.79,5.79,5.79,5.79,5.79,5.79,5.79,5.7954,5.8071,5.8179,5.8277,5.8367,5.8464,5.2313,5.2271,5.1994,5.1902,5.1913,5.1913,5.1913,5.1979,5.2445,5.2702,5.2736,5.3091,5.3234,5.3538,5.4569,5.5464,5.5971,5.6863,5.7534,5.7746,5.7849,5.79,5.79,5.7883,5.79,5.79,5.79,5.79,5.79,5.79,5.79,5.79,5.79,5.79,5.79,5.79,5.79,5.79,5.79,5.79,5.79,5.79,5.79,5.79,5.79,5.79,5.79,5.79,5.79,5.79,5.79,5.79,5.79,5.79,5.79,5.79,5.79,5.79,5.79,5.79,5.79,5.79,5.79,5.79,5.79,5.79,5.79,5.79,5.79,5.79,5.79,5.79,5.79,5.79,5.79,5.79,5.79,5.79,5.79,5.79,5.79,5.79,5.79,5.79,5.79,5.79,5.79,5.79,5.79,5.79,5.79,5.79,5.79,5.79,5.79,5.79,5.79,5.79,5.79,5.79,5.79,5.79,5.79,5.79,5.79,5.79,5.79,5.79,5.7909,5.7954,5.7972,5.8027,5.8134,5.8233,5.8304,5.161,5.1575,5.0959,5.0805,5.0713,5.079,5.079,5.082,5.1959,5.2518,5.2592,5.3276,5.3457,5.3539,5.474,5.5621,5.6072,5.673,5.7116,5.773,5.7654,5.7637,5.7688,5.7874,5.79,5.79,5.79,5.79,5.79,5.79,5.79,5.79,5.79,5.79,5.79,5.79,5.79,5.79,5.79,5.79,5.79,5.79,5.79,5.79,5.79,5.79,5.79,5.79,5.79,5.79,5.79,5.79,5.79,5.79,5.79,5.79,5.79,5.79,5.79,5.79,5.79,5.79,5.79,5.79,5.79,5.79,5.79,5.79,5.79,5.79,5.79,5.79,5.79,5.79,5.79,5.79,5.79,5.79,5.79,5.79,5.79,5.79,5.79,5.79,5.79,5.79,5.79,5.79,5.79,5.79,5.79,5.79,5.79,5.79,5.79,5.79,5.79,5.79,5.79,5.79,5.79,5.79,5.79,5.79,5.79,5.79,5.79,5.79,5.79,5.7909,5.7918,5.7909,5.7981,5.809,5.8117,5.0928,5.0939,5.077,5.0697,5.0697,5.0697,5.0667,5.0702,5.1001,5.1174,5.124,5.1463,5.1992,5.2882,5.3867,5.4655,5.5291,5.6134,5.6204,5.6545,5.6816,5.7053,5.7171,5.7442,5.7705,5.79,5.79,5.7747,5.7772,5.7815,5.7883,5.79,5.79,5.79,5.79,5.79,5.79,5.79,5.79,5.79,5.79,5.79,5.79,5.79,5.79,5.79,5.79,5.79,5.79,5.79,5.79,5.79,5.79,5.79,5.79,5.79,5.79,5.79,5.79,5.79,5.79,5.79,5.79,5.79,5.79,5.79,5.79,5.79,5.79,5.79,5.79,5.79,5.79,5.79,5.79,5.79,5.79,5.79,5.79,5.79,5.79,5.79,5.79,5.79,5.79,5.79,5.79,5.79,5.79,5.79,5.79,5.79,5.79,5.79,5.79,5.79,5.79,5.79,5.79,5.79,5.79,5.79,5.79,5.79,5.79,5.79,5.79,5.79,5.79,5.79,5.79,5.79,5.79,5.7981,5.7972,4.9497,4.9748,4.9774,4.9758,4.9774,4.9763,4.9758,4.9763,4.9758,4.9774,5.0019,5.0781,5.168,5.2481,5.3376,5.4091,5.4841,5.5469,5.5799,5.5944,5.5978,5.6232,5.6536,5.679,5.6722,5.69,5.6934,5.6951,5.734,5.7425,5.7434,5.7755,5.7849,5.7857,5.7866,5.7883,5.79,5.79,5.79,5.79,5.79,5.79,5.79,5.79,5.79,5.79,5.79,5.79,5.79,5.79,5.79,5.79,5.79,5.79,5.79,5.79,5.79,5.79,5.79,5.79,5.79,5.79,5.79,5.79,5.79,5.79,5.79,5.79,5.79,5.79,5.79,5.79,5.79,5.79,5.79,5.79,5.79,5.79,5.79,5.79,5.79,5.79,5.79,5.79,5.79,5.79,5.79,5.79,5.79,5.79,5.79,5.79,5.79,5.79,5.79,5.79,5.79,5.79,5.79,5.79,5.79,5.79,5.79,5.79,5.79,5.79,5.79,5.79,5.79,5.79,5.79,5.79,5.7866,5.7825,5.782,4.7855,4.8317,4.8348,4.8348,4.8348,4.8348,4.8348,4.8363,4.8337,4.8363,4.8543,5.0256,5.1785,5.2964,5.3811,5.4651,5.51,5.4953,5.5209,5.5293,5.5454,5.5539,5.5623,5.5758,5.5936,5.5969,5.5978,5.6283,5.6655,5.6689,5.6934,5.7518,5.7705,5.7755,5.7789,5.7874,5.79,5.79,5.79,5.79,5.79,5.79,5.79,5.79,5.79,5.79,5.79,5.79,5.79,5.79,5.79,5.79,5.79,5.79,5.79,5.79,5.79,5.79,5.79,5.79,5.79,5.79,5.79,5.79,5.79,5.79,5.79,5.79,5.79,5.79,5.79,5.79,5.79,5.79,5.79,5.79,5.79,5.79,5.79,5.79,5.79,5.79,5.79,5.79,5.79,5.79,5.79,5.79,5.79,5.79,5.79,5.79,5.79,5.79,5.79,5.79,5.79,5.79,5.79,5.79,5.79,5.79,5.79,5.79,5.79,5.7883,5.79,5.79,5.79,5.7798,5.79,5.7858,5.7627,5.7586,5.7674,4.6865,4.6973,4.6973,4.7004,4.7004,4.7004,4.6973,4.6988,4.7019,4.6983,4.7258,4.75,4.8899,5.1541,5.2344,5.3185,5.3995,5.41,5.4,5.3932,5.46,5.4769,5.4921,5.5133,5.5581,5.5564,5.5462,5.575,5.5911,5.5911,5.5995,5.6266,5.6884,5.7036,5.7103,5.7349,5.7772,5.7772,5.7866,5.79,5.79,5.79,5.79,5.79,5.79,5.79,5.79,5.79,5.79,5.79,5.79,5.79,5.79,5.79,5.79,5.79,5.79,5.79,5.79,5.79,5.79,5.79,5.79,5.79,5.79,5.79,5.79,5.79,5.79,5.79,5.79,5.79,5.79,5.79,5.79,5.79,5.79,5.79,5.79,5.79,5.79,5.79,5.79,5.79,5.79,5.79,5.79,5.79,5.79,5.79,5.7849,5.7866,5.7866,5.79,5.79,5.79,5.79,5.79,5.79,5.79,5.79,5.79,5.79,5.79,5.7874,5.7874,5.7874,5.7671,5.762,5.7552,5.7798,5.7809,5.7476,5.7226,5.7194]},{"header":{"parameterUnit":"m.s-1","parameterCategory":1,"la1":31.0,"la2":29.5877,"lo1":-88.7671,"lo2":-86.6584,"dy":0.0162,"dx":0.0185,"nx":115,"ny":88,"refTime":"2023-09-09T06:00:00:Z","depth":0,"parameterNumber":3,"parameterNumberName":"V-component_of_WINDS"},"data":[0.0,0.0,0.0,0.0,0.0,0.0,0.0,0.0,0.0,0.0,0.0,0.0,0.0,0.0,0.0,0.0,0.0,0.0,0.0,0.0,0.0,0.0,0.0,0.0,0.0,0.0,0.0,0.0,0.0,0.0,0.0,0.0,0.0,0.0,0.0,0.0,0.0,0.0,0.0,0.0,0.0,0.0,0.0,0.0,0.0,0.0,0.0,0.0,0.0,0.0,0.0,0.0,0.0,0.0,0.0,0.0,0.0,0.0,0.0,0.0,0.0,0.0,0.0,0.0,0.0,0.0,0.0,0.0,0.0,0.0,0.0,0.0,0.0,0.0,0.0,0.0,0.0,0.0,0.0,0.0,0.0,0.0,0.0,0.0,0.0,0.0,0.0,0.0,0.0,0.0,0.0,0.0,0.0,0.0,0.0,0.0,0.0,0.0,0.0,0.0,0.0,0.0,0.0,0.0,0.0,0.0,0.0,0.0,0.0,0.0,0.0,0.0,0.0,0.0,0.0,0.0,0.0,0.0,0.0,0.0,0.0,0.0,0.0,0.0,0.0,0.0,0.0,0.0,0.0,0.0,0.0,0.0,0.0,0.0,0.0,0.0,0.0,0.0,0.0,0.0,0.0,0.0,0.0,0.0,0.0,0.0,0.0,0.0,0.0,0.0,0.0,0.0,0.0,0.0,0.0,0.0,0.0,0.0,0.0,0.0,0.0,0.0,0.0,0.0,0.0,0.0,0.0,0.0,0.0,0.0,0.0,0.0,0.0,0.0,0.0,0.0,0.0,0.0,0.0,0.0,0.0,0.0,0.0,0.0,0.0,0.0,0.0,0.0,0.0,0.0,0.0,0.0,0.0,0.0,0.0,0.0,0.0,0.0,0.0,0.0,0.0,0.0,0.0,0.0,0.0,0.0,0.0,0.0,0.0,0.0,0.0,0.0,0.0,0.0,0.0,0.0,0.0,0.0,0.0,0.0,0.0,0.0,0.0,0.0,0.0,0.0,0.0,0.0,0.0,0.0,0.0,0.0,0.0,0.0,0.0,0.0,0.0,0.0,0.0,0.0,0.0,0.0,0.0,0.0,0.0,0.0,0.0,0.0,0.0,0.0,0.0,0.0,0.0,0.0,0.0,0.0,0.0,0.0,0.0,0.0,0.0,0.0,0.0,0.0,0.0,0.0,0.0,0.0,0.0,0.0,0.0,0.0,0.0,0.0,0.0,0.0,0.0,0.0,0.0,0.0,0.0,0.0,0.0,0.0,0.0,0.0,0.0,0.0,0.0,0.0,0.0,0.0,0.0,0.0,0.0,0.0,0.0,0.0,0.0,0.0,0.0,0.0,0.0,0.0,0.0,0.0,0.0,0.0,0.0,0.0,0.0,0.0,0.0,0.0,0.0,0.0,0.0,0.0,0.0,0.0,0.0,0.0,0.0,0.0,0.0,0.0,0.0,0.0,0.0,0.0,0.0,0.0,0.0,0.0,0.0,0.0,0.0,0.0,0.0,0.0,0.0,0.0,0.0,0.0,0.0,0.0,0.0,0.0,0.0,0.0,0.0,0.0,0.0,0.0,0.0,0.0,0.0,0.0,0.0,0.0,0.0,0.0,0.0,0.0,0.0,0.0,0.0,0.0,0.0,0.0,0.0,0.0,0.0,0.0,0.0,0.0,0.0,0.0,0.0,0.0,0.0,0.0,0.0,0.0,0.0,0.0,0.0,0.0,0.0,0.0,0.0,0.0,0.0,0.0,0.0,0.0,0.0,0.0,0.0,0.0,0.0,0.0,0.0,0.0,0.0,0.0,0.0,0.0,0.0,0.0,0.0,0.0,0.0,0.0,0.0,0.0,0.0,0.0,0.0,0.0,0.0,0.0,0.0,0.0,0.0,0.0,0.0,0.0,0.0,0.0,0.0,0.0,0.0,0.0,0.0,0.0,0.0,0.0,0.0,0.0,0.0,0.0,0.0,0.0,0.0,0.0,0.0,0.0,0.0,0.0,0.0,0.0,0.0,0.0,0.0,0.0,0.0,0.0,0.0,0.0,0.0,0.0,0.0,0.0,0.0,0.0,0.0,0.0,0.0,0.0,0.0,0.0,0.0,0.0,0.0,0.0,0.0,0.0,0.0,0.0,0.0,0.0,0.0,0.0,0.0,0.0,0.0,0.0,0.0,0.0,0.0,0.0,0.0,0.0,0.0,0.0,0.0,0.0,0.0,0.0,0.0,0.0,0.0,0.0,0.0,0.0,0.0,0.0,0.0,0.0,0.0,0.0,0.0,0.0,0.0,0.0,0.0,0.0,0.0,0.0,0.0,0.0,0.0,0.0,0.0,0.0,0.0,0.0,0.0,0.0,0.0,0.0,0.0,0.0,0.0,0.0,0.0,0.0,0.0,0.0,0.0,0.0,0.0,0.0,0.0,0.0,0.0,0.0,0.0,0.0,0.0,0.0,0.0,0.0,0.0,0.0,0.0,0.0,0.0,0.0,0.0,0.0,0.0,0.0,0.0,0.0,0.0,0.0,0.0,0.0,0.0,0.0,0.0,0.0,0.0,0.0,0.0,0.0,0.0,0.0,0.0,0.0,0.0,0.0,0.0,0.0,0.0,0.0,0.0,0.0,0.0,0.0,0.0,0.0,0.0,0.0,0.0,0.0,0.0,0.0,0.0,0.0,0.0,0.0,0.0,0.0,0.0,0.0,0.0,0.0,0.0,0.0,0.0,0.0,0.0,0.0,0.0,0.0,0.0,0.0,0.0,0.0,0.0,0.0,0.0,0.0,0.0,0.0,0.0,0.0,0.0,0.0,0.0,0.0,0.0,0.0,0.0,0.0,0.0,0.0,0.0,0.0,0.0,0.0,0.0,0.0,0.0,0.0,0.0,0.0,0.0,0.0,0.0,0.0,0.0,0.0,0.0,0.0,0.0,0.0,0.0,0.0,0.0,0.0,0.0,0.0,0.0,0.0,0.0,0.0,0.0,0.0,0.0,0.0,0.0,0.0,0.0,0.0,0.0,0.0,0.0,0.0,0.0,0.0,0.0,0.0,0.0,0.0,0.0,0.0,0.0,0.0,0.0,0.0,0.0,0.0,0.0,0.0,0.0,0.0,0.0,0.0,0.0,0.0,0.0,0.0,0.0,0.0,0.0,0.0,0.0,0.0,0.0,0.0,0.0,0.0,0.0,0.0,0.0,0.0,0.0,0.0,0.0,0.0,0.0,0.0,0.0,0.0,0.0,0.0,0.0,0.0,0.0,0.0,0.0,0.0,0.0,0.0,0.0,0.0,0.0,0.0,0.0,0.0,0.0,0.0,0.0,0.0,0.0,0.0,0.0,0.0,0.0,0.0,0.0,0.0,0.0,0.0,0.0,0.0,0.0,0.0,0.0,0.0,0.0,0.0,0.0,0.0,0.0,0.0,0.0,0.0,0.0,0.0,0.0,0.0,0.0,0.0,0.0,0.0,0.0,0.0,0.0,0.0,0.0,0.0,0.0,0.0,0.0,0.0,0.0,0.0,0.0,0.0,0.0,0.0,0.0,0.0,0.0,0.0,0.0,0.0,0.0,0.0,0.0,0.0,0.0,0.0,0.0,0.0,0.0,0.0,0.0,0.0,0.0,0.0,0.0,0.0,0.0,0.0,0.0,0.0,0.0,0.0,0.0,0.0,0.0,0.0,0.0,0.0,0.0,0.0,0.0,0.0,0.0,0.0,0.0,0.0,0.0,0.0,0.0,0.0,0.0,0.0,0.0,0.0,0.0,0.0,0.0,0.0,0.0,0.0,0.0,0.0,0.0,0.0,0.0,0.0,0.0,0.0,0.0,0.0,0.0,0.0,0.0,0.0,0.0,0.0,0.0,0.0,0.0,0.0,0.0,0.0,0.0,0.0,0.0,0.0,0.0,0.0,0.0,0.0,0.0,0.0,0.0,0.0,0.0,0.0,0.0,0.0,0.0,0.0,0.0,0.0,0.0,0.0,0.0,0.0,0.0,0.0,0.0,0.0,0.0,0.0,0.0,0.0,0.0,0.0,0.0,0.0,0.0,0.0,0.0,0.0,0.0,0.0,0.0,0.0,0.0,0.0,0.0,0.0,0.0,0.0,0.0,0.0,0.0,0.0,0.0,0.0,0.0,0.0,0.0,0.0,0.0,0.0,0.0,0.0,0.0,0.0,0.0,0.0,0.0,0.0,0.0,0.0,0.0,0.0,0.0,0.0,0.0,0.0,0.0,0.0,0.0,0.0,0.0,0.0,0.0,0.0,0.0,0.0,0.0,0.0,0.0,0.0,0.5773,0.0,0.0,0.0,0.0,0.0,0.0,0.0,0.0,0.0,0.0,0.0,0.0,0.0,0.0,0.0,0.0,0.0,0.0,0.0,0.0,0.0,0.0,0.0,0.0,0.0,0.0,0.0,0.0,0.0,0.0,0.0,0.0,0.0,0.0,0.0,0.0,0.0,0.0,0.0,0.0,0.0,0.0,0.0,0.0,0.0,0.0,0.0,0.0,0.0,0.0,0.0,0.0,0.0,0.0,0.0,0.0,0.0,0.0,0.0,0.0,0.0,0.0,0.0,0.0,0.0,0.0,0.0,0.0,0.0,0.0,0.0,0.0,0.0,0.0,0.0,0.0,0.0,0.0,0.0,0.0,0.0,0.0,0.0,0.0,0.0,0.0,0.0,0.0,0.0,0.0,0.0,0.0,0.0,0.0,0.0,0.0,0.0,0.0,0.0,0.0,0.0,0.0,0.0,0.0,0.0,0.0,0.0,0.0,0.0,0.0,0.6915,0.6705,0.661,0.6453,0.6248,0.0,0.0,0.0,0.0,0.0,0.0,0.0,0.0,0.0,0.0,0.0,0.0,0.0,0.0,0.0,0.0,0.0,0.0,0.0,0.0,0.0,0.0,0.0,0.0,0.0,0.0,0.0,0.0,0.0,0.0,0.0,0.0,0.0,0.0,0.0,0.0,0.0,0.0,0.0,0.0,0.0,0.0,0.0,0.0,0.0,0.0,0.0,0.0,0.0,0.0,0.0,0.0,0.0,0.0,0.0,0.0,0.0,0.0,0.0,0.0,0.0,0.0,0.0,0.0,0.0,0.0,0.0,0.0,0.0,0.0,0.0,0.0,0.0,0.0,0.0,0.0,0.0,0.0,0.0,0.0,0.0,0.0,0.0,0.0,0.0,0.0,0.0,0.0,0.0,0.0,0.0,0.0,0.0,0.0,0.0,0.0,0.0,0.0,0.0,0.0,0.0,0.0,0.0,0.0,0.0,0.0,0.0,0.0,0.0,0.0,0.0,0.0,0.7288,0.7113,0.677,0.0,0.0,0.0,0.0,0.0,0.0,0.0,0.0,0.0,0.0,0.0,0.0,0.0,0.0,0.0,0.0,0.0,0.0,0.0,0.0,0.0,0.0,0.0,0.0,0.0,0.0,0.0,0.0,0.0,0.0,0.0,0.0,0.0,0.0,0.0,0.0,0.0,0.0,0.0,0.0,0.0,0.0,0.0,0.0,0.0,0.0,0.0,0.0,0.0,0.0,0.0,0.0,0.0,0.0,0.0,0.0,0.0,0.0,0.0,0.0,0.0,0.0,0.0,0.0,0.0,0.0,0.0,0.0,0.0,0.0,0.0,0.0,0.0,0.0,0.0,0.0,0.0,0.0,0.0,0.0,0.0,0.0,0.0,0.0,0.0,0.0,0.0,0.0,0.0,0.0,0.0,0.0,0.0,0.0,0.0,0.0,0.0,0.0,0.0,0.0,0.0,0.0,0.0,0.0,0.0,0.0,0.0,0.0,0.0,0.0,0.7721,0.7832,0.7824,0.0,0.7246,0.0,0.0,0.0,0.0,0.0,0.0,0.0,0.0,0.0,0.0,0.0,0.0,0.0,0.0,0.0,0.0,0.0,0.0,0.0,0.0,0.0,0.0,0.0,0.0,0.0,0.0,0.0,0.0,0.0,0.0,0.0,0.0,0.0,0.0,0.0,0.0,0.0,0.0,0.0,0.0,0.0,0.0,0.0,0.0,0.0,0.0,0.0,0.0,0.0,0.0,0.0,0.0,0.0,0.0,0.0,0.0,0.0,0.0,0.0,0.0,0.0,0.0,0.0,0.0,0.0,0.0,0.0,0.0,0.0,0.0,0.0,0.0,0.0,0.0,0.0,0.0,0.0,0.0,0.0,0.0,0.0,0.0,0.0,0.0,0.0,0.0,0.0,0.0,0.0,0.0,0.0,0.0,0.0,0.0,0.0,0.0,0.0,0.0,0.0,0.0,0.0,0.0,0.0,0.0,0.0,0.0,0.0,0.0,0.0,0.0,0.8636,0.8836,0.8608,0.8341,0.0,0.0,0.0,0.0,0.0,0.0,0.0,0.0,0.0,0.0,0.0,0.0,0.0,0.0,0.0,0.0,0.0,0.0,0.0,0.0,0.0,0.0,0.0,0.0,0.0,0.0,0.0,0.0,0.0,0.0,0.0,0.0,0.0,0.0,0.0,0.0,0.0,0.0,0.0,0.0,0.0,0.0,0.0,0.0,0.0,0.0,0.0,0.0,0.0,0.0,0.0,0.0,0.0,0.0,0.0,0.0,0.0,0.0,0.0,0.0,0.0,0.0,0.0,0.0,0.0,0.0,0.0,0.0,0.0,0.0,0.0,0.0,0.0,0.0,0.0,0.0,0.0,0.0,0.0,0.0,0.0,0.0,0.0,0.0,0.0,0.0,0.0,0.0,0.0,0.0,0.0,0.0,0.0,0.0,0.0,0.0,0.0,0.0,0.0,0.0,0.0,0.0,0.0,0.0,0.0,0.0,0.0,0.0,0.0,0.0,0.8963,0.9263,0.9572,0.9186,0.88,0.8492,0.0,0.0,0.0,0.0,0.0,0.0,0.0,0.0,0.0,0.0,0.0,0.0,0.0,0.0,0.0,0.0,0.0,0.0,0.0,0.0,0.0,0.0,0.0,0.0,0.0,0.0,0.0,0.0,0.0,0.0,0.0,0.0,0.0,0.0,0.0,0.0,0.0,0.0,0.0,0.0,0.0,0.0,0.0,0.0,0.0,0.0,0.0,0.0,0.0,0.0,0.0,0.0,0.0,0.0,0.0,0.0,0.0,0.0,0.0,0.0,0.0,0.0,0.0,0.0,0.0,0.0,0.0,0.0,0.0,0.0,0.0,0.0,0.0,0.0,0.0,0.0,0.0,0.0,0.0,0.0,0.0,0.0,0.0,0.0,0.0,0.0,0.0,0.0,0.0,0.0,0.0,0.0,0.0,0.0,0.0,0.0,0.0,0.0,0.0,0.0,0.0,0.0,0.0,0.0,0.0,0.0,0.0,0.0,0.8691,0.8975,0.9346,0.9865,0.9378,0.8907,0.0,0.0,0.0,0.0,0.0,0.0,0.0,0.0,0.0,0.0,0.0,0.0,0.0,0.0,0.0,0.0,0.0,0.0,0.0,0.0,0.0,0.0,0.0,0.0,0.0,0.0,0.0,0.0,0.0,0.0,0.0,0.0,0.0,0.0,0.0,0.0,0.0,0.0,0.0,0.0,0.0,0.0,0.0,0.0,0.0,0.0,0.0,0.0,0.0,0.0,0.0,0.0,0.0,0.0,0.0,0.0,0.0,0.0,0.0,0.0,0.0,0.0,0.0,0.0,0.0,0.0,0.0,0.0,0.0,0.0,0.0,0.0,0.0,0.0,0.0,0.0,0.0,0.0,0.0,0.0,0.0,0.0,0.0,0.0,0.0,0.0,0.0,0.0,0.0,0.0,0.0,0.0,0.0,0.0,0.0,0.0,0.0,0.0,0.0,0.0,0.0,0.0,0.0,0.0,0.0,0.0,0.0,0.0,0.0,0.8955,0.956,1.005,1.037,0.9727,0.9159,0.0,0.0,0.0,0.0,0.0,0.0,0.0,0.0,0.0,0.0,0.0,0.0,0.0,0.0,0.0,0.0,0.0,0.0,0.0,0.0,0.0,0.0,0.0,0.0,0.0,0.0,0.0,0.0,0.0,0.0,0.0,0.0,0.0,0.0,0.0,0.0,0.0,0.0,0.0,0.0,0.0,0.0,0.0,0.0,0.0,0.0,0.0,0.0,0.0,0.0,0.0,0.0,0.0,0.0,0.0,0.0,0.0,0.0,0.0,0.0,0.0,0.0,0.0,0.0,0.0,0.0,0.0,0.0,0.0,0.0,0.0,0.0,0.0,0.0,0.0,0.0,0.0,0.0,0.0,0.0,0.0,0.0,0.0,0.0,0.0,0.0,0.0,0.0,0.0,0.0,0.0,0.0,0.0,0.0,0.0,0.0,0.0,0.0,0.0,0.0,0.0,0.0,0.0,0.0,0.0,0.0,0.0,0.0,0.0,0.9241,0.0,1.0394,1.0535,0.9883,0.9255,0.0,0.0,0.0,0.0,0.0,0.0,0.0,0.0,0.0,0.0,0.0,0.0,0.0,0.0,0.0,0.0,0.0,0.0,0.0,0.0,0.0,0.0,0.0,0.0,0.0,0.0,0.0,0.0,0.0,0.0,0.0,0.0,0.0,0.0,0.0,0.0,0.0,0.0,0.0,0.0,0.0,0.0,0.0,0.0,0.0,0.0,0.0,0.0,0.0,0.0,0.0,0.0,0.0,0.0,0.0,0.0,0.0,0.0,0.0,0.0,0.0,0.0,0.0,0.0,0.0,0.0,0.0,0.0,0.0,0.0,0.0,0.0,0.0,0.0,0.0,0.0,0.0,0.0,0.0,0.0,0.0,0.0,0.0,0.0,0.0,0.0,0.0,0.0,0.0,0.0,0.0,0.0,0.0,0.0,0.0,0.0,0.0,0.0,0.0,0.0,0.0,0.0,0.0,0.0,0.0,0.0,0.0,0.0,0.8467,0.9512,1.0065,1.0372,1.0307,0.9833,0.9144,0.0,0.0,0.0,0.0,0.0,0.0,0.0,0.0,0.0,0.0,0.0,0.0,0.0,0.0,0.0,0.0,0.0,0.0,0.0,0.0,0.0,0.0,0.0,0.0,0.0,0.0,0.0,0.0,0.0,0.0,0.0,0.0,0.0,0.0,0.0,0.0,0.0,0.0,0.0,0.0,0.0,0.0,0.0,0.0,0.0,0.0,0.0,0.0,0.0,0.0,0.0,0.0,0.0,0.0,0.0,0.0,0.0,0.0,0.0,0.0,0.0,0.0,0.0,0.0,0.0,0.0,0.0,0.0,0.0,0.0,0.0,0.0,0.0,0.0,0.0,0.0,0.0,0.0,0.0,0.0,0.0,0.0,0.0,0.0,0.0,0.0,0.0,0.0,0.0,0.0,0.0,0.0,0.0,0.0,0.0,0.0,0.0,0.0,0.0,0.0,0.0,0.0,0.0,0.0,0.0,0.0,0.0,0.0,0.0,1.0716,1.0954,1.1152,1.1303,1.0589,0.983,0.0,0.0,0.0,0.0,0.0,0.0,0.0,0.0,0.0,0.0,0.0,0.0,0.0,0.0,0.0,0.0,0.0,0.0,0.0,0.0,0.0,0.0,0.0,0.0,0.0,0.0,0.0,0.0,0.0,0.0,0.0,0.0,0.0,0.0,0.0,0.0,0.0,0.0,0.0,0.0,0.0,0.0,0.0,0.0,0.0,0.0,0.0,0.0,0.0,0.0,0.0,0.0,0.0,0.0,0.0,0.0,0.0,0.0,0.0,0.0,0.0,0.0,0.0,0.0,0.0,0.0,0.0,0.0,0.0,0.0,0.0,0.0,0.0,0.0,0.0,0.0,0.0,0.0,0.0,0.0,0.0,0.0,0.0,0.0,0.0,0.0,0.0,0.0,0.0,0.0,0.0,0.0,0.0,0.0,0.0,0.0,0.0,0.0,0.0,0.0,0.0,0.0,0.0,0.0,0.0,0.0,0.0,0.0,0.0,1.1951,1.1807,1.1768,1.1956,1.1237,1.0438,0.9605,0.0,0.0,0.0,0.0,0.0,0.0,0.0,0.0,0.0,0.0,0.0,0.0,0.0,0.0,0.0,0.0,0.0,0.0,0.0,0.0,0.0,0.0,0.0,0.0,0.0,0.0,0.0,0.0,0.0,0.0,0.0,0.0,0.0,0.0,0.0,0.0,0.0,0.0,0.0,0.0,0.0,0.0,0.0,0.0,0.0,0.0,0.0,0.0,0.0,0.0,0.0,0.0,0.0,0.0,0.0,0.0,0.0,0.0,0.0,0.0,0.0,0.0,0.0,0.0,0.0,0.0,0.0,0.0,0.0,0.0,0.0,0.0,0.0,0.0,0.0,0.0,0.0,0.0,0.0,0.0,0.0,0.0,0.0,0.0,0.0,0.0,0.0,0.0,0.0,0.0,0.0,0.0,0.0,0.0,0.0,0.0,0.0,0.0,0.0,0.0,0.0,0.0,0.0,0.0,0.0,0.0,0.0,0.0,1.3193,1.2645,1.2354,1.2354,1.1801,1.1041,0.0,0.0,0.0,0.0,0.0,0.0,0.0,0.0,0.0,0.0,0.0,0.0,0.0,0.0,0.0,0.0,0.0,0.0,0.0,0.0,0.0,0.0,0.0,0.0,0.0,0.0,0.0,0.0,0.0,0.0,0.0,0.0,0.0,0.0,0.0,0.0,0.0,0.0,0.0,0.0,0.0,0.0,0.0,0.0,0.0,0.0,0.0,0.0,0.0,0.0,0.0,0.0,0.0,0.0,0.0,0.0,0.0,0.0,0.0,0.0,0.0,0.0,0.0,0.0,0.0,0.0,0.0,0.0,0.0,0.0,0.0,0.0,0.0,0.0,0.0,0.0,0.0,0.0,0.0,0.0,0.0,0.0,0.0,0.0,0.0,0.0,0.0,0.0,0.0,0.0,0.0,0.0,0.0,0.0,0.0,0.0,0.0,0.0,0.0,0.0,0.0,0.0,0.0,0.0,0.0,0.0,0.0,0.0,0.0,1.319,1.3884,1.4147,1.389,1.3131,1.2303,0.0,0.0,0.0,0.0,0.0,0.0,0.0,0.0,0.0,0.0,0.0,0.0,0.0,0.0,0.0,0.0,0.0,0.0,0.0,0.0,0.0,0.0,0.0,0.0,0.0,0.0,0.0,0.0,0.0,0.0,0.0,0.0,0.0,0.0,0.0,0.0,0.0,0.0,0.0,0.0,0.0,0.0,0.0,0.0,0.0,0.0,0.0,0.0,0.0,0.0,0.0,0.0,0.0,0.0,0.0,0.0,0.0,0.0,0.0,0.0,0.0,0.0,0.0,0.0,0.0,0.0,0.0,0.0,0.0,0.0,0.0,0.0,0.0,0.0,0.0,0.0,0.0,0.0,0.0,0.0,0.0,0.0,0.0,0.0,0.0,0.0,0.0,0.0,0.0,0.0,0.0,0.0,0.0,0.0,0.0,0.0,0.0,0.0,0.0,0.0,0.0,0.0,0.0,0.0,0.0,0.0,0.0,0.0,1.3033,1.3734,1.479,1.5244,1.5043,1.4102,1.3163,0.0,0.0,0.0,0.0,0.0,0.0,0.0,0.0,0.0,0.0,0.0,0.0,0.0,0.0,0.0,0.0,0.0,0.0,0.0,0.0,0.0,0.0,0.0,0.0,0.0,0.0,0.0,0.0,0.0,0.0,0.0,0.0,0.0,0.0,0.0,0.0,0.0,0.0,0.0,0.0,0.0,0.0,0.0,0.0,0.0,0.0,0.0,0.0,0.0,0.0,0.0,0.0,0.0,0.0,0.0,0.0,0.0,0.0,0.0,0.0,0.0,0.0,0.0,0.0,0.0,0.0,0.0,0.0,0.0,0.0,0.0,0.0,0.0,0.0,0.0,0.0,0.0,0.0,0.0,0.0,0.0,0.0,0.0,0.0,0.0,0.0,0.0,0.0,0.0,0.0,0.0,0.0,0.0,0.0,0.0,0.0,0.0,0.0,0.0,0.0,0.0,0.0,0.0,0.0,0.0,0.0,0.0,0.0,1.3654,1.4527,1.5356,1.5801,1.5775,1.473,1.3748,0.0,0.0,0.0,0.0,0.0,0.0,0.0,0.0,0.0,0.0,0.0,0.0,0.0,0.0,0.0,0.0,0.0,0.0,0.0,0.0,0.0,0.0,0.0,0.0,0.0,0.0,0.0,0.0,0.0,0.0,0.0,0.0,0.0,0.0,0.0,0.0,0.0,0.0,0.0,0.0,0.0,0.0,0.0,0.0,0.0,0.0,0.0,0.0,0.0,0.0,0.0,0.0,0.0,0.0,0.0,0.0,0.0,0.0,0.0,0.0,0.0,0.0,0.0,0.0,0.0,0.0,0.0,0.0,0.0,0.0,0.0,0.0,0.0,0.0,0.0,0.0,0.0,0.0,0.0,0.0,0.0,0.0,0.0,0.0,0.0,0.0,0.0,0.0,0.0,0.0,0.0,0.0,0.0,0.0,0.0,0.0,0.0,0.0,0.0,0.0,0.0,0.0,0.0,0.0,0.0,0.0,0.0,0.0,1.396,1.4872,1.5486,1.5813,1.5813,1.4912,1.41,0.0,0.0,0.0,0.0,0.0,0.0,0.0,0.0,0.0,0.0,0.0,0.0,0.0,0.0,0.0,0.0,0.0,0.0,0.0,0.0,0.0,0.0,0.0,0.0,0.0,0.0,0.0,0.0,0.0,0.0,0.0,0.0,0.0,0.0,0.0,0.0,0.0,0.0,0.0,0.0,0.0,0.0,0.0,0.0,0.0,0.0,0.0,0.0,0.7614,0.0,0.0,0.0,0.0,0.0,0.0,0.0,0.0,0.0,0.0,0.0,0.0,0.0,0.0,0.0,0.0,0.0,0.0,0.0,0.0,0.0,0.0,0.0,0.0,0.0,0.0,0.0,0.0,0.0,0.0,0.0,0.0,0.0,0.0,0.0,0.0,0.0,0.0,0.0,0.0,0.0,0.0,0.0,0.0,0.0,0.0,0.0,0.0,0.0,0.0,0.0,0.0,0.0,0.0,0.0,0.0,0.0,0.0,0.0,1.4271,1.5166,1.5575,1.5813,1.5781,1.5228,1.4578,0.0,0.0,0.0,0.0,0.0,0.0,0.0,0.0,0.0,0.0,0.0,0.0,0.0,0.0,0.0,0.0,0.0,0.0,0.0,0.0,0.0,0.0,0.0,0.0,0.0,0.0,0.0,0.0,0.0,0.0,0.0,0.0,0.0,0.0,0.0,0.0,0.0,0.0,0.0,0.0,0.0,0.0,0.0,0.0,0.0,0.0,0.0,0.0,0.0,0.0,0.0,0.0,0.0,0.0,0.0,0.0,0.0,0.0,0.0,0.0,0.0,0.0,0.0,0.0,0.0,0.0,0.0,0.0,0.0,0.0,0.0,0.0,0.0,0.0,0.0,0.0,0.0,0.0,0.0,0.0,0.0,0.0,0.0,0.0,0.0,0.0,0.0,0.0,0.0,0.0,0.0,0.0,0.0,0.0,0.0,0.0,0.0,0.0,0.0,0.0,0.0,0.0,0.0,0.0,0.0,0.0,0.0,1.3517,1.454,1.5413,1.5675,1.5813,1.5801,1.554,1.4963,1.4045,0.0,0.0,0.0,0.0,0.0,0.0,0.0,0.0,0.0,0.0,0.0,0.0,0.0,0.0,0.0,0.0,0.0,0.0,0.0,0.0,0.0,0.0,0.0,0.0,0.0,0.0,0.0,0.0,0.0,0.0,0.0,0.0,0.0,0.0,0.0,0.0,0.0,0.0,0.6666,0.7108,0.0,0.0,0.0,0.0,0.0,0.0,0.0,0.0,0.9229,0.0,0.0,0.0,0.0,0.0,0.0,0.0,0.0,0.0,0.0,0.0,0.0,0.0,0.0,0.0,0.0,0.0,0.0,0.0,0.0,0.0,0.0,0.0,0.0,0.0,0.0,0.0,0.0,0.0,0.0,0.0,0.0,0.0,0.0,0.0,0.0,0.0,0.0,0.0,0.0,0.0,0.0,0.0,0.0,0.0,0.0,0.0,0.0,0.0,0.0,0.0,0.0,0.0,0.0,0.0,0.0,1.2716,1.3638,1.464,1.5695,1.5781,1.5813,1.5795,1.5545,1.487,1.3717,0.0,0.0,0.0,0.0,0.0,0.0,0.0,0.0,0.0,0.0,0.0,0.0,0.0,0.0,0.0,0.0,0.0,0.0,0.0,0.0,0.0,0.0,0.0,0.0,0.0,0.0,0.0,0.0,0.0,0.0,0.0,0.0,0.0,0.0,0.0,0.0,0.0,0.0,0.0,0.8608,0.8769,0.0,0.0,0.0,0.0,0.0,0.0,0.0,0.0,1.0717,0.0,0.0,0.0,0.0,0.0,0.0,0.0,0.0,0.0,0.0,0.0,0.0,0.0,0.0,0.0,0.0,0.0,0.0,0.0,0.0,0.0,0.0,0.0,0.0,0.0,0.0,0.0,0.0,0.0,0.0,0.0,0.0,0.0,0.0,0.0,0.0,0.0,0.0,0.0,0.0,0.0,0.0,0.0,0.0,0.0,0.0,0.0,0.0,0.0,0.0,0.0,0.0,0.0,0.0,0.0,1.2965,1.4029,1.4957,1.5768,1.5813,1.5813,1.5795,1.5644,1.4932,0.0,0.0,0.0,0.0,0.0,0.0,0.0,0.0,0.0,0.0,0.0,0.0,0.0,0.0,0.0,0.0,0.0,0.0,0.0,0.0,0.0,0.0,0.0,0.0,0.0,0.0,0.0,0.0,0.0,0.0,0.0,0.0,0.0,0.0,0.0,0.0,0.0,0.0,0.0,0.0,0.963,0.9988,1.0692,0.0,0.0,0.0,0.0,0.0,0.0,1.1467,1.1257,0.0,0.0,0.0,0.0,0.0,0.0,0.0,0.0,0.0,0.0,0.0,0.0,0.0,0.0,0.0,0.0,0.0,0.0,0.0,0.0,0.0,0.0,0.0,0.0,0.0,0.0,0.0,0.0,0.0,0.0,0.0,0.0,0.0,0.0,0.0,0.0,0.0,0.0,0.0,0.0,0.0,0.0,0.0,0.0,0.0,0.0,0.0,0.0,0.0,0.0,0.0,0.0,0.0,0.0,0.0,1.3426,1.4518,1.5452,1.6171,1.6283,1.6322,1.6315,1.6195,1.5435,0.0,0.0,0.0,0.0,0.0,0.0,0.0,0.0,0.0,0.0,0.0,0.0,0.0,0.0,0.0,0.0,0.0,0.0,0.0,0.0,0.0,0.0,0.0,0.0,0.0,0.0,0.0,0.0,0.0,0.0,0.0,0.0,0.0,0.0,0.0,0.0,0.0,0.0,0.0,0.0,0.0,1.1049,1.1767,1.1358,0.0,0.0,0.0,0.0,1.2161,1.2126,0.0,0.0,0.0,0.0,0.0,0.0,0.0,0.0,0.0,0.0,0.0,0.0,0.0,0.0,0.0,0.0,0.0,0.0,0.0,0.0,0.0,0.0,0.0,0.0,0.0,0.0,0.0,0.0,0.0,0.0,0.0,0.0,0.0,0.0,0.0,0.0,0.0,0.0,0.0,0.0,0.0,0.0,0.0,0.0,0.0,0.0,0.0,0.0,0.0,0.0,0.0,0.0,0.0,0.0,0.0,0.0,1.4244,1.5006,1.6076,1.75,1.7906,1.8093,1.8086,1.7688,1.6788,0.0,0.0,0.0,0.0,0.0,0.0,0.0,0.0,0.0,0.0,0.0,0.0,0.0,0.0,0.0,0.0,0.0,0.0,0.0,0.0,0.0,0.0,0.0,0.0,0.0,0.0,0.0,0.0,0.0,0.0,0.0,0.0,0.0,0.0,0.0,0.0,0.0,0.0,0.0,0.0,0.0,1.1665,1.2399,1.2316,1.2148,0.0,0.0,1.3389,1.3558,1.3805,0.0,0.0,0.0,0.0,0.0,0.0,0.0,0.0,0.0,0.0,0.0,0.0,0.0,0.0,0.0,0.0,0.0,0.0,0.0,0.0,0.0,0.0,0.0,0.0,0.0,0.0,0.0,0.0,0.0,0.0,0.0,0.0,0.0,0.0,0.0,0.0,0.0,0.0,0.0,0.0,0.0,0.0,0.0,0.0,0.0,0.0,0.0,0.0,0.0,0.0,0.0,0.0,0.0,0.0,0.0,1.2891,1.5035,1.7018,1.8349,1.9011,1.9219,1.9308,1.9308,1.8377,1.7176,0.0,0.0,0.0,0.0,0.0,0.0,0.0,0.0,0.0,0.0,0.0,0.0,0.0,0.0,0.0,0.0,0.0,0.0,0.0,0.0,0.0,0.0,0.0,0.0,0.0,0.0,0.0,0.0,0.0,0.0,0.0,0.0,0.0,0.0,0.0,0.0,0.0,0.0,0.0,0.0,0.0,0.0,1.3178,1.3513,0.0,0.0,0.0,1.4189,1.4043,0.0,0.0,0.0,0.0,0.0,0.0,0.0,0.0,0.0,0.0,0.0,0.0,0.0,0.0,0.0,0.0,0.0,0.0,0.0,0.0,0.0,0.0,0.0,0.0,0.0,0.0,0.0,0.0,0.0,0.0,0.0,0.0,0.0,0.0,0.0,0.0,0.0,0.0,0.0,0.0,0.0,0.0,0.0,0.0,0.0,0.0,0.0,0.0,0.0,0.0,0.0,0.0,0.0,0.0,0.0,0.0,0.0,1.5998,1.8699,2.0216,2.0468,2.0573,2.0622,2.0618,1.9622,0.0,0.0,0.0,0.0,0.0,0.0,0.0,0.0,0.0,0.0,0.0,0.0,0.0,0.0,0.0,0.0,0.0,0.0,0.0,0.0,0.0,0.0,0.0,0.0,0.0,0.0,0.0,0.6422,0.0,0.0,0.0,0.0,0.0,0.0,0.0,0.0,0.0,0.0,0.0,0.0,0.0,0.0,1.3135,1.3801,1.4465,1.4878,0.0,0.0,1.4794,1.4537,1.4592,1.4129,0.0,0.0,0.0,0.0,0.0,0.0,0.0,0.0,0.0,0.0,0.0,0.0,0.0,0.0,0.0,0.0,0.0,0.0,0.0,0.0,0.0,0.0,0.0,0.0,0.0,0.0,0.0,0.0,0.0,0.0,0.0,0.0,0.0,0.0,0.0,0.0,0.0,0.0,0.0,0.0,0.0,0.0,0.0,0.0,0.0,0.0,0.0,0.0,0.0,0.0,0.0,0.0,0.0,0.0,0.0,1.7309,1.9354,2.0867,2.1738,2.2136,2.2336,2.234,2.2104,2.0853,0.0,0.0,0.0,0.0,0.0,0.0,0.0,0.0,0.0,0.0,0.0,0.0,0.0,0.0,0.0,0.0,0.0,0.0,0.0,0.0,0.0,0.0,0.0,0.0,0.0,0.0,0.0,0.0,0.0,0.0,0.0,0.0,0.0,0.0,0.0,0.0,0.0,0.0,0.0,0.0,0.0,1.3544,1.4095,1.4844,1.5359,0.0,0.0,1.5346,1.5321,1.553,1.506,1.3152,0.0,0.0,0.0,0.0,0.0,0.0,0.0,0.0,0.0,0.0,0.0,0.0,0.0,0.0,0.0,0.0,0.0,0.0,0.0,0.0,0.0,0.0,0.0,0.0,0.0,0.0,0.0,0.0,0.0,0.0,0.0,0.0,0.0,0.0,0.0,0.0,0.0,0.0,0.0,0.0,0.0,0.0,0.0,0.0,0.0,0.0,0.0,0.0,0.0,0.0,0.0,0.0,0.0,1.5192,1.7851,2.1084,2.2938,2.3293,2.3457,2.3538,2.355,2.2747,2.1353,0.0,0.0,0.0,0.0,0.0,0.0,0.0,0.0,0.0,0.0,0.0,0.0,0.0,0.0,0.0,0.0,0.0,0.0,0.0,0.0,0.0,0.0,0.0,0.0,0.0,0.0,0.0,0.0,1.0916,1.1313,1.1105,0.0,0.0,0.0,0.0,0.0,0.0,0.0,0.0,0.0,0.0,1.4197,1.4842,1.5653,0.0,0.0,1.6199,1.6151,1.5977,1.5879,1.5245,1.3591,1.2981,0.0,0.0,0.0,0.0,0.0,0.0,0.0,0.0,0.0,0.0,0.0,0.0,0.0,0.0,0.0,0.0,0.0,0.0,0.0,0.0,0.0,0.0,0.0,0.0,0.0,0.0,0.0,0.0,0.0,0.0,0.0,0.0,0.0,0.0,0.0,0.0,0.0,0.0,0.0,0.0,0.0,0.0,0.0,0.0,0.0,0.0,0.0,0.0,0.0,0.0,0.0,0.0,1.6014,1.8319,2.2197,2.4198,2.4198,2.4198,2.4198,2.418,2.3323,2.2067,0.0,0.0,0.0,0.0,0.0,0.0,0.0,0.0,0.0,0.0,0.0,0.0,0.0,0.0,0.0,0.0,0.0,0.0,0.0,0.0,0.0,0.0,0.0,0.0,0.0,0.0,0.0,0.0,1.1613,1.1697,1.083,0.0,0.0,0.0,0.0,0.0,0.0,0.0,0.0,0.0,0.0,1.4928,1.5448,1.6114,1.654,1.6453,1.6427,1.6339,1.6064,1.5838,1.5261,1.4074,0.0,0.0,0.0,0.0,0.0,0.0,0.0,0.0,0.0,0.0,0.0,0.0,0.0,0.0,0.0,0.0,0.0,0.0,0.0,0.0,0.0,0.0,0.0,0.0,0.0,0.0,0.0,0.0,0.0,0.0,0.567,0.0,0.0,0.0,0.0,0.0,0.0,0.0,0.0,0.0,0.0,0.0,0.0,0.0,0.0,0.0,0.0,0.0,0.0,0.0,0.0,0.0,0.0,1.6465,1.8871,2.2388,2.4198,2.4198,2.4198,2.4198,2.4202,2.4158,2.3393,2.1752,0.0,0.0,0.0,0.0,0.0,0.0,0.0,0.0,0.0,0.0,0.0,0.0,0.0,0.0,0.0,0.0,0.0,0.0,0.0,0.0,0.0,0.0,0.0,0.0,0.0,0.0,1.0233,1.0904,1.1086,0.0,0.0,0.0,0.0,0.0,0.0,0.0,0.0,0.0,0.0,1.4758,1.577,1.5801,1.6092,1.6225,1.5927,1.5855,1.5748,1.5504,1.5431,1.5204,0.0,0.0,0.0,0.0,0.0,0.0,0.0,0.0,0.0,0.0,0.0,0.0,0.0,0.0,0.0,0.0,0.0,0.0,0.0,0.0,0.0,0.0,0.0,0.0,0.0,0.0,0.0,1.0501,0.9876,0.0,0.0,0.0,0.0,0.0,0.0,0.0,0.0,0.0,0.0,0.0,1.6004,1.6431,0.0,0.0,0.0,0.0,0.0,0.0,0.0,0.0,0.0,0.0,0.0,0.0,1.6799,1.8946,2.2397,2.4198,2.4198,2.4198,2.4198,2.4198,2.4198,2.3347,2.1506,0.0,0.0,0.0,0.0,0.0,0.0,0.0,0.0,0.0,0.0,0.0,0.0,0.0,0.0,0.0,0.0,0.0,0.0,0.0,0.0,0.0,0.0,0.0,0.0,0.0,1.1176,0.0,0.0,0.0,0.0,0.0,0.0,0.0,0.0,0.0,0.0,0.0,1.3752,1.4617,1.5351,1.5948,1.6347,1.6505,1.6606,0.0,0.0,0.0,0.0,0.0,0.0,0.0,0.0,0.0,0.0,0.0,0.0,0.0,0.0,1.4324,1.2636,1.2318,1.2182,1.1703,0.0,0.0,0.0,0.0,0.0,0.0,0.0,0.0,0.0,0.0,0.0,0.0,0.0,0.0,1.3234,0.0,1.2268,0.0,0.0,0.0,0.0,0.0,0.0,0.0,0.0,1.7197,1.8278,1.894,1.9351,1.9548,0.0,1.8774,1.6898,0.0,0.0,0.0,0.0,0.0,0.0,0.0,0.0,1.7563,1.94,2.2545,2.4198,2.4198,2.4198,2.4198,2.4198,2.4198,2.3608,2.2347,2.095,1.9171,0.0,0.0,0.0,0.0,0.0,0.0,0.0,0.0,0.0,0.0,0.0,0.0,0.0,0.0,0.0,0.0,0.0,0.0,0.0,0.0,0.0,0.0,0.0,1.1706,0.0,0.0,0.0,0.0,0.0,0.0,0.0,0.0,0.0,1.2184,1.3644,1.4943,1.5635,1.6138,1.6494,1.668,0.0,0.0,0.0,0.0,0.0,0.0,0.0,1.6106,1.6031,1.6035,1.6084,1.6265,1.7098,1.7833,1.8102,0.0,0.0,1.5102,1.4351,1.4,1.3629,1.3853,1.4421,1.5378,1.595,1.6533,0.0,0.0,0.0,0.0,0.0,0.0,0.0,0.0,1.6629,1.6166,0.0,1.5127,0.0,0.0,0.0,0.0,0.0,1.6233,0.0,0.0,2.1313,2.2284,2.1322,2.1601,2.1765,2.1686,2.0618,2.0032,1.9839,1.741,0.0,0.0,0.0,0.0,0.0,0.0,1.8729,2.0323,2.2924,2.4244,2.4244,2.4257,2.4257,2.4244,2.4244,2.4238,2.4149,2.2889,2.1728,2.0722,1.7739,0.0,0.0,0.0,0.0,0.0,0.0,0.0,0.0,0.0,0.0,0.0,0.0,0.0,0.0,0.0,0.0,0.0,0.0,0.0,0.0,1.1468,0.0,0.0,0.0,0.0,0.0,0.0,0.0,0.0,0.0,0.0,1.3777,1.4959,1.5972,1.6309,0.0,0.0,0.0,0.0,1.7099,1.6806,1.6734,1.6647,1.6405,1.6579,1.6865,1.723,0.0,0.0,1.8642,1.9485,2.0123,2.0367,2.0658,2.011,1.77,1.6436,1.5626,1.5361,1.6108,1.6799,1.7183,1.8292,1.918,2.077,0.0,0.0,0.0,0.0,1.8428,1.9049,1.9958,2.0045,1.9695,1.8984,1.872,0.0,0.0,0.0,0.0,0.0,0.0,1.9112,2.0361,2.1812,2.2591,2.2862,2.328,2.3496,2.3475,2.3118,2.2961,2.2943,2.2498,2.0289,1.6525,0.0,0.0,0.0,0.0,2.0659,2.2218,2.4078,2.5062,2.5062,2.5062,2.5062,2.5062,2.5052,2.4933,2.4636,2.4225,2.3232,2.1535,2.0106,0.0,0.0,0.0,0.0,0.0,0.0,0.0,0.0,0.0,0.0,0.0,0.0,0.0,0.0,0.0,0.0,0.0,0.0,0.0,1.2565,1.3071,1.314,0.0,0.0,0.0,0.0,0.0,0.0,0.0,0.0,0.0,1.6082,1.6447,1.6983,0.0,0.0,1.761,1.7625,1.7549,1.751,1.762,1.7471,0.0,1.7509,1.7422,1.7721,1.887,1.9974,2.0856,2.1333,2.2064,2.2639,2.2715,2.2796,2.262,2.191,2.0443,1.936,1.9248,1.9459,1.9938,2.0753,2.1275,2.1754,2.3787,2.2285,2.096,2.0503,2.0667,2.0667,2.1196,2.2067,2.2046,2.1764,2.1272,2.1244,2.0399,1.8985,1.8363,0.0,0.0,0.0,2.0973,2.2395,2.2841,2.3302,2.3801,2.4223,2.4437,2.4446,2.459,2.4689,2.4676,2.4755,2.3363,2.0585,0.0,0.0,1.9738,2.1051,2.2246,2.3311,2.4678,2.5398,2.5398,2.5398,2.5398,2.5398,2.5398,2.5287,2.5049,2.504,2.4394,2.3042,2.2031,2.0392,0.0,0.0,0.0,0.0,0.0,0.0,0.0,0.0,0.0,0.0,0.0,1.0487,1.0584,0.0,0.0,0.0,1.3458,1.3995,1.493,1.4846,0.0,0.0,0.0,0.0,0.0,0.0,0.0,1.614,1.6941,1.779,1.8702,1.8573,1.8477,1.8758,1.8726,1.8849,1.9358,0.0,1.89,1.9542,1.9477,1.9443,1.9598,1.9582,1.9845,2.0722,2.2022,2.2877,2.2971,2.3723,2.4333,2.4373,2.4373,2.4377,2.4386,2.3432,2.2336,2.158,2.1741,2.2246,2.2877,2.3318,2.3872,2.6249,2.6002,2.3491,2.2495,2.2568,2.2554,2.2762,2.3087,2.3105,2.2876,2.2588,2.2943,2.2413,2.1234,2.0677,0.0,2.2359,2.237,2.3046,2.4303,2.4303,2.429,2.4309,2.466,2.4856,2.4874,2.5223,2.5398,2.5366,2.5058,2.4889,2.4884,2.4016,2.3024,2.21,2.2985,2.3659,2.4032,2.4997,2.5499,2.5476,2.5489,2.5489,2.5486,2.5502,2.548,2.5443,2.5443,2.526,2.4834,2.3575,2.2272,2.0883,0.0,0.0,0.0,0.0,0.0,0.0,0.0,0.0,0.0,0.0,0.0,0.0,0.0,0.0,0.0,1.7167,0.0,1.7502,1.6755,0.0,0.0,0.0,1.6627,1.7521,1.7237,1.7578,1.9148,0.0,0.0,2.1349,2.1058,2.047,1.9857,2.0137,2.07,2.1583,2.0998,2.0899,2.1882,2.2118,2.215,2.2056,2.2372,2.263,2.2764,2.3657,2.4276,2.4111,2.4773,2.5429,2.5479,2.5486,2.5491,2.5495,2.5377,2.4856,2.2908,2.3197,2.3816,2.3874,2.4585,2.5224,2.6682,2.6429,2.5578,2.5133,2.4937,2.4761,2.4715,2.4816,2.4807,2.4752,2.4669,2.477,2.4638,2.4313,2.4175,2.4306,2.4618,2.4618,2.479,2.5108,2.5104,2.5126,2.5126,2.5214,2.526,2.5269,2.5352,2.5398,2.5407,2.56,2.57,2.5723,2.5767,2.5389,2.4579,2.4776,2.5237,2.5951,2.6183,2.6311,2.6311,2.6311,2.6311,2.6298,2.6311,2.6178,2.587,2.5874,2.5664,2.5247,2.464,2.3721,2.2409,1.9779,0.0,0.0,0.0,0.0,0.0,0.0,0.0,0.0,0.0,1.2937,1.3142,0.0,1.5711,0.0,1.7416,1.8617,1.9216,1.8865,0.0,0.0,1.8827,1.8956,1.9483,1.9913,2.0479,2.1209,2.1637,2.1948,2.2224,2.3301,2.382,2.321,2.1854,2.1329,2.2374,2.243,2.2377,2.2704,2.2859,2.2893,2.33,2.4086,2.4693,2.4724,2.5456,2.5996,2.5933,2.6113,2.6325,2.632,2.6311,2.6325,2.6325,2.6311,2.6167,2.5599,2.5254,2.5001,2.4992,2.5241,2.5407,2.8088,2.7905,2.7624,2.7397,2.7181,2.5924,2.5398,2.5398,2.5398,2.5398,2.5398,2.5398,2.5398,2.5398,2.5398,2.5398,2.5398,2.5398,2.5398,2.5398,2.5398,2.5398,2.5407,2.5581,2.5668,2.5673,2.6031,2.6205,2.6224,2.66,2.6806,2.6793,2.7022,2.6912,2.6481,2.6288,2.6517,2.7109,2.7142,2.7128,2.7132,2.6953,2.6779,2.6591,2.626,2.5884,2.548,2.53,2.4994,2.4574,2.4345,2.3804,2.2931,2.0893,1.8823,0.0,0.0,0.0,0.0,0.0,0.0,0.0,0.0,0.0,0.0,0.0,1.8069,1.7825,1.9456,2.0555,2.06,2.0621,2.0779,2.1243,2.1441,2.1812,2.245,2.2433,2.2681,2.3417,2.3524,2.3647,2.4025,2.477,2.5402,2.5526,2.4272,2.3654,2.4543,2.4516,2.4452,2.4972,2.5115,2.5199,2.5449,2.6026,2.6484,2.65,2.6836,2.7128,2.7128,2.7142,2.7142,2.7132,2.7142,2.7128,2.7142,2.7142,2.7132,2.7063,2.6793,2.6371,2.5999,2.593,2.5939,2.9608,2.9584,2.9244,2.9113,2.8942,2.6745,2.5793,2.574,2.5659,2.56,2.5567,2.5541,2.5567,2.5554,2.5544,2.5581,2.5627,2.5627,2.5655,2.57,2.57,2.5723,2.5732,2.6058,2.6228,2.6265,2.694,2.7279,2.7288,2.7628,2.7798,2.7798,2.7798,2.7812,2.7858,2.7555,2.7528,2.7798,2.7798,2.7766,2.7734,2.738,2.6972,2.6522,2.5847,2.526,2.4819,2.4452,2.4076,2.3623,2.3529,2.3401,2.3135,2.1627,2.0248,0.0,1.7551,0.0,0.0,0.0,0.0,0.0,0.0,0.0,0.0,2.0328,2.0835,2.0824,2.2078,2.2629,2.2054,2.232,2.2828,2.3562,2.3964,2.4528,2.5303,2.4588,2.4413,2.5517,2.5058,2.5073,2.6018,2.5923,2.6148,2.6934,2.6635,2.6392,2.7083,2.6626,2.6502,2.7679,2.7863,2.7544,2.7643,2.7776,2.7819,2.7833,2.7756,2.7807,2.7762,2.7771,2.778,2.778,2.7729,2.7762,2.7798,2.778,2.778,2.7743,2.7697,2.7463,2.6926,2.6752,2.6761,2.9608,2.9584,2.9244,2.9113,2.9023,2.8373,2.7921,2.7633,2.7087,2.6683,2.6375,2.6375,2.6375,2.6366,2.6375,2.6541,2.6857,2.6866,2.7031,2.7343,2.7357,2.7343,2.7357,2.7417,2.7468,2.7463,2.76,2.7683,2.7674,2.7742,2.7798,2.7798,2.7798,2.7958,2.828,0.0,0.0,0.0,2.7798,2.7637,2.732,2.7229,2.6857,2.6154,2.5971,0.0,2.4843,2.4702,2.4511,2.4085,2.3709,0.0,0.0,0.0,0.0,0.0,0.0,0.0,0.0,0.0,0.0,0.0,2.1594,2.135,1.9991,2.0524,2.1579,2.3001,2.3231,2.3672,2.459,2.4737,2.4854,2.4991,2.5099,2.533,2.582,2.568,2.5904,2.6738,2.6714,2.6836,2.7287,2.7379,2.7418,2.7645,2.7831,2.8006,2.8116,2.7738,2.756,2.7797,2.8105,2.8274,2.8284,2.8284,2.8284,2.8256,2.7981,2.7853,2.7853,2.7844,2.7817,2.7835,2.7798,2.7826,2.7826,2.7798,2.7853,2.7807,2.7817,2.7771,2.7615,2.7564,2.7573,3.0229,0.0,3.0053,2.9982,0.0,2.9671,2.9446,2.9221,2.8328,2.773,2.7401,2.7387,2.7317,2.7206,2.7183,2.7316,2.749,2.75,2.761,2.7798,2.7798,2.7798,2.7798,2.7798,2.7798,2.7817,2.8004,2.8105,2.8115,2.8457,2.8637,2.8637,2.8651,2.8733,2.8952,2.9074,2.9045,2.884,2.8695,2.8607,2.8527,2.8341,2.794,2.7347,2.6788,0.0,0.0,0.0,0.0,0.0,0.0,0.0,0.0,2.3709,0.0,2.3095,2.2527,2.2235,2.237,2.2579,2.2915,2.3483,2.3909,2.357,2.2224,2.2772,2.3567,2.4481,2.4468,2.4653,2.5317,2.5585,2.5682,2.5714,2.6049,2.6393,2.6563,2.677,2.7054,2.7389,2.7485,2.7596,2.7775,2.7972,2.8096,2.8124,2.844,2.8687,2.8673,2.8522,2.8399,2.8399,2.8546,2.8696,2.8682,2.8691,2.8682,2.8654,2.8522,2.8403,2.8399,2.8399,2.8385,2.8399,2.8399,2.8399,2.8399,2.839,2.839,2.839,2.8399,2.8399,2.8372,2.8101,2.7807,3.0996,3.0996,3.0918,3.0913,3.0859,3.0621,3.048,3.0392,0.0,0.0,0.0,2.82,2.8058,2.7807,2.7798,2.7873,2.7975,2.7932,2.7969,2.809,2.8047,2.8014,2.8004,2.799,2.8042,2.8132,2.8426,2.863,2.8683,2.9223,2.9529,2.9568,2.9529,2.9544,2.9642,2.9597,2.973,3.0039,2.9745,2.9604,2.9705,2.9385,2.8955,2.8451,2.7565,2.6855,2.6349,2.5844,2.5354,2.4939,2.4911,2.4841,2.4639,2.456,2.4415,2.417,2.4078,2.4213,2.4593,2.4621,2.4906,2.5572,2.5609,2.5329,2.4639,2.5089,2.5434,2.5489,2.5486,2.5567,2.57,2.6003,2.6233,2.632,2.6917,2.7307,2.7325,2.7582,2.7789,2.7876,2.7889,2.794,2.8041,2.8311,2.8498,2.855,2.877,2.8999,2.8999,2.8953,2.8917,2.8926,2.8926,2.8981,2.899,2.8972,2.8999,2.8962,2.8972,2.8999,2.8999,2.8999,2.8999,2.8926,2.8999,2.8972,2.8981,2.8935,2.8999,2.8999,2.8999,2.8999,2.8944,2.8476,2.8069,3.1421,3.1391,3.105,3.0913,3.0889,3.0859,3.083,3.0738,2.9675,2.8837,2.82,2.82,2.8049,2.7798,2.7798,2.812,2.864,2.8427,2.8655,2.9243,2.8949,2.8825,2.8825,2.8825,2.8987,2.9258,2.9323,2.9469,2.9655,2.9569,2.9618,2.9804,2.9627,2.9765,3.0206,2.9981,3.0152,3.0728,3.0152,2.9551,2.8971,2.8897,2.8395,2.7465,2.7526,2.7052,2.6092,2.621,2.5978,2.5346,2.5315,2.56,2.6201,2.5921,2.6026,2.6596,2.6344,2.6201,2.6256,2.6256,2.6325,2.6412,2.6417,2.6096,2.5359,2.5335,2.5548,2.587,2.5952,2.6205,2.6839,2.6963,2.7123,2.7444,2.7633,2.7725,2.7711,2.7793,2.7977,2.8274,2.832,2.8434,2.872,2.8843,2.888,2.8907,2.8929,2.8999,2.8999,2.8999,2.8999,2.8999,2.8999,2.8999,2.8999,2.8999,2.8999,2.8999,2.8999,2.8999,2.8999,2.8999,2.8999,2.8999,2.8999,2.8999,2.8999,2.8999,2.8999,2.8999,2.8999,2.8999,2.8999,2.8828,2.8779,3.1875,3.1861,3.1685,3.1612,3.1587,3.1328,3.123,3.1152,3.0471,2.9882,2.9435,2.9387,2.9214,2.8948,2.8803,2.8882,2.9161,2.8856,2.9008,2.947,2.9346,2.9331,2.9464,2.9494,2.9568,2.9715,2.973,2.9774,2.9878,2.9942,3.0045,3.0157,3.0054,3.0039,3.0128,3.0157,3.0328,3.0606,3.0318,3.0105,2.9938,2.9938,2.9713,2.9217,2.8984,2.8719,2.8399,2.8014,2.7641,2.7262,2.7101,2.7091,2.7229,2.7082,2.7146,2.749,2.7353,2.7261,2.7261,2.7247,2.7261,2.7247,2.7252,2.7105,2.6742,2.6499,2.6545,2.6926,2.6981,2.7105,2.749,2.7541,2.76,2.7789,2.7986,2.8133,2.816,2.8329,2.8537,2.8696,2.8733,2.8797,2.8972,2.8999,2.8999,2.8999,2.8999,2.8999,2.8999,2.8999,2.8999,2.8999,2.8999,2.8999,2.8999,2.8999,2.8999,2.8999,2.8999,2.8999,2.8999,2.8999,2.8999,2.8999,2.8999,2.8999,2.8999,2.8999,2.8999,2.8999,2.8999,2.8999,2.8999,2.8999,2.8999,3.2345,3.233,3.2237,3.2198,3.2154,3.1807,3.166,3.1631,3.1318,3.1054,3.0809,3.0537,3.023,2.9887,2.9677,2.9642,2.9656,2.9361,2.939,2.9671,2.9618,2.9715,2.9878,2.9907,2.9984,3.0134,3.0153,3.023,3.0419,3.0606,3.0695,3.0719,3.0769,3.068,3.0414,3.068,3.0813,3.0813,3.0813,3.08,3.0786,3.0777,3.0747,3.0631,3.0255,3.0084,3.0157,2.9553,2.9094,2.8856,2.8648,2.8385,2.8111,2.7986,2.794,2.7931,2.7848,2.7798,2.7798,2.7798,2.7798,2.7798,2.7798,2.7839,2.7903,2.767,2.754,2.7771,2.7752,2.7802,2.7913,2.7926,2.7968,2.8069,2.8353,2.8517,2.8568,2.883,2.8999,2.8999,2.8999,2.899,2.8999,2.8999,2.8999,2.8999,2.8999,2.8999,2.8999,2.8999,2.8999,2.8999,2.8999,2.8999,2.8999,2.8999,2.8999,2.8999,2.8999,2.8999,2.8999,2.8999,2.8999,2.8999,2.8999,2.8999,2.8999,2.8999,2.8999,2.8999,2.8999,2.8999,2.8999,2.8999,2.8999,3.2744,3.2691,3.2369,3.2198,3.2228,3.2144,3.2124,3.2115,3.2081,3.2066,3.1879,3.0901,3.025,2.9936,2.9906,3.0063,3.0288,2.9975,3.0009,3.0274,3.0005,2.9887,2.9984,2.995,3.0244,3.0822,3.0905,3.1247,3.1817,3.1654,3.1576,3.1626,3.1884,3.1966,3.1946,3.1976,3.2016,3.2026,3.2041,3.1525,3.0498,3.0436,3.0289,2.999,3.0245,3.0089,2.9715,2.973,2.9558,2.9048,2.8955,2.8917,2.8843,2.855,2.8348,2.8324,2.8023,2.7798,2.7817,2.7798,2.7844,2.7798,2.7844,2.7981,2.8287,2.8297,2.8151,2.794,2.7835,2.8004,2.8302,2.8333,2.8467,2.8733,2.8862,2.8944,2.8926,2.8972,2.8999,2.8999,2.8999,2.8999,2.8999,2.8999,2.8999,2.8999,2.8999,2.8999,2.8999,2.8999,2.8999,2.8999,2.8999,2.8999,2.8999,2.8999,2.8999,2.8999,2.8999,2.8999,2.8999,2.8999,2.8999,2.8999,2.8999,2.8999,2.8999,2.8999,2.8999,2.8999,2.8999,2.8999,2.8999,2.8999,2.8999,3.3148,3.3139,3.2994,3.291,3.2881,3.2656,3.2554,3.2525,3.2311,3.2198,3.2144,3.1667,3.1376,3.1251,3.1056,3.1056,3.1136,3.0826,3.0841,3.1146,3.1026,3.1056,3.1251,3.1272,3.1428,3.1694,3.1704,3.1877,3.2123,3.2061,3.1985,3.2001,3.2137,3.2198,3.2198,3.2198,3.2198,3.2198,3.2198,3.1962,3.1545,3.1457,3.1265,3.0894,3.0787,3.0632,3.0313,2.9922,2.9627,2.9524,2.939,2.9222,2.8999,2.9026,2.8958,2.8766,2.8596,2.8495,2.8495,2.8504,2.8504,2.8504,2.8518,2.8592,2.8733,2.8746,2.8684,2.8555,2.8518,2.8586,2.8724,2.8751,2.884,2.8972,2.8999,2.8999,2.8999,2.8999,2.8999,2.8999,2.8999,2.9008,2.8999,2.8999,2.8999,2.8999,2.9008,2.9036,2.9008,2.8999,2.8999,2.8999,2.8999,2.8999,2.8999,2.8999,2.8999,2.8999,2.8999,2.8999,2.8999,2.8999,2.8999,2.8999,2.8999,2.8999,2.8999,2.8999,2.8999,2.8999,2.8999,2.8999,2.8999,2.8999,2.8999,3.3509,3.3412,3.3386,3.3386,3.3357,3.308,3.2969,3.2945,3.2652,3.2535,3.2525,3.2525,3.254,3.2465,3.2041,3.1848,3.1803,3.1579,3.1594,3.1818,3.1833,3.1955,3.2183,3.2198,3.2257,3.2349,3.2349,3.2418,3.2515,3.2525,3.2525,3.2525,3.2525,3.2525,3.254,3.2525,3.254,3.255,3.2525,3.2535,3.2525,3.2525,3.2246,3.1728,3.146,3.1207,3.0927,3.027,2.9849,2.9784,2.9671,2.9464,2.9177,2.9376,2.939,2.9183,2.9198,2.9222,2.9148,2.9148,2.9094,2.9014,2.8999,2.8999,2.8999,2.8999,2.8999,2.8972,2.8999,2.8972,2.8999,2.8999,2.8999,2.8999,2.8999,2.8999,2.8999,2.8999,2.8999,2.8999,2.9109,2.9219,2.9311,2.9366,2.9394,2.9394,2.9366,2.9329,2.9329,2.9357,2.9366,2.9339,2.9348,2.9238,2.9063,2.8999,2.8999,2.8999,2.8999,2.8999,2.8999,2.8999,2.8999,2.8999,2.8999,2.8999,2.8999,2.8999,2.8999,2.8999,2.8999,2.8999,2.8999,2.8999,2.8999,3.3799,3.3425,3.3422,3.3416,3.3386,3.3373,3.3363,3.3334,3.3314,3.3324,3.3285,3.3279,3.3334,3.3246,3.2538,3.2197,3.2197,3.2175,3.217,3.2216,3.2211,3.2203,3.2198,3.2198,3.2408,3.276,3.2773,3.2949,3.3265,3.3314,3.3353,3.3299,3.3275,3.3299,3.3275,3.3256,3.3308,3.3256,3.3256,3.3304,3.3304,3.3314,3.2924,3.2271,3.2154,3.1788,3.1135,3.0963,3.0532,2.9596,2.9801,2.9783,2.9533,2.9494,2.9499,2.9494,2.9686,2.9715,2.9479,2.942,2.9316,2.9059,2.8999,2.8999,2.8999,2.9036,2.9054,2.9018,2.9082,2.9091,2.9112,2.9106,2.9054,2.9045,2.9036,2.9063,2.9036,2.9113,2.9018,2.9109,2.9375,2.9669,3.0048,3.0149,3.0082,3.0073,3.0118,3.0075,3.002,3.0075,3.0057,3.0048,3.0027,2.9874,2.9195,2.9192,2.9131,2.9149,2.925,2.9073,2.9018,2.8999,2.9018,2.9008,2.8999,2.8999,2.8999,2.8999,2.8999,2.8999,2.8999,2.8999,2.8999,2.8999,2.8999,3.4385,3.4193,3.3961,3.3854,3.3824,3.3529,3.3386,3.3386,3.3386,3.3386,3.3386,3.3386,3.3386,3.3377,3.309,3.2953,3.2978,3.2978,3.2969,3.2969,3.2969,3.2969,3.2978,3.2978,3.3037,3.3148,3.3168,3.3271,3.3357,3.3386,3.3386,3.3386,3.3386,3.3386,3.3386,3.3386,3.3386,3.3386,3.3386,3.3386,3.3386,3.3386,3.3246,3.2988,3.272,3.2327,3.1798,3.1561,3.1257,3.0927,3.0817,3.0573,3.0234,2.9925,2.9671,2.9529,2.9597,2.9509,2.9252,2.9192,2.9148,2.9029,2.8999,2.9042,2.9045,2.9234,2.939,2.9427,2.9641,2.9837,2.9943,2.9677,2.939,2.9427,2.9614,2.9742,2.9779,2.9764,2.9764,2.9782,2.9901,3.0048,3.0201,3.0219,3.0219,3.0219,3.0219,3.0247,3.0213,3.0204,3.0265,3.0228,3.0195,3.0112,2.9868,2.9782,2.9773,2.9773,2.9773,2.9614,2.9513,2.9403,2.9403,2.921,2.9137,2.9146,2.9192,2.9183,2.9146,2.9118,2.9109,2.9159,2.8999,2.9164,2.9128,3.4697,3.4648,3.4411,3.431,3.4245,3.3793,3.3633,3.3603,3.347,3.3386,3.3386,3.3386,3.3386,3.3386,3.3386,3.3386,3.3386,3.3377,3.3386,3.3386,3.3386,3.3386,3.3386,3.3386,3.3386,3.3377,3.3386,3.3386,3.3386,3.3386,3.3386,3.3386,3.3386,3.3386,3.3386,3.3386,3.3386,3.3386,3.3386,3.3386,3.3386,3.3386,3.3386,3.3347,3.3144,3.2803,3.2408,3.2174,3.1922,3.1725,3.1594,3.1354,3.0976,3.0769,3.0463,3.0101,3.0269,3.012,2.967,2.9745,2.9809,2.9589,2.967,2.9706,2.9734,2.9966,3.0086,3.0179,3.0331,3.0634,3.0738,3.0515,3.0263,3.0133,3.0168,3.0241,3.0343,3.0272,3.025,3.0332,3.0378,3.0442,3.0568,3.0589,3.0607,3.0595,3.058,3.058,3.058,3.058,3.0595,3.0589,3.0641,3.066,3.0586,3.0577,3.0241,3.0185,3.0133,3.003,2.9944,2.9834,2.9696,2.9467,2.9375,2.9384,2.9394,2.9375,2.9366,2.9357,2.9479,2.9608,2.9522,2.9458,2.9467,3.4736,3.4775,3.4707,3.4707,3.4665,3.4264,3.4098,3.403,3.3672,3.3529,3.35,3.3441,3.3461,3.3402,3.3386,3.3386,3.3386,3.3386,3.3386,3.3386,3.3386,3.3386,3.3386,3.3386,3.3386,3.3386,3.3386,3.3386,3.3386,3.3386,3.3386,3.3386,3.3386,3.3386,3.3386,3.3386,3.3386,3.3386,3.3386,3.3386,3.3386,3.3386,3.3386,3.3386,3.3347,3.3178,3.2812,3.2787,3.2492,3.1932,3.2058,3.2039,3.1761,3.1862,3.1821,3.1297,3.172,3.1577,3.087,3.1132,3.107,3.0733,3.0937,3.0953,3.0894,3.1029,3.1101,3.1095,3.1176,3.1257,3.1348,3.15,3.1482,3.1195,3.072,3.0528,3.0637,3.0442,3.0375,3.0715,3.0806,3.0981,3.1247,3.1265,3.1219,3.1228,3.1247,3.1238,3.1217,3.1192,3.1336,3.1336,3.1192,3.1091,3.1254,3.1336,3.0861,3.0488,3.0433,3.0351,3.0302,3.0201,3.0118,2.991,2.9843,2.9852,2.9834,2.9834,2.9898,2.9926,3.002,3.0002,2.9935,2.9862,2.9972,3.5589,3.555,3.5293,3.5185,3.5117,3.4697,3.4518,3.4492,3.4346,3.4141,3.3922,3.3893,3.3701,3.3451,3.3386,3.3386,3.3386,3.3386,3.3386,3.3386,3.3386,3.3386,3.3386,3.3386,3.3386,3.3386,3.3386,3.3386,3.3386,3.3386,3.3386,3.3386,3.3386,3.3386,3.3386,3.3386,3.3386,3.3386,3.3386,3.3386,3.3386,3.3386,3.3386,3.3386,3.3386,3.3324,3.3217,3.3207,3.3086,3.283,3.274,3.2521,3.2225,3.2156,3.1995,3.1625,3.1726,3.1665,3.1187,3.1252,3.1348,3.112,3.1166,3.1178,3.124,3.1483,3.1641,3.1663,3.185,3.2103,3.232,3.2254,3.2068,3.1667,3.1461,3.1348,3.139,3.1196,3.1104,3.1173,3.121,3.129,3.1364,3.141,3.141,3.141,3.141,3.141,3.141,3.141,3.141,3.141,3.141,3.141,3.141,3.141,3.1164,3.0907,3.0843,3.0742,3.066,3.0605,3.0513,3.0424,3.0357,3.032,3.0302,3.0311,3.0375,3.0311,3.025,3.0222,3.0219,3.0293,3.0412,3.6008,3.5969,3.5732,3.5625,3.5576,3.5146,3.4961,3.4922,3.4766,3.4541,3.4362,3.4323,3.417,3.388,3.374,3.3662,3.3643,3.349,3.3386,3.3386,3.3386,3.3386,3.3386,3.3386,3.3386,3.3386,3.3386,3.3386,3.3386,3.3386,3.3386,3.3386,3.3386,3.3386,3.3386,3.3386,3.3386,3.3386,3.3386,3.3386,3.3386,3.3386,3.3386,3.3386,3.3386,3.3386,3.3386,3.3386,3.3386,3.3355,3.3191,3.2966,3.273,3.2675,3.2498,3.2245,3.2245,3.2167,3.1751,3.1929,3.1952,3.1875,3.1937,3.2024,3.2062,3.2292,3.2388,3.244,3.2612,3.2858,3.3007,3.2912,3.266,3.242,3.2175,3.2045,3.191,3.1717,3.1513,3.144,3.1391,3.141,3.141,3.141,3.141,3.141,3.141,3.141,3.141,3.141,3.141,3.141,3.141,3.141,3.141,3.141,3.141,3.1336,3.129,3.1171,3.107,3.1027,3.0972,3.0917,3.0843,3.0871,3.0852,3.0806,3.0816,3.0653,3.0571,3.0724,3.0816,3.0779,3.0852,3.6008,3.6008,3.6008,3.5979,3.593,3.5559,3.542,3.5378,3.5029,3.4814,3.4772,3.4746,3.4687,3.458,3.4238,3.4111,3.4069,3.3763,3.3607,3.3588,3.3552,3.3549,3.3406,3.3386,3.3386,3.3386,3.3386,3.3386,3.3386,3.3386,3.3386,3.3386,3.3386,3.3386,3.3386,3.3386,3.3386,3.3386,3.3386,3.3386,3.3386,3.3386,3.3386,3.3386,3.3386,3.3386,3.3386,3.3386,3.3386,3.3386,3.3371,3.3319,3.3351,3.3386,3.3172,3.2885,3.3209,3.2961,3.2708,3.284,3.3096,3.2856,3.3014,3.3377,3.3185,3.3134,3.3172,3.3198,3.3272,3.3349,3.3355,3.3323,3.3288,3.3282,3.2759,3.2326,3.1999,3.1919,3.1733,3.1515,3.1426,3.141,3.141,3.141,3.141,3.141,3.141,3.141,3.141,3.141,3.141,3.141,3.141,3.141,3.141,3.141,3.141,3.141,3.141,3.1364,3.1309,3.13,3.13,3.1247,3.1228,3.1309,3.1318,3.1173,3.1155,3.1109,3.1164,3.1373,3.1336,3.1192,3.1137,3.6008,3.6008,3.6008,3.6008,3.5989,3.5889,3.585,3.5833,3.5706,3.5449,3.5264,3.5231,3.5029,3.4717,3.4626,3.4547,3.4492,3.4394,3.4365,3.4355,3.4349,3.3958,3.3494,3.3386,3.3386,3.3386,3.3386,3.3386,3.3386,3.3386,3.3386,3.3386,3.3386,3.3386,3.3386,3.3386,3.3386,3.3386,3.3386,3.3386,3.3386,3.3386,3.3386,3.3386,3.3386,3.3386,3.3386,3.3386,3.3386,3.3386,3.3386,3.3386,3.3386,3.3386,3.3339,3.3292,3.3307,3.3339,3.3197,3.3276,3.3333,3.3292,3.3323,3.3386,3.3386,3.3386,3.3386,3.3386,3.3386,3.3386,3.3386,3.3386,3.3386,3.3339,3.3,3.2635,3.2326,3.2047,3.1855,3.1775,3.1564,3.1442,3.1442,3.141,3.141,3.141,3.141,3.141,3.141,3.141,3.141,3.141,3.141,3.141,3.141,3.141,3.141,3.141,3.141,3.1401,3.1373,3.1373,3.1373,3.1373,3.132,3.1373,3.1382,3.1336,3.1401,3.141,3.141,3.141,3.141,3.1327,3.1302,3.6008,3.6008,3.6008,3.6008,3.6008,3.6008,3.6008,3.6008,3.6008,3.5898,3.5684,3.5654,3.5491,3.5254,3.5078,3.499,3.4971,3.4785,3.4687,3.4687,3.4668,3.4307,3.3773,3.3529,3.3386,3.3386,3.3386,3.3386,3.3386,3.3386,3.3386,3.3386,3.3386,3.3386,3.3386,3.3386,3.3386,3.3386,3.3386,3.3386,3.3386,3.3386,3.3386,3.3386,3.3386,3.3386,3.3386,3.3386,3.3386,3.3386,3.3386,3.3386,3.3386,3.3386,3.3386,3.3386,3.3386,3.3386,3.3386,3.3386,3.3386,3.3386,3.3386,3.3386,3.3386,3.3386,3.3386,3.3386,3.3386,3.3386,3.3386,3.3386,3.3386,3.3371,3.3222,3.2969,3.2635,3.2469,3.2278,3.2102,3.1836,3.1596,3.1596,3.1499,3.1426,3.141,3.141,3.141,3.141,3.141,3.141,3.141,3.141,3.141,3.141,3.141,3.141,3.141,3.141,3.141,3.141,3.141,3.141,3.141,3.141,3.141,3.141,3.141,3.141,3.141,3.141,3.141,3.141,3.141,3.141,3.6008,3.6008,3.6008,3.6008,3.6008,3.6008,3.6008,3.6008,3.6008,3.5999,3.5969,3.5999,3.592,3.5979,3.5559,3.5449,3.5439,3.5127,3.4961,3.4922,3.4853,3.46,3.4297,3.3861,3.3689,3.3646,3.3513,3.35,3.3509,3.347,3.3386,3.3386,3.3386,3.3386,3.3386,3.3386,3.3386,3.3386,3.3386,3.3386,3.3386,3.3386,3.3386,3.3386,3.3386,3.3386,3.3386,3.3386,3.3386,3.3386,3.3386,3.3386,3.3386,3.3386,3.3386,3.3386,3.3386,3.3386,3.3386,3.3386,3.3386,3.3386,3.3386,3.3386,3.3386,3.3386,3.3386,3.3386,3.3386,3.3386,3.3386,3.3386,3.3386,3.3386,3.3371,3.3228,3.3048,3.2937,3.2778,3.2476,3.2159,3.1983,3.1862,3.1692,3.1474,3.158,3.1515,3.141,3.141,3.141,3.141,3.141,3.141,3.141,3.141,3.141,3.141,3.141,3.141,3.141,3.141,3.141,3.141,3.141,3.141,3.141,3.141,3.141,3.141,3.141,3.141,3.141,3.141,3.141,3.141,3.6008,3.6008,3.6008,3.6008,3.6008,3.6008,3.6008,3.6008,3.6008,3.6008,3.6008,3.6008,3.6008,3.5989,3.5891,3.5872,3.5833,3.5696,3.5725,3.5676,3.5371,3.5234,3.5,3.46,3.4398,3.4287,3.4059,3.3932,3.3848,3.3539,3.3386,3.3386,3.3386,3.3386,3.3386,3.3386,3.3386,3.3386,3.3386,3.3386,3.3386,3.3386,3.3386,3.3386,3.3386,3.3386,3.3386,3.3386,3.3386,3.3386,3.3386,3.3386,3.3386,3.3386,3.3386,3.3386,3.3386,3.3386,3.3386,3.3386,3.3386,3.3386,3.3386,3.3386,3.3386,3.3386,3.3386,3.3386,3.3386,3.3386,3.3386,3.3386,3.3386,3.3386,3.3386,3.3371,3.326,3.3064,3.2899,3.2762,3.2517,3.2294,3.2268,3.199,3.183,3.1782,3.1644,3.1458,3.1458,3.1506,3.1538,3.1619,3.1506,3.1531,3.1506,3.1474,3.141,3.141,3.141,3.141,3.141,3.141,3.141,3.141,3.141,3.141,3.141,3.141,3.141,3.141,3.141,3.141,3.141,3.141,3.141,3.6008,3.6008,3.6008,3.6008,3.6008,3.6008,3.6008,3.6008,3.6008,3.6008,3.6008,3.6008,3.6008,3.6008,3.6008,3.6008,3.6008,3.6008,3.5999,3.594,3.5752,3.5603,3.5397,3.5117,3.4863,3.4479,3.4212,3.401,3.3766,3.3564,3.3386,3.3386,3.3386,3.3386,3.3386,3.3386,3.3386,3.3386,3.3386,3.3386,3.3386,3.3386,3.3386,3.3386,3.3386,3.3386,3.3386,3.3386,3.3386,3.3386,3.3386,3.3386,3.3386,3.3386,3.3386,3.3386,3.3386,3.3386,3.3386,3.3386,3.3386,3.3386,3.3386,3.3386,3.3386,3.3386,3.3386,3.3386,3.3386,3.3386,3.3386,3.3386,3.3386,3.3386,3.3386,3.3386,3.3371,3.3228,3.3127,3.3064,3.2842,3.2692,3.2549,3.231,3.2191,3.2118,3.2102,3.1949,3.1981,3.1997,3.1965,3.1949,3.1756,3.166,3.1628,3.1564,3.141,3.141,3.141,3.141,3.141,3.141,3.141,3.141,3.141,3.141,3.141,3.141,3.141,3.141,3.141,3.141,3.141,3.141,3.141,3.6008,3.6008,3.6008,3.6008,3.6008,3.6008,3.6008,3.6008,3.6008,3.6008,3.6008,3.6008,3.6008,3.6008,3.6008,3.6008,3.5989,3.5881,3.5842,3.584,3.5664,3.5466,3.5261,3.5107,3.4821,3.4147,3.4104,3.3893,3.3662,3.3431,3.3386,3.3386,3.3386,3.3386,3.3386,3.3386,3.3386,3.3386,3.3386,3.3386,3.3386,3.3386,3.3386,3.3386,3.3386,3.3386,3.3386,3.3386,3.3386,3.3386,3.3386,3.3386,3.3386,3.3386,3.3386,3.3386,3.3386,3.3386,3.3386,3.3386,3.3386,3.3386,3.3386,3.3386,3.3386,3.3386,3.3386,3.3386,3.3386,3.3386,3.3386,3.3386,3.3386,3.3386,3.3386,3.3386,3.3386,3.3386,3.3355,3.3333,3.3143,3.3,3.2874,3.2692,3.2581,3.2469,3.2453,3.2438,3.2438,3.2406,3.2326,3.2246,3.2054,3.199,3.1958,3.1612,3.1474,3.1506,3.149,3.1426,3.141,3.141,3.141,3.141,3.141,3.141,3.141,3.141,3.141,3.141,3.141,3.141,3.141,3.141,3.141,3.6008,3.6008,3.6008,3.6008,3.6008,3.6008,3.6008,3.6008,3.6008,3.6008,3.6008,3.6008,3.6008,3.5989,3.5999,3.5999,3.5859,3.5635,3.5471,3.543,3.5205,3.4948,3.4853,3.4805,3.4528,3.4215,3.4049,3.3951,3.3824,3.3607,3.3406,3.3386,3.3386,3.3386,3.3386,3.3386,3.3386,3.3386,3.3386,3.3386,3.3386,3.3386,3.3386,3.3386,3.3386,3.3386,3.3386,3.3386,3.3386,3.3386,3.3386,3.3386,3.3386,3.3386,3.3386,3.3386,3.3386,3.3386,3.3386,3.3386,3.3386,3.3386,3.3386,3.3386,3.3386,3.3386,3.3386,3.3386,3.3386,3.3386,3.3386,3.3386,3.3386,3.3386,3.3386,3.3386,3.3386,3.3386,3.3386,3.3371,3.3307,3.327,3.3127,3.3,3.2899,3.2788,3.2724,3.2651,3.2619,3.2581,3.2485,3.2422,3.2342,3.2326,3.2326,3.1836,3.1548,3.166,3.1628,3.1458,3.1442,3.141,3.141,3.141,3.141,3.141,3.141,3.141,3.141,3.141,3.141,3.141,3.141,3.141,3.141,3.6008,3.6008,3.6008,3.6008,3.6008,3.6008,3.6008,3.6008,3.6008,3.6008,3.6008,3.5999,3.5872,3.5752,3.5693,3.5569,3.5322,3.5156,3.5029,3.4961,3.4805,3.456,3.442,3.4391,3.4111,3.3838,3.374,3.375,3.3721,3.3519,3.3386,3.3386,3.3386,3.3386,3.3386,3.3386,3.3386,3.3386,3.3386,3.3386,3.3386,3.3386,3.3386,3.3386,3.3386,3.3386,3.3386,3.3386,3.3386,3.3386,3.3386,3.3386,3.3386,3.3386,3.3386,3.3386,3.3386,3.3386,3.3386,3.3386,3.3386,3.3386,3.3386,3.3386,3.3386,3.3386,3.3386,3.3386,3.3386,3.3386,3.3386,3.3386,3.3386,3.3386,3.3386,3.3386,3.3386,3.3386,3.3386,3.3386,3.3355,3.3339,3.3364,3.3254,3.3191,3.3096,3.3,3.2921,3.2842,3.2826,3.2778,3.2746,3.2699,3.2556,3.2533,3.2166,3.182,3.1894,3.1782,3.1612,3.1474,3.1442,3.1426,3.141,3.141,3.1458,3.141,3.141,3.141,3.141,3.141,3.141,3.141,3.141,3.141,3.6008,3.6008,3.6008,3.6008,3.6008,3.6008,3.594,3.5891,3.5862,3.5784,3.5745,3.5696,3.5527,3.5322,3.5215,3.5059,3.4687,3.4648,3.457,3.4557,3.4404,3.4209,3.4033,3.3906,3.3763,3.3539,3.347,3.3386,3.3451,3.3406,3.3386,3.3386,3.3386,3.3386,3.3386,3.3386,3.3386,3.3386,3.3386,3.3386,3.3386,3.3386,3.3386,3.3386,3.3386,3.3386,3.3386,3.3386,3.3386,3.3386,3.3386,3.3386,3.3386,3.3386,3.3386,3.3386,3.3386,3.3386,3.3386,3.3386,3.3386,3.3386,3.3386,3.3386,3.3386,3.3386,3.3386,3.3386,3.3386,3.3386,3.3386,3.3386,3.3386,3.3386,3.3386,3.3386,3.3386,3.3386,3.3386,3.3386,3.3386,3.3386,3.3396,3.338,3.3276,3.3276,3.3181,3.3197,3.3149,3.3197,3.3165,3.3175,3.308,3.2842,3.2699,3.2511,3.2294,3.2294,3.2038,3.175,3.1596,3.1474,3.1474,3.1506,3.1564,3.1596,3.1506,3.141,3.141,3.141,3.141,3.141,3.141,3.141,3.141,3.6008,3.6008,3.5999,3.6008,3.5989,3.5959,3.5764,3.5495,3.5469,3.5215,3.4971,3.4892,3.4892,3.4785,3.4746,3.4717,3.457,3.4313,3.4157,3.4118,3.3848,3.3666,3.3519,3.349,3.3529,3.3386,3.3386,3.3386,3.3386,3.3386,3.3386,3.3386,3.3386,3.3386,3.3386,3.3386,3.3386,3.3386,3.3386,3.3386,3.3386,3.3386,3.3386,3.3386,3.3386,3.3386,3.3386,3.3386,3.3386,3.3386,3.3386,3.3386,3.3386,3.3386,3.3386,3.3386,3.3386,3.3386,3.3386,3.3386,3.3386,3.3386,3.3386,3.3386,3.3386,3.3386,3.3386,3.3386,3.3386,3.3386,3.3386,3.3386,3.3386,3.3386,3.3386,3.3386,3.3386,3.3386,3.3386,3.3386,3.3386,3.3386,3.3386,3.3386,3.3386,3.3386,3.3386,3.3386,3.3386,3.3386,3.3386,3.3339,3.3276,3.307,3.3,3.2804,3.2661,3.2645,3.2358,3.1974,3.1782,3.166,3.166,3.1692,3.1766,3.1756,3.1708,3.1603,3.1474,3.149,3.1596,3.1522,3.141,3.141,3.141,3.6445,3.5979,3.5762,3.5647,3.5608,3.54,3.5176,3.5029,3.5,3.4892,3.4726,3.4697,3.4596,3.4492,3.4111,3.3949,3.3935,3.3809,3.3701,3.3721,3.35,3.3386,3.3396,3.3386,3.3386,3.3386,3.3386,3.3386,3.3386,3.3386,3.3386,3.3386,3.3386,3.3386,3.3386,3.3386,3.3386,3.3386,3.3386,3.3386,3.3386,3.3386,3.3386,3.3386,3.3386,3.3386,3.3386,3.3386,3.3386,3.3386,3.3386,3.3386,3.3386,3.3386,3.3386,3.3386,3.3386,3.3386,3.3386,3.3386,3.3386,3.3386,3.3386,3.3386,3.3386,3.3386,3.3386,3.3386,3.3386,3.3386,3.3386,3.3386,3.3386,3.3386,3.3386,3.3386,3.3386,3.3386,3.3386,3.3386,3.3386,3.3386,3.3386,3.3386,3.3386,3.3386,3.3386,3.3386,3.3386,3.3386,3.3386,3.3386,3.3323,3.3244,3.3244,3.3159,3.2953,3.2889,3.2778,3.2406,3.2022,3.1894,3.1926,3.1974,3.2029,3.2013,3.1933,3.1933,3.1933,3.1869,3.183,3.1724,3.1612,3.1426,3.1426,3.7227,3.6586,3.5971,3.5736,3.5699,3.5343,3.5385,3.5523,3.5588,3.5485,3.5351,3.5403,3.5237,3.4789,3.44,3.4143,3.3957,3.356,3.3418,3.3386,3.3386,3.3386,3.3386,3.3386,3.3386,3.3386,3.3386,3.3386,3.3386,3.3386,3.3386,3.3386,3.3386,3.3386,3.3386,3.3386,3.3386,3.3386,3.3386,3.3386,3.3386,3.3386,3.3386,3.3386,3.3386,3.3386,3.3386,3.3386,3.3386,3.3386,3.3386,3.3386,3.3386,3.3386,3.3386,3.3386,3.3386,3.3386,3.3386,3.3386,3.3386,3.3386,3.3386,3.3386,3.3386,3.3386,3.3386,3.3386,3.3386,3.3386,3.3386,3.3386,3.3386,3.3386,3.3386,3.3386,3.3386,3.3386,3.3386,3.3386,3.3386,3.3386,3.3386,3.3386,3.3386,3.3386,3.3386,3.3386,3.3386,3.3386,3.3386,3.3386,3.3371,3.3323,3.3339,3.3323,3.3191,3.3111,3.3,3.2794,3.2412,3.2246,3.2262,3.231,3.2348,3.2508,3.2578,3.2492,3.239,3.223,3.2086,3.1974,3.1846,3.1596,3.1426,3.8495,3.8307,3.711,3.6635,3.6597,3.6602,3.6934,3.732,3.7496,3.725,3.6874,3.6999,3.6866,3.6626,3.5593,3.5062,3.5139,3.3969,3.3513,3.3386,3.3386,3.3386,3.3386,3.3386,3.3386,3.3386,3.3386,3.3386,3.3386,3.3386,3.3386,3.3386,3.3386,3.3386,3.3386,3.3386,3.3386,3.3386,3.3386,3.3386,3.3386,3.3386,3.3386,3.3386,3.3386,3.3386,3.3386,3.3386,3.3386,3.3386,3.3386,3.3386,3.3386,3.3386,3.3386,3.3386,3.3386,3.3386,3.3386,3.3386,3.3386,3.3386,3.3386,3.3386,3.3386,3.3386,3.3386,3.3386,3.3386,3.3386,3.3386,3.3386,3.3386,3.3386,3.3386,3.3386,3.3386,3.3386,3.3386,3.3386,3.3386,3.3386,3.3386,3.3386,3.3386,3.3386,3.3386,3.3386,3.3386,3.3386,3.3386,3.3386,3.3386,3.3371,3.3386,3.3323,3.3276,3.3238,3.3143,3.3,3.2778,3.2699,3.2651,3.2667,3.2746,3.2975,3.3118,3.2905,3.2692,3.2485,3.2342,3.223,3.1942,3.1612,3.1474,3.8762,3.7824,3.8088,3.7926,3.7404,3.7183,3.724,3.7501,3.7514,3.7464,3.7328,3.7298,3.7298,3.695,3.6032,3.5402,3.5216,3.4006,3.3544,3.3386,3.3386,3.3386,3.3386,3.3386,3.3386,3.3386,3.3386,3.3386,3.3386,3.3386,3.3386,3.3386,3.3386,3.3386,3.3386,3.3386,3.3386,3.3386,3.3386,3.3386,3.3386,3.3386,3.3386,3.3386,3.3386,3.3386,3.3386,3.3386,3.3386,3.3386,3.3386,3.3386,3.3386,3.3386,3.3386,3.3386,3.3386,3.3386,3.3386,3.3386,3.3386,3.3386,3.3386,3.3386,3.3386,3.3386,3.3386,3.3386,3.3386,3.3386,3.3386,3.3386,3.3386,3.3386,3.3386,3.3386,3.3386,3.3386,3.3386,3.3386,3.3386,3.3386,3.3386,3.3386,3.3386,3.3386,3.3386,3.3386,3.3386,3.3386,3.3386,3.3386,3.3386,3.3386,3.3386,3.3386,3.3386,3.3339,3.3285,3.3143,3.3032,3.3149,3.3118,3.3102,3.3054,3.3197,3.3228,3.3143,3.3016,3.2889,3.2683,3.2485,3.2109,3.1676,3.1515,3.9587,3.8607,3.943,3.9215,3.8301,3.7983,3.8108,3.8432,3.8544,3.8179,3.7914,3.8209,3.794,3.7248,3.649,3.5684,3.5175,3.4116,3.355,3.3386,3.3386,3.3386,3.3386,3.3386,3.3386,3.3386,3.3386,3.3386,3.3386,3.3386,3.3386,3.3386,3.3386,3.3386,3.3386,3.3386,3.3386,3.3386,3.3386,3.3386,3.3386,3.3386,3.3386,3.3386,3.3386,3.3386,3.3386,3.3386,3.3386,3.3386,3.3386,3.3386,3.3386,3.3386,3.3386,3.3386,3.3386,3.3386,3.3386,3.3386,3.3386,3.3386,3.3386,3.3386,3.3386,3.3386,3.3386,3.3386,3.3386,3.3386,3.3386,3.3386,3.3386,3.3386,3.3386,3.3386,3.3386,3.3386,3.3386,3.3386,3.3386,3.3386,3.3386,3.3386,3.3386,3.3386,3.3386,3.3386,3.3386,3.3386,3.3386,3.3386,3.3386,3.3386,3.3386,3.3386,3.3386,3.3386,3.3323,3.327,3.3238,3.3355,3.3371,3.326,3.3244,3.3355,3.3339,3.326,3.3292,3.3339,3.3007,3.2619,3.231,3.1894,3.1596,4.1081,4.1141,4.1084,4.0339,3.927,3.918,3.9823,4.06,4.0757,4.0185,3.936,4.0255,3.9589,3.7985,3.7493,3.6718,3.5535,3.4293,3.3528,3.3434,3.3386,3.3386,3.3386,3.3386,3.3386,3.3386,3.3386,3.3386,3.3386,3.3386,3.3386,3.3386,3.3386,3.3386,3.3386,3.3386,3.3386,3.3386,3.3386,3.3386,3.3386,3.3386,3.3386,3.3386,3.3386,3.3386,3.3386,3.3386,3.3386,3.3386,3.3386,3.3386,3.3386,3.3386,3.3386,3.3386,3.3386,3.3386,3.3386,3.3386,3.3386,3.3386,3.3386,3.3386,3.3386,3.3386,3.3386,3.3386,3.3386,3.3386,3.3386,3.3386,3.3386,3.3386,3.3386,3.3386,3.3386,3.3386,3.3386,3.3386,3.3386,3.3386,3.3386,3.3386,3.3386,3.3386,3.3386,3.3386,3.3386,3.3386,3.3386,3.3386,3.3386,3.3386,3.3386,3.3386,3.3386,3.3386,3.3371,3.3323,3.3307,3.3371,3.3371,3.3339,3.3355,3.3386,3.3386,3.3371,3.3386,3.3355,3.3022,3.2667,3.239,3.2054,3.1676,4.1199,4.1199,4.1199,4.0956,4.0542,4.0528,4.0815,4.1156,4.117,4.0928,4.0673,4.1098,4.0887,3.9823,3.867,3.7689,3.6479,3.532,3.4512,3.3418,3.3386,3.3386,3.3386,3.3386,3.3386,3.3386,3.3386,3.3386,3.3386,3.3386,3.3386,3.3386,3.3386,3.3386,3.3386,3.3386,3.3386,3.3386,3.3386,3.3386,3.3386,3.3386,3.3386,3.3386,3.3386,3.3386,3.3386,3.3386,3.3386,3.3386,3.3386,3.3386,3.3386,3.3386,3.3386,3.3386,3.3386,3.3386,3.3386,3.3386,3.3386,3.3386,3.3386,3.3386,3.3386,3.3386,3.3386,3.3386,3.3386,3.3386,3.3386,3.3386,3.3386,3.3386,3.3386,3.3386,3.3386,3.3386,3.3386,3.3386,3.3386,3.3386,3.3386,3.3386,3.3386,3.3386,3.3386,3.3386,3.3386,3.3386,3.3386,3.3386,3.3386,3.3386,3.3386,3.3386,3.3386,3.3386,3.3386,3.3371,3.3386,3.3386,3.3386,3.3371,3.3371,3.3386,3.3386,3.3386,3.3386,3.3276,3.2985,3.2699,3.2422,3.2013,3.1538,4.1199,4.1199,4.1199,4.1199,4.1199,4.1199,4.1199,4.1199,4.1184,4.0971,4.0629,4.0901,4.0499,3.975,3.8933,3.7839,3.6581,3.5258,3.4496,3.3418,3.3386,3.3386,3.3386,3.3386,3.3386,3.3386,3.3386,3.3386,3.3386,3.3386,3.3386,3.3386,3.3386,3.3386,3.3386,3.3386,3.3386,3.3386,3.3386,3.3386,3.3386,3.3386,3.3386,3.3386,3.3386,3.3386,3.3386,3.3386,3.3386,3.3386,3.3386,3.3386,3.3386,3.3386,3.3386,3.3386,3.3386,3.3386,3.3386,3.3386,3.3386,3.3386,3.3386,3.3386,3.3386,3.3386,3.3386,3.3386,3.3386,3.3386,3.3386,3.3386,3.3386,3.3386,3.3386,3.3386,3.3386,3.3386,3.3386,3.3386,3.3386,3.3386,3.3386,3.3386,3.3386,3.3386,3.3386,3.3386,3.3386,3.3386,3.3386,3.3386,3.3386,3.3386,3.3386,3.3386,3.3386,3.3386,3.3386,3.3386,3.3386,3.3386,3.3386,3.3386,3.3386,3.3386,3.3386,3.3386,3.3386,3.3244,3.2985,3.2715,3.2438,3.2077,3.1667,4.1199,4.1199,4.1199,4.1199,4.1199,4.1199,4.1199,4.1199,4.1199,4.0528,3.9504,4.0829,4.0298,3.8149,3.7625,3.6961,3.5838,3.4471,3.3786,3.3481,3.3386,3.3386,3.3386,3.3386,3.3386,3.3386,3.3386,3.3386,3.3386,3.3386,3.3386,3.3386,3.3386,3.3386,3.3386,3.3386,3.3386,3.3386,3.3386,3.3386,3.3386,3.3386,3.3386,3.3386,3.3386,3.3386,3.3386,3.3386,3.3386,3.3386,3.3386,3.3386,3.3386,3.3386,3.3386,3.3386,3.3386,3.3386,3.3386,3.3386,3.3386,3.3386,3.3386,3.3386,3.3386,3.3386,3.3386,3.3386,3.3386,3.3386,3.3386,3.3386,3.3386,3.3386,3.3386,3.3386,3.3386,3.3386,3.3386,3.3386,3.3386,3.3386,3.3386,3.3386,3.3386,3.3386,3.3386,3.3386,3.3386,3.3386,3.3386,3.3386,3.3386,3.3386,3.3386,3.3386,3.3386,3.3386,3.3386,3.3386,3.3386,3.3386,3.3386,3.3386,3.3386,3.3386,3.3386,3.3386,3.3386,3.3212,3.3032,3.2835,3.2587,3.2422,3.2093,4.1199,4.1199,4.1199,4.1199,4.1199,4.1187,4.1199,4.1199,4.1199,4.0901,4.0658,4.1014,4.047,4.0024,3.9095,3.7809,3.6627,3.5453,3.4325,3.3786,3.3386,3.3386,3.3386,3.3386,3.3386,3.3386,3.3386,3.3386,3.3386,3.3386,3.3386,3.3386,3.3386,3.3386,3.3386,3.3386,3.3386,3.3386,3.3386,3.3386,3.3386,3.3386,3.3386,3.3386,3.3386,3.3386,3.3386,3.3386,3.3386,3.3386,3.3386,3.3386,3.3386,3.3386,3.3386,3.3386,3.3386,3.3386,3.3386,3.3386,3.3386,3.3386,3.3386,3.3386,3.3386,3.3386,3.3386,3.3386,3.3386,3.3386,3.3386,3.3386,3.3386,3.3386,3.3386,3.3386,3.3386,3.3386,3.3386,3.3386,3.3386,3.3386,3.3386,3.3386,3.3386,3.3386,3.3386,3.3386,3.3386,3.3386,3.3386,3.3386,3.3386,3.3386,3.3386,3.3386,3.3386,3.3386,3.3386,3.3386,3.3386,3.3386,3.3386,3.3386,3.3386,3.3386,3.3386,3.3386,3.3386,3.3292,3.3127,3.2937,3.2762,3.2603,3.2469,4.0872,4.0862,4.0645,4.0573,4.0559,4.0559,4.0559,4.0633,4.1021,4.1199,4.1156,4.06,4.0412,3.9911,3.8387,3.7082,3.6348,3.4974,3.3975,3.3613,3.3357,3.3386,3.3386,3.3377,3.3386,3.3386,3.3386,3.3386,3.3386,3.3386,3.3386,3.3386,3.3386,3.3386,3.3386,3.3386,3.3386,3.3386,3.3386,3.3386,3.3386,3.3386,3.3386,3.3386,3.3386,3.3386,3.3386,3.3386,3.3386,3.3386,3.3386,3.3386,3.3386,3.3386,3.3386,3.3386,3.3386,3.3386,3.3386,3.3386,3.3386,3.3386,3.3386,3.3386,3.3386,3.3386,3.3386,3.3386,3.3386,3.3386,3.3386,3.3386,3.3386,3.3386,3.3386,3.3386,3.3386,3.3386,3.3386,3.3386,3.3386,3.3386,3.3386,3.3386,3.3386,3.3386,3.3386,3.3386,3.3386,3.3386,3.3386,3.3386,3.3386,3.3386,3.3386,3.3386,3.3386,3.3386,3.3386,3.3386,3.3386,3.3386,3.3386,3.3386,3.3386,3.3386,3.3386,3.3386,3.3371,3.3292,3.326,3.3165,3.3016,3.2842,3.2715,4.0345,4.0294,3.9813,3.9693,3.9621,3.9681,3.9681,3.9705,4.0595,4.1054,4.0767,3.9805,3.9331,3.8854,3.7075,3.5884,3.5101,3.4065,3.3414,3.3289,3.3265,3.3256,3.3285,3.3392,3.3386,3.3386,3.3386,3.3386,3.3386,3.3386,3.3386,3.3386,3.3386,3.3386,3.3386,3.3386,3.3386,3.3386,3.3386,3.3386,3.3386,3.3386,3.3386,3.3386,3.3386,3.3386,3.3386,3.3386,3.3386,3.3386,3.3386,3.3386,3.3386,3.3386,3.3386,3.3386,3.3386,3.3386,3.3386,3.3386,3.3386,3.3386,3.3386,3.3386,3.3386,3.3386,3.3386,3.3386,3.3386,3.3386,3.3386,3.3386,3.3386,3.3386,3.3386,3.3386,3.3386,3.3386,3.3386,3.3386,3.3386,3.3386,3.3386,3.3386,3.3386,3.3386,3.3386,3.3386,3.3386,3.3386,3.3386,3.3386,3.3386,3.3386,3.3386,3.3386,3.3386,3.3386,3.3386,3.3386,3.3386,3.3386,3.3386,3.3386,3.3386,3.3386,3.3386,3.3386,3.3386,3.3371,3.3355,3.3371,3.3244,3.3054,3.3007,3.9789,3.9776,3.9643,3.9609,3.9609,3.9609,3.9585,3.9635,3.9824,3.9982,3.9898,3.9578,3.8913,3.7829,3.6377,3.5219,3.4174,3.3272,3.2613,3.2646,3.2803,3.2939,3.3008,3.3164,3.3295,3.3386,3.3386,3.3299,3.3334,3.3338,3.3377,3.3386,3.3386,3.3386,3.3386,3.3386,3.3386,3.3386,3.3386,3.3386,3.3386,3.3386,3.3386,3.3386,3.3386,3.3386,3.3386,3.3386,3.3386,3.3386,3.3386,3.3386,3.3386,3.3386,3.3386,3.3386,3.3386,3.3386,3.3386,3.3386,3.3386,3.3386,3.3386,3.3386,3.3386,3.3386,3.3386,3.3386,3.3386,3.3386,3.3386,3.3386,3.3386,3.3386,3.3386,3.3386,3.3386,3.3386,3.3386,3.3386,3.3386,3.3386,3.3386,3.3386,3.3386,3.3386,3.3386,3.3386,3.3386,3.3386,3.3386,3.3386,3.3386,3.3386,3.3386,3.3386,3.3386,3.3386,3.3386,3.3386,3.3386,3.3386,3.3386,3.3386,3.3386,3.3386,3.3386,3.3386,3.3386,3.3386,3.3386,3.3386,3.3386,3.3244,3.326,3.8671,3.8889,3.8888,3.8876,3.8888,3.8901,3.8876,3.8901,3.8876,3.8888,3.886,3.8702,3.8088,3.6875,3.5602,3.4397,3.334,3.2592,3.2337,3.232,3.2339,3.2486,3.2662,3.2808,3.2769,3.2851,3.2871,3.2881,3.3105,3.3154,3.3139,3.3324,3.3357,3.3383,3.3367,3.3377,3.3386,3.3386,3.3386,3.3386,3.3386,3.3386,3.3386,3.3386,3.3386,3.3386,3.3386,3.3386,3.3386,3.3386,3.3386,3.3386,3.3386,3.3386,3.3386,3.3386,3.3386,3.3386,3.3386,3.3386,3.3386,3.3386,3.3386,3.3386,3.3386,3.3386,3.3386,3.3386,3.3386,3.3386,3.3386,3.3386,3.3386,3.3386,3.3386,3.3386,3.3386,3.3386,3.3386,3.3386,3.3386,3.3386,3.3386,3.3386,3.3386,3.3386,3.3386,3.3386,3.3386,3.3386,3.3386,3.3386,3.3386,3.3386,3.3386,3.3386,3.3386,3.3386,3.3386,3.3386,3.3386,3.3386,3.3386,3.3386,3.3386,3.3386,3.3386,3.3386,3.3386,3.3386,3.3386,3.3386,3.3367,3.328,3.3172,3.741,3.777,3.7795,3.7795,3.7795,3.7795,3.7795,3.7807,3.7808,3.7807,3.7798,3.7614,3.681,3.562,3.4364,3.3163,3.2295,3.1927,3.1915,3.1964,3.2037,3.2085,3.2134,3.2212,3.2335,3.2355,3.2339,3.2515,3.273,3.275,3.2871,3.3187,3.3295,3.3324,3.3344,3.3392,3.3386,3.3386,3.3386,3.3386,3.3386,3.3386,3.3386,3.3386,3.3386,3.3386,3.3386,3.3386,3.3386,3.3386,3.3386,3.3386,3.3386,3.3386,3.3386,3.3386,3.3386,3.3386,3.3386,3.3386,3.3386,3.3386,3.3386,3.3386,3.3386,3.3386,3.3386,3.3386,3.3386,3.3386,3.3386,3.3386,3.3386,3.3386,3.3386,3.3386,3.3386,3.3386,3.3386,3.3386,3.3386,3.3386,3.3386,3.3386,3.3386,3.3386,3.3386,3.3386,3.3386,3.3386,3.3386,3.3386,3.3386,3.3386,3.3386,3.3386,3.3386,3.3386,3.3386,3.3386,3.3386,3.3386,3.3386,3.3386,3.3386,3.3377,3.3386,3.3386,3.3386,3.3328,3.3386,3.3341,3.2999,3.2913,3.2838,3.6615,3.6699,3.6699,3.6723,3.6723,3.6723,3.6699,3.6711,3.6735,3.6686,3.6715,3.6593,3.5936,3.4622,3.3467,3.2453,3.1786,3.1412,3.1196,3.1157,3.1523,3.1621,3.1709,3.1851,3.213,3.212,3.2061,3.2228,3.23,3.23,3.2349,3.2506,3.2842,3.293,3.2969,3.309,3.3334,3.3334,3.3367,3.3386,3.3386,3.3386,3.3386,3.3386,3.3386,3.3386,3.3386,3.3386,3.3386,3.3386,3.3386,3.3386,3.3386,3.3386,3.3386,3.3386,3.3386,3.3386,3.3386,3.3386,3.3386,3.3386,3.3386,3.3386,3.3386,3.3386,3.3386,3.3386,3.3386,3.3386,3.3386,3.3386,3.3386,3.3386,3.3386,3.3386,3.3386,3.3386,3.3386,3.3386,3.3386,3.3386,3.3386,3.3386,3.3386,3.3386,3.3386,3.3386,3.3386,3.3386,3.3357,3.3367,3.3367,3.3386,3.3386,3.3386,3.3386,3.3386,3.3386,3.3386,3.3386,3.3386,3.3386,3.3386,3.3392,3.3392,3.3392,3.3275,3.3246,3.3207,3.3328,3.3271,3.283,3.248,3.2338]}]]